Time,TemperatureF,DewpointF,PressureIn,WindDirection,WindDirectionDegrees,WindSpeedMPH,WindSpeedGustMPH,Humidity,HourlyPrecipIn,Conditions,Clouds,dailyrainin,SoftwareType,DateUTC
2013-02-22 00:00:00,22.0,17.1,30.23,ENE,63,0.0,3.0,81,0.00,,,0.00,VWS V14.01,2013-02-22 05:00:00,
2013-02-22 00:01:00,22.0,17.1,30.23,ENE,63,0.0,0.0,81,0.00,,,0.00,VWS V14.01,2013-02-22 05:01:00,
2013-02-22 00:02:00,22.1,17.2,30.23,ENE,63,0.0,1.0,81,0.00,,,0.00,VWS V14.01,2013-02-22 05:02:00,
2013-02-22 00:03:00,22.1,17.2,30.23,ENE,63,0.0,1.0,81,0.00,,,0.00,VWS V14.01,2013-02-22 05:03:00,
2013-02-22 00:04:00,22.1,17.2,30.23,ENE,63,0.0,1.0,81,0.00,,,0.00,VWS V14.01,2013-02-22 05:04:00,
2013-02-22 00:05:00,22.1,17.2,30.23,ENE,63,0.0,1.0,81,0.00,,,0.00,VWS V14.01,2013-02-22 05:05:00,
2013-02-22 00:06:00,22.1,17.2,30.23,ENE,66,0.0,2.0,81,0.00,,,0.00,VWS V14.01,2013-02-22 05:06:00,
2013-02-22 00:07:00,22.1,17.2,30.23,ENE,65,0.0,2.0,81,0.00,,,0.00,VWS V14.01,2013-02-22 05:07:00,
2013-02-22 00:08:00,22.1,17.2,30.24,ENE,66,0.0,2.0,81,0.00,,,0.00,VWS V14.01,2013-02-22 05:08:00,
2013-02-22 00:09:00,22.1,17.2,30.24,ENE,66,0.0,2.0,81,0.00,,,0.00,VWS V14.01,2013-02-22 05:09:00,
2013-02-22 00:10:00,22.1,17.2,30.24,East,84,0.0,3.0,81,0.00,,,0.00,VWS V14.01,2013-02-22 05:10:00,
2013-02-22 00:11:00,22.1,17.5,30.25,East,87,0.0,3.0,82,0.00,,,0.00,VWS V14.01,2013-02-22 05:11:00,
2013-02-22 00:12:00,22.1,17.5,30.25,East,87,1.0,3.0,82,0.00,,,0.00,VWS V14.01,2013-02-22 05:12:00,
2013-02-22 00:13:00,22.2,17.5,30.25,SE,136,0.0,6.0,82,0.00,,,0.00,VWS V14.01,2013-02-22 05:13:00,
2013-02-22 00:14:00,22.1,17.5,30.25,SE,136,0.0,6.0,82,0.00,,,0.00,VWS V14.01,2013-02-22 05:14:00,
2013-02-22 00:15:00,22.1,17.5,30.25,SE,136,0.0,6.0,82,0.00,,,0.00,VWS V14.01,2013-02-22 05:15:00,
2013-02-22 00:16:00,22.2,17.5,30.25,SE,136,0.0,6.0,82,0.00,,,0.00,VWS V14.01,2013-02-22 05:16:00,
2013-02-22 00:17:00,22.2,17.5,30.25,SE,136,0.0,6.0,82,0.00,,,0.00,VWS V14.01,2013-02-22 05:17:00,
2013-02-22 00:18:00,22.2,17.5,30.25,SE,136,0.0,6.0,82,0.00,,,0.00,VWS V14.01,2013-02-22 05:18:00,
2013-02-22 00:19:00,22.2,17.5,30.25,SE,136,0.0,6.0,82,0.00,,,0.00,VWS V14.01,2013-02-22 05:19:00,
2013-02-22 00:20:00,22.2,17.5,30.25,SE,136,0.0,6.0,82,0.00,,,0.00,VWS V14.01,2013-02-22 05:20:00,
2013-02-22 00:21:00,22.2,17.5,30.25,SE,136,0.0,6.0,82,0.00,,,0.00,VWS V14.01,2013-02-22 05:21:00,
2013-02-22 00:22:00,22.2,17.5,30.26,SE,136,0.0,6.0,82,0.00,,,0.00,VWS V14.01,2013-02-22 05:22:00,
2013-02-22 00:23:00,22.2,17.5,30.26,SE,136,0.0,6.0,82,0.00,,,0.00,VWS V14.01,2013-02-22 05:23:00,
2013-02-22 00:24:00,22.2,17.5,30.26,SE,136,0.0,6.0,82,0.00,,,0.00,VWS V14.01,2013-02-22 05:24:00,
2013-02-22 00:25:00,22.2,17.5,30.26,SE,136,0.0,6.0,82,0.00,,,0.00,VWS V14.01,2013-02-22 05:25:00,
2013-02-22 00:26:00,22.2,17.5,30.26,SE,136,0.0,6.0,82,0.00,,,0.00,VWS V14.01,2013-02-22 05:26:00,
2013-02-22 00:27:00,22.3,17.6,30.26,SE,136,0.0,6.0,82,0.00,,,0.00,VWS V14.01,2013-02-22 05:27:00,
2013-02-22 00:28:00,22.3,17.6,30.26,SE,136,1.0,6.0,82,0.00,,,0.00,VWS V14.01,2013-02-22 05:28:00,
2013-02-22 00:29:00,22.3,17.6,30.26,SE,136,0.0,6.0,82,0.00,,,0.00,VWS V14.01,2013-02-22 05:29:00,
2013-02-22 00:30:00,22.4,17.8,30.26,SE,138,1.0,6.0,82,0.00,,,0.00,VWS V14.01,2013-02-22 05:30:00,
2013-02-22 00:31:00,22.4,17.8,30.26,SE,139,0.0,1.0,82,0.00,,,0.00,VWS V14.01,2013-02-22 05:31:00,
2013-02-22 00:32:00,22.4,17.8,30.26,SE,139,1.0,1.0,82,0.00,,,0.00,VWS V14.01,2013-02-22 05:32:00,
2013-02-22 00:33:00,22.4,17.8,30.26,SE,139,1.0,1.0,82,0.00,,,0.00,VWS V14.01,2013-02-22 05:33:00,
2013-02-22 00:34:00,22.4,17.5,30.26,SE,139,0.0,1.0,81,0.00,,,0.00,VWS V14.01,2013-02-22 05:34:00,
2013-02-22 00:35:00,22.4,17.5,30.26,SE,138,0.0,1.0,81,0.00,,,0.00,VWS V14.01,2013-02-22 05:35:00,
2013-02-22 00:36:00,22.4,17.5,30.26,SE,139,0.0,1.0,81,0.00,,,0.00,VWS V14.01,2013-02-22 05:36:00,
2013-02-22 00:37:00,22.4,17.5,30.26,SE,139,0.0,1.0,81,0.00,,,0.00,VWS V14.01,2013-02-22 05:37:00,
2013-02-22 00:38:00,22.4,17.5,30.26,SE,139,1.0,1.0,81,0.00,,,0.00,VWS V14.01,2013-02-22 05:38:00,
2013-02-22 00:39:00,22.4,17.5,30.26,SE,146,2.0,3.0,81,0.00,,,0.00,VWS V14.01,2013-02-22 05:39:00,
2013-02-22 00:40:00,22.4,17.5,30.26,SE,146,0.0,3.0,81,0.00,,,0.00,VWS V14.01,2013-02-22 05:40:00,
2013-02-22 00:41:00,22.4,17.5,30.26,SE,146,1.0,3.0,81,0.00,,,0.00,VWS V14.01,2013-02-22 05:41:00,
2013-02-22 00:42:00,22.4,17.5,30.26,ESE,110,0.0,3.0,81,0.00,,,0.00,VWS V14.01,2013-02-22 05:42:00,
2013-02-22 00:43:00,22.4,17.5,30.25,ESE,111,0.0,3.0,81,0.00,,,0.00,VWS V14.01,2013-02-22 05:43:00,
2013-02-22 00:44:00,22.4,17.5,30.25,ESE,111,0.0,3.0,81,0.00,,,0.00,VWS V14.01,2013-02-22 05:44:00,
2013-02-22 00:45:00,22.4,17.5,30.25,ESE,111,0.0,3.0,81,0.00,,,0.00,VWS V14.01,2013-02-22 05:45:00,
2013-02-22 00:46:00,22.4,17.5,30.25,ESE,110,0.0,3.0,81,0.00,,,0.00,VWS V14.01,2013-02-22 05:46:00,
2013-02-22 00:47:00,22.4,17.5,30.25,ESE,110,0.0,3.0,81,0.00,,,0.00,VWS V14.01,2013-02-22 05:47:00,
2013-02-22 00:48:00,22.4,17.5,30.25,ESE,111,0.0,3.0,81,0.00,,,0.00,VWS V14.01,2013-02-22 05:48:00,
2013-02-22 00:49:00,22.4,17.5,30.26,ESE,111,0.0,3.0,81,0.00,,,0.00,VWS V14.01,2013-02-22 05:49:00,
2013-02-22 00:50:00,22.4,17.5,30.25,ESE,110,0.0,3.0,81,0.00,,,0.00,VWS V14.01,2013-02-22 05:50:00,
2013-02-22 00:51:00,22.4,17.5,30.25,ESE,111,0.0,3.0,81,0.00,,,0.00,VWS V14.01,2013-02-22 05:51:00,
2013-02-22 00:52:00,22.4,17.5,30.25,ESE,111,0.0,3.0,81,0.00,,,0.00,VWS V14.01,2013-02-22 05:52:00,
2013-02-22 00:53:00,22.4,17.5,30.25,ESE,110,0.0,3.0,81,0.00,,,0.00,VWS V14.01,2013-02-22 05:53:00,
2013-02-22 00:54:00,22.4,17.5,30.25,ESE,111,0.0,3.0,81,0.00,,,0.00,VWS V14.01,2013-02-22 05:54:00,
2013-02-22 00:55:00,22.4,17.5,30.25,ESE,111,0.0,3.0,81,0.00,,,0.00,VWS V14.01,2013-02-22 05:55:00,
2013-02-22 00:56:00,22.4,17.8,30.25,ESE,111,1.0,3.0,82,0.00,,,0.00,VWS V14.01,2013-02-22 05:56:00,
2013-02-22 00:57:00,22.5,17.9,30.25,ESE,111,0.0,3.0,82,0.00,,,0.00,VWS V14.01,2013-02-22 05:57:00,
2013-02-22 00:58:00,22.5,17.9,30.25,ESE,111,0.0,3.0,82,0.00,,,0.00,VWS V14.01,2013-02-22 05:58:00,
2013-02-22 00:59:00,22.5,17.9,30.25,ESE,110,0.0,3.0,82,0.00,,,0.00,VWS V14.01,2013-02-22 05:59:00,
2013-02-22 01:00:00,22.5,17.9,30.25,ESE,111,0.0,3.0,82,0.00,,,0.00,VWS V14.01,2013-02-22 06:00:00,
2013-02-22 01:01:00,22.5,17.6,30.25,ESE,111,0.0,1.0,81,0.00,,,0.00,VWS V14.01,2013-02-22 06:01:00,
2013-02-22 01:02:00,22.5,17.6,30.25,ESE,110,0.0,1.0,81,0.00,,,0.00,VWS V14.01,2013-02-22 06:02:00,
2013-02-22 01:03:00,22.5,17.6,30.25,ESE,111,0.0,1.0,81,0.00,,,0.00,VWS V14.01,2013-02-22 06:03:00,
2013-02-22 01:04:00,22.5,17.6,30.25,ESE,111,0.0,2.0,81,0.00,,,0.00,VWS V14.01,2013-02-22 06:04:00,
2013-02-22 01:05:00,22.5,17.6,30.25,ESE,111,0.0,2.0,81,0.00,,,0.00,VWS V14.01,2013-02-22 06:05:00,
2013-02-22 01:06:00,22.5,17.6,30.25,ESE,111,0.0,2.0,81,0.00,,,0.00,VWS V14.01,2013-02-22 06:06:00,
2013-02-22 01:07:00,22.5,17.6,30.25,ESE,111,2.0,2.0,81,0.00,,,0.00,VWS V14.01,2013-02-22 06:07:00,
2013-02-22 01:08:00,22.5,17.6,30.25,ESE,110,2.0,2.0,81,0.00,,,0.00,VWS V14.01,2013-02-22 06:08:00,
2013-02-22 01:09:00,22.5,17.6,30.24,ESE,111,0.0,2.0,81,0.00,,,0.00,VWS V14.01,2013-02-22 06:09:00,
2013-02-22 01:10:00,22.5,17.6,30.24,ESE,111,0.0,2.0,81,0.00,,,0.00,VWS V14.01,2013-02-22 06:10:00,
2013-02-22 01:11:00,22.5,17.6,30.24,ESE,111,1.0,2.0,81,0.00,,,0.00,VWS V14.01,2013-02-22 06:11:00,
2013-02-22 01:12:00,22.5,17.6,30.24,ESE,111,0.0,2.0,81,0.00,,,0.00,VWS V14.01,2013-02-22 06:12:00,
2013-02-22 01:13:00,22.5,17.6,30.24,ESE,107,0.0,2.0,81,0.00,,,0.00,VWS V14.01,2013-02-22 06:13:00,
2013-02-22 01:14:00,22.5,17.6,30.24,ESE,107,0.0,2.0,81,0.00,,,0.00,VWS V14.01,2013-02-22 06:14:00,
2013-02-22 01:15:00,22.5,17.6,30.24,ESE,106,0.0,2.0,81,0.00,,,0.00,VWS V14.01,2013-02-22 06:15:00,
2013-02-22 01:16:00,22.5,17.6,30.24,ESE,107,0.0,2.0,81,0.00,,,0.00,VWS V14.01,2013-02-22 06:16:00,
2013-02-22 01:17:00,22.5,17.6,30.24,ESE,107,0.0,2.0,81,0.00,,,0.00,VWS V14.01,2013-02-22 06:17:00,
2013-02-22 01:18:00,22.5,17.6,30.24,ESE,107,0.0,2.0,81,0.00,,,0.00,VWS V14.01,2013-02-22 06:18:00,
2013-02-22 01:19:00,22.5,17.6,30.24,ESE,107,0.0,2.0,81,0.00,,,0.00,VWS V14.01,2013-02-22 06:19:00,
2013-02-22 01:20:00,22.5,17.6,30.24,ESE,107,0.0,2.0,81,0.00,,,0.00,VWS V14.01,2013-02-22 06:20:00,
2013-02-22 01:21:00,22.5,17.6,30.24,ESE,105,1.0,2.0,81,0.00,,,0.00,VWS V14.01,2013-02-22 06:21:00,
2013-02-22 01:22:00,22.5,17.6,30.24,ESE,105,0.0,2.0,81,0.00,,,0.00,VWS V14.01,2013-02-22 06:22:00,
2013-02-22 01:23:00,22.5,17.6,30.24,ESE,105,0.0,2.0,81,0.00,,,0.00,VWS V14.01,2013-02-22 06:23:00,
2013-02-22 01:24:00,22.5,17.6,30.24,ESE,105,0.0,2.0,81,0.00,,,0.00,VWS V14.01,2013-02-22 06:24:00,
2013-02-22 01:25:00,22.5,17.6,30.24,SSW,205,4.0,4.0,81,0.00,,,0.00,VWS V14.01,2013-02-22 06:25:00,
2013-02-22 01:26:00,22.5,17.6,30.23,SSW,202,0.0,4.0,81,0.00,,,0.00,VWS V14.01,2013-02-22 06:26:00,
2013-02-22 01:27:00,22.5,17.6,30.24,South,178,0.0,4.0,81,0.00,,,0.00,VWS V14.01,2013-02-22 06:27:00,
2013-02-22 01:28:00,22.6,17.7,30.24,South,177,0.0,4.0,81,0.00,,,0.00,VWS V14.01,2013-02-22 06:28:00,
2013-02-22 01:29:00,22.5,17.6,30.23,South,178,0.0,4.0,81,0.00,,,0.00,VWS V14.01,2013-02-22 06:29:00,
2013-02-22 01:30:00,22.6,17.7,30.23,South,177,1.0,4.0,81,0.00,,,0.00,VWS V14.01,2013-02-22 06:30:00,
2013-02-22 01:31:00,22.6,17.7,30.23,South,173,1.0,3.0,81,0.00,,,0.00,VWS V14.01,2013-02-22 06:31:00,
2013-02-22 01:32:00,22.6,17.7,30.24,South,173,0.0,3.0,81,0.00,,,0.00,VWS V14.01,2013-02-22 06:32:00,
2013-02-22 01:33:00,22.5,17.6,30.23,South,172,1.0,3.0,81,0.00,,,0.00,VWS V14.01,2013-02-22 06:33:00,
2013-02-22 01:34:00,22.5,17.6,30.23,South,173,0.0,3.0,81,0.00,,,0.00,VWS V14.01,2013-02-22 06:34:00,
2013-02-22 01:35:00,22.5,17.6,30.23,South,173,0.0,3.0,81,0.00,,,0.00,VWS V14.01,2013-02-22 06:35:00,
2013-02-22 01:36:00,22.6,17.7,30.23,South,173,0.0,3.0,81,0.00,,,0.00,VWS V14.01,2013-02-22 06:36:00,
2013-02-22 01:37:00,22.6,17.7,30.23,South,172,1.0,3.0,81,0.00,,,0.00,VWS V14.01,2013-02-22 06:37:00,
2013-02-22 01:38:00,22.6,17.7,30.23,South,172,1.0,3.0,81,0.00,,,0.00,VWS V14.01,2013-02-22 06:38:00,
2013-02-22 01:39:00,22.6,17.9,30.23,South,171,1.0,3.0,82,0.00,,,0.00,VWS V14.01,2013-02-22 06:39:00,
2013-02-22 01:40:00,22.6,17.7,30.23,SE,131,3.0,3.0,81,0.00,,,0.00,VWS V14.01,2013-02-22 06:40:00,
2013-02-22 01:41:00,22.6,17.7,30.23,SSE,150,0.0,3.0,81,0.00,,,0.00,VWS V14.01,2013-02-22 06:41:00,
2013-02-22 01:42:00,22.6,17.7,30.23,SSE,150,0.0,3.0,81,0.00,,,0.00,VWS V14.01,2013-02-22 06:42:00,
2013-02-22 01:43:00,22.6,17.7,30.23,SSE,150,0.0,3.0,81,0.00,,,0.00,VWS V14.01,2013-02-22 06:43:00,
2013-02-22 01:44:00,22.6,17.7,30.23,SE,132,0.0,3.0,81,0.00,,,0.00,VWS V14.01,2013-02-22 06:44:00,
2013-02-22 01:45:00,22.6,17.9,30.23,SE,133,2.0,3.0,82,0.00,,,0.00,VWS V14.01,2013-02-22 06:45:00,
2013-02-22 01:46:00,22.7,18.0,30.23,SE,133,0.0,3.0,82,0.00,,,0.00,VWS V14.01,2013-02-22 06:46:00,
2013-02-22 01:47:00,22.7,17.8,30.23,SE,132,0.0,3.0,81,0.00,,,0.00,VWS V14.01,2013-02-22 06:47:00,
2013-02-22 01:48:00,22.6,17.7,30.23,SE,132,0.0,3.0,81,0.00,,,0.00,VWS V14.01,2013-02-22 06:48:00,
2013-02-22 01:49:00,22.6,17.7,30.23,SE,132,1.0,3.0,81,0.00,,,0.00,VWS V14.01,2013-02-22 06:49:00,
2013-02-22 01:50:00,22.7,17.8,30.22,SE,132,0.0,3.0,81,0.00,,,0.00,VWS V14.01,2013-02-22 06:50:00,
2013-02-22 01:51:00,22.7,17.8,30.22,SE,132,0.0,3.0,81,0.00,,,0.00,VWS V14.01,2013-02-22 06:51:00,
2013-02-22 01:52:00,22.7,17.8,30.22,SE,132,0.0,3.0,81,0.00,,,0.00,VWS V14.01,2013-02-22 06:52:00,
2013-02-22 01:53:00,22.7,17.8,30.22,SE,132,0.0,3.0,81,0.00,,,0.00,VWS V14.01,2013-02-22 06:53:00,
2013-02-22 01:54:00,22.7,17.8,30.22,SE,132,0.0,3.0,81,0.00,,,0.00,VWS V14.01,2013-02-22 06:54:00,
2013-02-22 01:55:00,22.7,17.8,30.22,SE,132,0.0,3.0,81,0.00,,,0.00,VWS V14.01,2013-02-22 06:55:00,
2013-02-22 01:56:00,22.7,17.8,30.22,ESE,103,2.0,3.0,81,0.00,,,0.00,VWS V14.01,2013-02-22 06:56:00,
2013-02-22 01:57:00,22.7,17.8,30.22,ESE,103,2.0,3.0,81,0.00,,,0.00,VWS V14.01,2013-02-22 06:57:00,
2013-02-22 01:58:00,22.7,17.8,30.22,ESE,102,0.0,3.0,81,0.00,,,0.00,VWS V14.01,2013-02-22 06:58:00,
2013-02-22 01:59:00,22.7,18.0,30.22,ESE,108,1.0,3.0,82,0.00,,,0.00,VWS V14.01,2013-02-22 06:59:00,
2013-02-22 02:00:00,22.7,17.8,30.22,ESE,112,0.0,3.0,81,0.00,,,0.00,VWS V14.01,2013-02-22 07:00:00,
2013-02-22 02:01:00,22.7,17.8,30.22,ESE,110,0.0,2.0,81,0.00,,,0.00,VWS V14.01,2013-02-22 07:01:00,
2013-02-22 02:02:00,22.7,17.8,30.22,ESE,110,0.0,3.0,81,0.00,,,0.00,VWS V14.01,2013-02-22 07:02:00,
2013-02-22 02:03:00,22.7,17.8,30.22,ESE,110,2.0,3.0,81,0.00,,,0.00,VWS V14.01,2013-02-22 07:03:00,
2013-02-22 02:04:00,22.7,18.0,30.21,ESE,107,0.0,3.0,82,0.00,,,0.00,VWS V14.01,2013-02-22 07:04:00,
2013-02-22 02:05:00,22.7,18.0,30.21,ESE,108,0.0,3.0,82,0.00,,,0.00,VWS V14.01,2013-02-22 07:05:00,
2013-02-22 02:06:00,22.7,17.8,30.21,ESE,108,0.0,3.0,81,0.00,,,0.00,VWS V14.01,2013-02-22 07:06:00,
2013-02-22 02:07:00,22.7,17.8,30.21,ESE,108,0.0,3.0,81,0.00,,,0.00,VWS V14.01,2013-02-22 07:07:00,
2013-02-22 02:08:00,22.7,18.0,30.21,ESE,107,2.0,3.0,82,0.00,,,0.00,VWS V14.01,2013-02-22 07:08:00,
2013-02-22 02:09:00,22.7,18.0,30.21,ESE,108,0.0,3.0,82,0.00,,,0.00,VWS V14.01,2013-02-22 07:09:00,
2013-02-22 02:10:00,22.7,18.0,30.21,SE,138,2.0,3.0,82,0.00,,,0.00,VWS V14.01,2013-02-22 07:10:00,
2013-02-22 02:11:00,22.7,17.8,30.21,SE,138,2.0,3.0,81,0.00,,,0.00,VWS V14.01,2013-02-22 07:11:00,
2013-02-22 02:12:00,22.7,17.8,30.21,ESE,123,1.0,3.0,81,0.00,,,0.00,VWS V14.01,2013-02-22 07:12:00,
2013-02-22 02:13:00,22.7,17.8,30.21,ESE,118,0.0,3.0,81,0.00,,,0.00,VWS V14.01,2013-02-22 07:13:00,
2013-02-22 02:14:00,22.7,18.0,30.21,ESE,118,0.0,3.0,82,0.00,,,0.00,VWS V14.01,2013-02-22 07:14:00,
2013-02-22 02:15:00,22.7,18.0,30.21,ESE,118,0.0,3.0,82,0.00,,,0.00,VWS V14.01,2013-02-22 07:15:00,
2013-02-22 02:16:00,22.7,18.0,30.20,ESE,113,0.0,3.0,82,0.00,,,0.00,VWS V14.01,2013-02-22 07:16:00,
2013-02-22 02:17:00,22.7,18.0,30.20,ESE,113,0.0,3.0,82,0.00,,,0.00,VWS V14.01,2013-02-22 07:17:00,
2013-02-22 02:18:00,22.7,18.0,30.20,ESE,113,0.0,3.0,82,0.00,,,0.00,VWS V14.01,2013-02-22 07:18:00,
2013-02-22 02:19:00,22.7,18.0,30.20,ESE,113,0.0,3.0,82,0.00,,,0.00,VWS V14.01,2013-02-22 07:19:00,
2013-02-22 02:20:00,22.7,18.0,30.20,ESE,113,0.0,3.0,82,0.00,,,0.00,VWS V14.01,2013-02-22 07:20:00,
2013-02-22 02:21:00,22.7,18.0,30.20,ESE,113,0.0,3.0,82,0.00,,,0.00,VWS V14.01,2013-02-22 07:21:00,
2013-02-22 02:22:00,22.7,18.0,30.20,ESE,111,2.0,4.0,82,0.00,,,0.00,VWS V14.01,2013-02-22 07:22:00,
2013-02-22 02:23:00,22.7,18.0,30.19,East,98,0.0,4.0,82,0.00,,,0.00,VWS V14.01,2013-02-22 07:23:00,
2013-02-22 02:24:00,22.7,18.0,30.19,East,98,0.0,4.0,82,0.00,,,0.00,VWS V14.01,2013-02-22 07:24:00,
2013-02-22 02:25:00,22.7,18.0,30.19,East,98,1.0,4.0,82,0.00,,,0.00,VWS V14.01,2013-02-22 07:25:00,
2013-02-22 02:26:00,22.6,17.9,30.19,East,98,0.0,4.0,82,0.00,,,0.00,VWS V14.01,2013-02-22 07:26:00,
2013-02-22 02:27:00,22.6,17.9,30.19,ESE,111,1.0,4.0,82,0.00,,,0.00,VWS V14.01,2013-02-22 07:27:00,
2013-02-22 02:28:00,22.6,17.9,30.19,ESE,111,0.0,4.0,82,0.00,,,0.00,VWS V14.01,2013-02-22 07:28:00,
2013-02-22 02:29:00,22.6,17.9,30.19,ESE,110,0.0,4.0,82,0.00,,,0.00,VWS V14.01,2013-02-22 07:29:00,
2013-02-22 02:30:00,22.6,17.7,30.19,ESE,111,0.0,4.0,81,0.00,,,0.00,VWS V14.01,2013-02-22 07:30:00,
2013-02-22 02:31:00,22.7,17.8,30.19,SE,128,2.0,2.0,81,0.00,,,0.00,VWS V14.01,2013-02-22 07:31:00,
2013-02-22 02:32:00,22.7,17.8,30.19,West,278,2.0,2.0,81,0.00,,,0.00,VWS V14.01,2013-02-22 07:32:00,
2013-02-22 02:33:00,22.6,17.9,30.19,West,280,0.0,2.0,82,0.00,,,0.00,VWS V14.01,2013-02-22 07:33:00,
2013-02-22 02:34:00,22.7,17.8,30.18,West,281,0.0,2.0,81,0.00,,,0.00,VWS V14.01,2013-02-22 07:34:00,
2013-02-22 02:35:00,22.7,17.8,30.18,West,281,1.0,2.0,81,0.00,,,0.00,VWS V14.01,2013-02-22 07:35:00,
2013-02-22 02:36:00,22.7,17.8,30.18,West,281,0.0,2.0,81,0.00,,,0.00,VWS V14.01,2013-02-22 07:36:00,
2013-02-22 02:37:00,22.6,17.7,30.18,West,281,0.0,2.0,81,0.00,,,0.00,VWS V14.01,2013-02-22 07:37:00,
2013-02-22 02:38:00,22.7,17.8,30.18,West,281,0.0,2.0,81,0.00,,,0.00,VWS V14.01,2013-02-22 07:38:00,
2013-02-22 02:39:00,22.7,18.0,30.18,West,274,0.0,2.0,82,0.00,,,0.00,VWS V14.01,2013-02-22 07:39:00,
2013-02-22 02:40:00,22.6,17.9,30.18,West,274,0.0,2.0,82,0.00,,,0.00,VWS V14.01,2013-02-22 07:40:00,
2013-02-22 02:41:00,22.7,18.0,30.18,West,274,0.0,2.0,82,0.00,,,0.00,VWS V14.01,2013-02-22 07:41:00,
2013-02-22 02:42:00,22.6,17.9,30.17,West,267,1.0,2.0,82,0.00,,,0.00,VWS V14.01,2013-02-22 07:42:00,
2013-02-22 02:43:00,22.6,17.9,30.17,SSW,213,1.0,2.0,82,0.00,,,0.00,VWS V14.01,2013-02-22 07:43:00,
2013-02-22 02:44:00,22.6,17.7,30.17,ESE,113,2.0,4.0,81,0.00,,,0.00,VWS V14.01,2013-02-22 07:44:00,
2013-02-22 02:45:00,22.6,17.9,30.17,ESE,113,0.0,4.0,82,0.00,,,0.00,VWS V14.01,2013-02-22 07:45:00,
2013-02-22 02:46:00,22.6,17.9,30.17,ESE,113,0.0,4.0,82,0.00,,,0.00,VWS V14.01,2013-02-22 07:46:00,
2013-02-22 02:47:00,22.6,17.9,30.17,ESE,111,0.0,4.0,82,0.00,,,0.00,VWS V14.01,2013-02-22 07:47:00,
2013-02-22 02:48:00,22.6,17.9,30.17,ESE,111,0.0,4.0,82,0.00,,,0.00,VWS V14.01,2013-02-22 07:48:00,
2013-02-22 02:49:00,22.6,17.9,30.16,ESE,111,0.0,4.0,82,0.00,,,0.00,VWS V14.01,2013-02-22 07:49:00,
2013-02-22 02:50:00,22.6,17.9,30.16,ESE,107,2.0,4.0,82,0.00,,,0.00,VWS V14.01,2013-02-22 07:50:00,
2013-02-22 02:51:00,22.6,17.9,30.16,ENE,69,1.0,4.0,82,0.00,,,0.00,VWS V14.01,2013-02-22 07:51:00,
2013-02-22 02:52:00,22.6,17.9,30.16,NE,44,0.0,4.0,82,0.00,,,0.00,VWS V14.01,2013-02-22 07:52:00,
2013-02-22 02:53:00,22.6,17.9,30.16,NE,53,1.0,4.0,82,0.00,,,0.00,VWS V14.01,2013-02-22 07:53:00,
2013-02-22 02:54:00,22.6,17.9,30.16,NE,53,0.0,4.0,82,0.00,,,0.00,VWS V14.01,2013-02-22 07:54:00,
2013-02-22 02:55:00,22.6,17.9,30.16,East,92,0.0,4.0,82,0.00,,,0.00,VWS V14.01,2013-02-22 07:55:00,
2013-02-22 02:56:00,22.6,17.9,30.16,East,92,0.0,4.0,82,0.00,,,0.00,VWS V14.01,2013-02-22 07:56:00,
2013-02-22 02:57:00,22.6,17.9,30.15,East,91,0.0,4.0,82,0.00,,,0.00,VWS V14.01,2013-02-22 07:57:00,
2013-02-22 02:58:00,22.6,17.9,30.15,NE,48,1.0,4.0,82,0.00,,,0.00,VWS V14.01,2013-02-22 07:58:00,
2013-02-22 02:59:00,22.6,17.9,30.15,NE,52,0.0,4.0,82,0.00,,,0.00,VWS V14.01,2013-02-22 07:59:00,
2013-02-22 03:00:00,22.6,17.7,30.15,NE,56,3.0,4.0,81,0.00,,,0.00,VWS V14.01,2013-02-22 08:00:00,
2013-02-22 03:01:00,22.6,17.9,30.14,East,79,3.0,3.0,82,0.00,,,0.00,VWS V14.01,2013-02-22 08:01:00,
2013-02-22 03:02:00,22.6,17.9,30.14,ENE,59,0.0,4.0,82,0.00,,,0.00,VWS V14.01,2013-02-22 08:02:00,
2013-02-22 03:03:00,22.6,17.9,30.14,SSW,192,0.0,4.0,82,0.00,,,0.00,VWS V14.01,2013-02-22 08:03:00,
2013-02-22 03:04:00,22.6,17.9,30.14,SE,134,1.0,4.0,82,0.00,,,0.00,VWS V14.01,2013-02-22 08:04:00,
2013-02-22 03:05:00,22.6,17.9,30.14,ESE,109,0.0,4.0,82,0.00,,,0.00,VWS V14.01,2013-02-22 08:05:00,
2013-02-22 03:06:00,22.6,17.9,30.14,ESE,109,0.0,4.0,82,0.00,,,0.00,VWS V14.01,2013-02-22 08:06:00,
2013-02-22 03:07:00,22.6,17.9,30.14,NE,42,0.0,4.0,82,0.00,,,0.00,VWS V14.01,2013-02-22 08:07:00,
2013-02-22 03:08:00,22.6,17.9,30.14,East,93,2.0,4.0,82,0.00,,,0.00,VWS V14.01,2013-02-22 08:08:00,
2013-02-22 03:09:00,22.6,17.9,30.14,NE,42,0.0,4.0,82,0.00,,,0.00,VWS V14.01,2013-02-22 08:09:00,
2013-02-22 03:10:00,22.6,17.9,30.14,ENE,59,2.0,4.0,82,0.00,,,0.00,VWS V14.01,2013-02-22 08:10:00,
2013-02-22 03:11:00,22.6,17.9,30.14,ESE,103,1.0,4.0,82,0.00,,,0.00,VWS V14.01,2013-02-22 08:11:00,
2013-02-22 03:12:00,22.6,17.7,30.14,ENE,63,1.0,4.0,81,0.00,,,0.00,VWS V14.01,2013-02-22 08:12:00,
2013-02-22 03:13:00,22.6,17.7,30.14,ENE,63,0.0,4.0,81,0.00,,,0.00,VWS V14.01,2013-02-22 08:13:00,
2013-02-22 03:14:00,22.6,17.7,30.13,ENE,63,0.0,4.0,81,0.00,,,0.00,VWS V14.01,2013-02-22 08:14:00,
2013-02-22 03:15:00,22.6,17.7,30.13,ENE,65,0.0,4.0,81,0.00,,,0.00,VWS V14.01,2013-02-22 08:15:00,
2013-02-22 03:16:00,22.6,17.7,30.13,ENE,65,0.0,4.0,81,0.00,,,0.00,VWS V14.01,2013-02-22 08:16:00,
2013-02-22 03:17:00,22.6,17.7,30.13,ENE,64,1.0,4.0,81,0.00,,,0.00,VWS V14.01,2013-02-22 08:17:00,
2013-02-22 03:18:00,22.6,17.7,30.13,ENE,64,2.0,4.0,81,0.00,,,0.00,VWS V14.01,2013-02-22 08:18:00,
2013-02-22 03:19:00,22.6,17.7,30.13,SSW,205,6.0,6.0,81,0.00,,,0.00,VWS V14.01,2013-02-22 08:19:00,
2013-02-22 03:20:00,22.6,17.7,30.13,SSW,194,0.0,6.0,81,0.00,,,0.00,VWS V14.01,2013-02-22 08:20:00,
2013-02-22 03:21:00,22.6,17.7,30.13,SSW,194,0.0,6.0,81,0.00,,,0.00,VWS V14.01,2013-02-22 08:21:00,
2013-02-22 03:22:00,22.6,17.7,30.13,SSW,194,0.0,6.0,81,0.00,,,0.00,VWS V14.01,2013-02-22 08:22:00,
2013-02-22 03:23:00,22.6,17.7,30.13,SSW,194,1.0,6.0,81,0.00,,,0.00,VWS V14.01,2013-02-22 08:23:00,
2013-02-22 03:24:00,22.6,17.7,30.13,SSW,194,0.0,6.0,81,0.00,,,0.00,VWS V14.01,2013-02-22 08:24:00,
2013-02-22 03:25:00,22.6,17.7,30.12,SSW,194,0.0,6.0,81,0.00,,,0.00,VWS V14.01,2013-02-22 08:25:00,
2013-02-22 03:26:00,22.7,17.8,30.12,SSW,194,0.0,6.0,81,0.00,,,0.00,VWS V14.01,2013-02-22 08:26:00,
2013-02-22 03:27:00,22.7,17.8,30.12,SE,136,0.0,6.0,81,0.00,,,0.00,VWS V14.01,2013-02-22 08:27:00,
2013-02-22 03:28:00,22.7,17.8,30.12,SE,132,1.0,6.0,81,0.00,,,0.00,VWS V14.01,2013-02-22 08:28:00,
2013-02-22 03:29:00,22.7,17.8,30.12,SE,131,1.0,6.0,81,0.00,,,0.00,VWS V14.01,2013-02-22 08:29:00,
2013-02-22 03:30:00,22.7,17.8,30.12,SE,129,1.0,6.0,81,0.00,,,0.00,VWS V14.01,2013-02-22 08:30:00,
2013-02-22 03:31:00,22.7,17.8,30.12,SE,129,0.0,1.0,81,0.00,,,0.00,VWS V14.01,2013-02-22 08:31:00,
2013-02-22 03:32:00,22.7,17.8,30.12,ESE,109,1.0,4.0,81,0.00,,,0.00,VWS V14.01,2013-02-22 08:32:00,
2013-02-22 03:33:00,22.7,17.8,30.12,ESE,107,3.0,4.0,81,0.00,,,0.00,VWS V14.01,2013-02-22 08:33:00,
2013-02-22 03:34:00,22.7,17.8,30.12,ESE,107,0.0,4.0,81,0.00,,,0.00,VWS V14.01,2013-02-22 08:34:00,
2013-02-22 03:35:00,22.7,17.8,30.12,ESE,107,0.0,4.0,81,0.00,,,0.00,VWS V14.01,2013-02-22 08:35:00,
2013-02-22 03:36:00,22.8,17.9,30.11,ESE,107,1.0,4.0,81,0.00,,,0.00,VWS V14.01,2013-02-22 08:36:00,
2013-02-22 03:37:00,22.7,17.8,30.12,ESE,107,0.0,4.0,81,0.00,,,0.00,VWS V14.01,2013-02-22 08:37:00,
2013-02-22 03:38:00,22.8,17.9,30.11,ESE,107,0.0,4.0,81,0.00,,,0.00,VWS V14.01,2013-02-22 08:38:00,
2013-02-22 03:39:00,22.8,17.9,30.11,ESE,107,0.0,4.0,81,0.00,,,0.00,VWS V14.01,2013-02-22 08:39:00,
2013-02-22 03:40:00,22.8,17.9,30.11,NE,52,0.0,4.0,81,0.00,,,0.00,VWS V14.01,2013-02-22 08:40:00,
2013-02-22 03:41:00,22.8,17.9,30.11,ENE,61,1.0,4.0,81,0.00,,,0.00,VWS V14.01,2013-02-22 08:41:00,
2013-02-22 03:42:00,22.7,17.8,30.11,ENE,62,0.0,4.0,81,0.00,,,0.00,VWS V14.01,2013-02-22 08:42:00,
2013-02-22 03:43:00,22.7,17.8,30.11,ENE,62,0.0,4.0,81,0.00,,,0.00,VWS V14.01,2013-02-22 08:43:00,
2013-02-22 03:44:00,22.8,17.9,30.11,ENE,61,0.0,4.0,81,0.00,,,0.00,VWS V14.01,2013-02-22 08:44:00,
2013-02-22 03:45:00,22.8,17.9,30.11,ENE,62,0.0,4.0,81,0.00,,,0.00,VWS V14.01,2013-02-22 08:45:00,
2013-02-22 03:46:00,22.8,17.9,30.11,ENE,69,0.0,4.0,81,0.00,,,0.00,VWS V14.01,2013-02-22 08:46:00,
2013-02-22 03:47:00,22.8,17.9,30.11,ENE,78,2.0,4.0,81,0.00,,,0.00,VWS V14.01,2013-02-22 08:47:00,
2013-02-22 03:48:00,22.8,17.9,30.10,ENE,74,0.0,4.0,81,0.00,,,0.00,VWS V14.01,2013-02-22 08:48:00,
2013-02-22 03:49:00,22.7,17.8,30.10,ENE,64,0.0,4.0,81,0.00,,,0.00,VWS V14.01,2013-02-22 08:49:00,
2013-02-22 03:50:00,22.7,17.8,30.10,ENE,65,0.0,4.0,81,0.00,,,0.00,VWS V14.01,2013-02-22 08:50:00,
2013-02-22 03:51:00,22.7,17.8,30.10,ENE,71,2.0,4.0,81,0.00,,,0.00,VWS V14.01,2013-02-22 08:51:00,
2013-02-22 03:52:00,22.7,17.8,30.10,East,96,3.0,5.0,81,0.00,,,0.00,VWS V14.01,2013-02-22 08:52:00,
2013-02-22 03:53:00,22.7,17.8,30.10,East,95,0.0,5.0,81,0.00,,,0.00,VWS V14.01,2013-02-22 08:53:00,
2013-02-22 03:54:00,22.7,17.8,30.10,East,95,0.0,5.0,81,0.00,,,0.00,VWS V14.01,2013-02-22 08:54:00,
2013-02-22 03:55:00,22.7,17.8,30.10,East,95,0.0,5.0,81,0.00,,,0.00,VWS V14.01,2013-02-22 08:55:00,
2013-02-22 03:56:00,22.7,17.8,30.10,East,95,0.0,5.0,81,0.00,,,0.00,VWS V14.01,2013-02-22 08:56:00,
2013-02-22 03:57:00,22.7,17.8,30.10,East,95,2.0,5.0,81,0.00,,,0.00,VWS V14.01,2013-02-22 08:57:00,
2013-02-22 03:58:00,22.7,17.8,30.10,East,95,0.0,5.0,81,0.00,,,0.00,VWS V14.01,2013-02-22 08:58:00,
2013-02-22 03:59:00,22.7,17.8,30.10,East,95,0.0,5.0,81,0.00,,,0.00,VWS V14.01,2013-02-22 08:59:00,
2013-02-22 04:00:00,22.7,17.8,30.10,East,95,0.0,5.0,81,0.00,,,0.00,VWS V14.01,2013-02-22 09:00:00,
2013-02-22 04:01:00,22.7,17.8,30.10,East,95,0.0,0.0,81,0.00,,,0.00,VWS V14.01,2013-02-22 09:01:00,
2013-02-22 04:02:00,22.7,17.8,30.11,East,95,0.0,1.0,81,0.00,,,0.00,VWS V14.01,2013-02-22 09:02:00,
2013-02-22 04:03:00,22.7,17.8,30.11,East,95,0.0,1.0,81,0.00,,,0.00,VWS V14.01,2013-02-22 09:03:00,
2013-02-22 04:04:00,22.8,17.9,30.10,East,96,0.0,1.0,81,0.00,,,0.00,VWS V14.01,2013-02-22 09:04:00,
2013-02-22 04:05:00,22.8,17.9,30.11,East,96,0.0,1.0,81,0.00,,,0.00,VWS V14.01,2013-02-22 09:05:00,
2013-02-22 04:06:00,22.8,18.1,30.11,ESE,121,0.0,3.0,82,0.00,,,0.00,VWS V14.01,2013-02-22 09:06:00,
2013-02-22 04:07:00,22.8,17.9,30.11,ESE,121,0.0,3.0,81,0.00,,,0.00,VWS V14.01,2013-02-22 09:07:00,
2013-02-22 04:08:00,22.8,17.9,30.11,SE,132,3.0,3.0,81,0.00,,,0.00,VWS V14.01,2013-02-22 09:08:00,
2013-02-22 04:09:00,22.8,17.9,30.11,SE,132,1.0,4.0,81,0.00,,,0.00,VWS V14.01,2013-02-22 09:09:00,
2013-02-22 04:10:00,22.8,17.9,30.10,SE,132,0.0,4.0,81,0.00,,,0.00,VWS V14.01,2013-02-22 09:10:00,
2013-02-22 04:11:00,22.8,17.9,30.10,SE,140,1.0,4.0,81,0.00,,,0.00,VWS V14.01,2013-02-22 09:11:00,
2013-02-22 04:12:00,22.8,17.9,30.10,SE,138,0.0,4.0,81,0.00,,,0.00,VWS V14.01,2013-02-22 09:12:00,
2013-02-22 04:13:00,22.8,17.9,30.10,SE,138,0.0,4.0,81,0.00,,,0.00,VWS V14.01,2013-02-22 09:13:00,
2013-02-22 04:14:00,22.8,17.9,30.10,SE,137,0.0,4.0,81,0.00,,,0.00,VWS V14.01,2013-02-22 09:14:00,
2013-02-22 04:15:00,22.8,17.9,30.10,SE,136,0.0,4.0,81,0.00,,,0.00,VWS V14.01,2013-02-22 09:15:00,
2013-02-22 04:16:00,22.8,17.9,30.10,SE,136,0.0,4.0,81,0.00,,,0.00,VWS V14.01,2013-02-22 09:16:00,
2013-02-22 04:17:00,22.8,17.9,30.10,SE,136,1.0,4.0,81,0.00,,,0.00,VWS V14.01,2013-02-22 09:17:00,
2013-02-22 04:18:00,22.8,17.9,30.10,SE,136,0.0,4.0,81,0.00,,,0.00,VWS V14.01,2013-02-22 09:18:00,
2013-02-22 04:19:00,22.8,17.9,30.10,SE,136,0.0,4.0,81,0.00,,,0.00,VWS V14.01,2013-02-22 09:19:00,
2013-02-22 04:20:00,22.9,18.0,30.10,SE,136,0.0,4.0,81,0.00,,,0.00,VWS V14.01,2013-02-22 09:20:00,
2013-02-22 04:21:00,22.9,18.0,30.10,SE,136,0.0,4.0,81,0.00,,,0.00,VWS V14.01,2013-02-22 09:21:00,
2013-02-22 04:22:00,22.9,18.0,30.10,SE,136,0.0,4.0,81,0.00,,,0.00,VWS V14.01,2013-02-22 09:22:00,
2013-02-22 04:23:00,22.9,18.0,30.10,SE,136,0.0,4.0,81,0.00,,,0.00,VWS V14.01,2013-02-22 09:23:00,
2013-02-22 04:24:00,22.9,18.0,30.10,SE,136,0.0,4.0,81,0.00,,,0.00,VWS V14.01,2013-02-22 09:24:00,
2013-02-22 04:25:00,22.9,18.0,30.09,SE,136,0.0,4.0,81,0.00,,,0.00,VWS V14.01,2013-02-22 09:25:00,
2013-02-22 04:26:00,22.9,18.0,30.09,ESE,122,0.0,4.0,81,0.00,,,0.00,VWS V14.01,2013-02-22 09:26:00,
2013-02-22 04:27:00,22.9,18.0,30.09,ESE,122,2.0,4.0,81,0.00,,,0.00,VWS V14.01,2013-02-22 09:27:00,
2013-02-22 04:28:00,22.9,18.0,30.09,ESE,122,0.0,4.0,81,0.00,,,0.00,VWS V14.01,2013-02-22 09:28:00,
2013-02-22 04:29:00,22.9,18.0,30.09,ESE,122,0.0,4.0,81,0.00,,,0.00,VWS V14.01,2013-02-22 09:29:00,
2013-02-22 04:30:00,22.9,18.0,30.09,ESE,122,0.0,4.0,81,0.00,,,0.00,VWS V14.01,2013-02-22 09:30:00,
2013-02-22 04:31:00,22.9,18.0,30.09,ESE,122,0.0,0.0,81,0.00,,,0.00,VWS V14.01,2013-02-22 09:31:00,
2013-02-22 04:32:00,22.9,18.0,30.09,ESE,122,0.0,0.0,81,0.00,,,0.00,VWS V14.01,2013-02-22 09:32:00,
2013-02-22 04:33:00,23.0,18.0,30.09,ESE,121,1.0,1.0,81,0.00,,,0.00,VWS V14.01,2013-02-22 09:33:00,
2013-02-22 04:34:00,23.0,18.0,30.09,ESE,120,0.0,2.0,81,0.00,,,0.00,VWS V14.01,2013-02-22 09:34:00,
2013-02-22 04:35:00,23.0,18.0,30.09,ESE,123,0.0,2.0,81,0.00,,,0.00,VWS V14.01,2013-02-22 09:35:00,
2013-02-22 04:36:00,23.0,18.0,30.09,ESE,123,0.0,2.0,81,0.00,,,0.00,VWS V14.01,2013-02-22 09:36:00,
2013-02-22 04:37:00,22.9,18.0,30.09,ESE,123,1.0,2.0,81,0.00,,,0.00,VWS V14.01,2013-02-22 09:37:00,
2013-02-22 04:38:00,22.9,18.0,30.09,ESE,123,0.0,2.0,81,0.00,,,0.00,VWS V14.01,2013-02-22 09:38:00,
2013-02-22 04:39:00,22.9,18.0,30.09,ESE,122,0.0,2.0,81,0.00,,,0.00,VWS V14.01,2013-02-22 09:39:00,
2013-02-22 04:40:00,23.0,18.0,30.09,ESE,122,0.0,2.0,81,0.00,,,0.00,VWS V14.01,2013-02-22 09:40:00,
2013-02-22 04:41:00,23.0,18.0,30.09,ESE,122,0.0,2.0,81,0.00,,,0.00,VWS V14.01,2013-02-22 09:41:00,
2013-02-22 04:42:00,23.0,18.0,30.09,ESE,122,0.0,2.0,81,0.00,,,0.00,VWS V14.01,2013-02-22 09:42:00,
2013-02-22 04:43:00,23.0,18.0,30.09,ESE,122,0.0,2.0,81,0.00,,,0.00,VWS V14.01,2013-02-22 09:43:00,
2013-02-22 04:44:00,23.0,18.0,30.09,NE,49,0.0,3.0,81,0.00,,,0.00,VWS V14.01,2013-02-22 09:44:00,
2013-02-22 04:45:00,23.0,18.0,30.09,NE,55,0.0,3.0,81,0.00,,,0.00,VWS V14.01,2013-02-22 09:45:00,
2013-02-22 04:46:00,23.0,18.3,30.09,NE,55,0.0,3.0,82,0.00,,,0.00,VWS V14.01,2013-02-22 09:46:00,
2013-02-22 04:47:00,23.0,18.3,30.09,NE,55,0.0,3.0,82,0.00,,,0.00,VWS V14.01,2013-02-22 09:47:00,
2013-02-22 04:48:00,23.0,18.3,30.09,NE,55,1.0,3.0,82,0.00,,,0.00,VWS V14.01,2013-02-22 09:48:00,
2013-02-22 04:49:00,23.0,18.3,30.09,NE,55,0.0,3.0,82,0.00,,,0.00,VWS V14.01,2013-02-22 09:49:00,
2013-02-22 04:50:00,23.0,18.3,30.09,NE,55,0.0,3.0,82,0.00,,,0.00,VWS V14.01,2013-02-22 09:50:00,
2013-02-22 04:51:00,23.0,18.3,30.09,NE,55,0.0,3.0,82,0.00,,,0.00,VWS V14.01,2013-02-22 09:51:00,
2013-02-22 04:52:00,23.0,18.3,30.09,NE,55,0.0,3.0,82,0.00,,,0.00,VWS V14.01,2013-02-22 09:52:00,
2013-02-22 04:53:00,23.0,18.3,30.09,NE,55,0.0,3.0,82,0.00,,,0.00,VWS V14.01,2013-02-22 09:53:00,
2013-02-22 04:54:00,23.0,18.3,30.09,NE,55,0.0,3.0,82,0.00,,,0.00,VWS V14.01,2013-02-22 09:54:00,
2013-02-22 04:55:00,23.0,18.3,30.09,NE,55,0.0,3.0,82,0.00,,,0.00,VWS V14.01,2013-02-22 09:55:00,
2013-02-22 04:56:00,23.0,18.3,30.08,NE,55,0.0,3.0,82,0.00,,,0.00,VWS V14.01,2013-02-22 09:56:00,
2013-02-22 04:57:00,23.0,18.3,30.08,NE,55,0.0,3.0,82,0.00,,,0.00,VWS V14.01,2013-02-22 09:57:00,
2013-02-22 04:58:00,23.1,18.4,30.09,NE,55,0.0,3.0,82,0.00,,,0.00,VWS V14.01,2013-02-22 09:58:00,
2013-02-22 04:59:00,23.1,18.4,30.09,SSW,206,1.0,3.0,82,0.00,,,0.00,VWS V14.01,2013-02-22 09:59:00,
2013-02-22 05:00:00,23.1,18.4,30.09,SSW,202,0.0,3.0,82,0.00,,,0.00,VWS V14.01,2013-02-22 10:00:00,
2013-02-22 05:01:00,23.1,18.4,30.09,SSW,202,0.0,0.0,82,0.00,,,0.00,VWS V14.01,2013-02-22 10:01:00,
2013-02-22 05:02:00,23.1,18.4,30.09,SSW,202,0.0,0.0,82,0.00,,,0.00,VWS V14.01,2013-02-22 10:02:00,
2013-02-22 05:03:00,23.1,18.4,30.09,SSW,202,0.0,0.0,82,0.00,,,0.00,VWS V14.01,2013-02-22 10:03:00,
2013-02-22 05:04:00,23.1,18.4,30.09,SSW,202,0.0,0.0,82,0.00,,,0.00,VWS V14.01,2013-02-22 10:04:00,
2013-02-22 05:05:00,23.1,18.4,30.09,SSW,202,0.0,0.0,82,0.00,,,0.00,VWS V14.01,2013-02-22 10:05:00,
2013-02-22 05:06:00,23.2,18.5,30.09,SSW,202,0.0,0.0,82,0.00,,,0.00,VWS V14.01,2013-02-22 10:06:00,
2013-02-22 05:07:00,23.2,18.5,30.09,SSW,202,0.0,0.0,82,0.00,,,0.00,VWS V14.01,2013-02-22 10:07:00,
2013-02-22 05:08:00,23.2,18.5,30.10,SSW,202,0.0,1.0,82,0.00,,,0.00,VWS V14.01,2013-02-22 10:08:00,
2013-02-22 05:09:00,23.2,18.5,30.10,SSW,202,0.0,1.0,82,0.00,,,0.00,VWS V14.01,2013-02-22 10:09:00,
2013-02-22 05:10:00,23.3,18.6,30.10,SSW,202,0.0,1.0,82,0.00,,,0.00,VWS V14.01,2013-02-22 10:10:00,
2013-02-22 05:11:00,23.3,18.6,30.10,SSW,202,0.0,1.0,82,0.00,,,0.00,VWS V14.01,2013-02-22 10:11:00,
2013-02-22 05:12:00,23.3,18.6,30.10,SSW,202,0.0,1.0,82,0.00,,,0.00,VWS V14.01,2013-02-22 10:12:00,
2013-02-22 05:13:00,23.3,18.6,30.10,SSW,202,0.0,2.0,82,0.00,,,0.00,VWS V14.01,2013-02-22 10:13:00,
2013-02-22 05:14:00,23.3,18.6,30.09,SSW,202,0.0,2.0,82,0.00,,,0.00,VWS V14.01,2013-02-22 10:14:00,
2013-02-22 05:15:00,23.3,18.6,30.09,SSW,201,1.0,2.0,82,0.00,,,0.00,VWS V14.01,2013-02-22 10:15:00,
2013-02-22 05:16:00,23.3,18.6,30.09,SSW,201,0.0,2.0,82,0.00,,,0.00,VWS V14.01,2013-02-22 10:16:00,
2013-02-22 05:17:00,23.3,18.6,30.09,SE,141,1.0,3.0,82,0.00,,,0.00,VWS V14.01,2013-02-22 10:17:00,
2013-02-22 05:18:00,23.3,18.6,30.09,SE,138,0.0,3.0,82,0.00,,,0.00,VWS V14.01,2013-02-22 10:18:00,
2013-02-22 05:19:00,23.3,18.3,30.09,SE,138,0.0,3.0,81,0.00,,,0.00,VWS V14.01,2013-02-22 10:19:00,
2013-02-22 05:20:00,23.3,18.3,30.09,SE,138,1.0,3.0,81,0.00,,,0.00,VWS V14.01,2013-02-22 10:20:00,
2013-02-22 05:21:00,23.3,18.3,30.09,SE,138,0.0,3.0,81,0.00,,,0.00,VWS V14.01,2013-02-22 10:21:00,
2013-02-22 05:22:00,23.4,18.4,30.08,SE,138,0.0,3.0,81,0.00,,,0.00,VWS V14.01,2013-02-22 10:22:00,
2013-02-22 05:23:00,23.4,18.4,30.09,SE,138,0.0,3.0,81,0.00,,,0.00,VWS V14.01,2013-02-22 10:23:00,
2013-02-22 05:24:00,23.4,18.4,30.09,SE,137,0.0,3.0,81,0.00,,,0.00,VWS V14.01,2013-02-22 10:24:00,
2013-02-22 05:25:00,23.4,18.4,30.09,SE,138,0.0,3.0,81,0.00,,,0.00,VWS V14.01,2013-02-22 10:25:00,
2013-02-22 05:26:00,23.4,18.4,30.09,SE,137,1.0,3.0,81,0.00,,,0.00,VWS V14.01,2013-02-22 10:26:00,
2013-02-22 05:27:00,23.5,18.5,30.08,NE,40,1.0,3.0,81,0.00,,,0.00,VWS V14.01,2013-02-22 10:27:00,
2013-02-22 05:28:00,23.5,18.5,30.08,NE,42,0.0,3.0,81,0.00,,,0.00,VWS V14.01,2013-02-22 10:28:00,
2013-02-22 05:29:00,23.5,18.5,30.08,NE,42,0.0,3.0,81,0.00,,,0.00,VWS V14.01,2013-02-22 10:29:00,
2013-02-22 05:30:00,23.5,18.5,30.07,NE,42,0.0,3.0,81,0.00,,,0.00,VWS V14.01,2013-02-22 10:30:00,
2013-02-22 05:31:00,23.5,18.5,30.07,NE,42,0.0,1.0,81,0.00,,,0.00,VWS V14.01,2013-02-22 10:31:00,
2013-02-22 05:32:00,23.6,18.6,30.07,NE,42,0.0,1.0,81,0.00,,,0.00,VWS V14.01,2013-02-22 10:32:00,
2013-02-22 05:33:00,23.6,18.6,30.07,NE,42,0.0,1.0,81,0.00,,,0.00,VWS V14.01,2013-02-22 10:33:00,
2013-02-22 05:34:00,23.6,18.6,30.07,NE,42,0.0,1.0,81,0.00,,,0.00,VWS V14.01,2013-02-22 10:34:00,
2013-02-22 05:35:00,23.6,18.6,30.07,NE,44,1.0,1.0,81,0.00,,,0.00,VWS V14.01,2013-02-22 10:35:00,
2013-02-22 05:36:00,23.6,18.6,30.07,NE,44,0.0,1.0,81,0.00,,,0.00,VWS V14.01,2013-02-22 10:36:00,
2013-02-22 05:37:00,23.7,18.7,30.07,NE,44,0.0,1.0,81,0.00,,,0.00,VWS V14.01,2013-02-22 10:37:00,
2013-02-22 05:38:00,23.7,18.7,30.07,NE,44,0.0,1.0,81,0.00,,,0.00,VWS V14.01,2013-02-22 10:38:00,
2013-02-22 05:39:00,23.7,18.7,30.07,NE,44,0.0,1.0,81,0.00,,,0.00,VWS V14.01,2013-02-22 10:39:00,
2013-02-22 05:40:00,23.7,18.7,30.07,NE,44,0.0,1.0,81,0.00,,,0.00,VWS V14.01,2013-02-22 10:40:00,
2013-02-22 05:41:00,23.7,18.7,30.07,NE,44,0.0,3.0,81,0.00,,,0.00,VWS V14.01,2013-02-22 10:41:00,
2013-02-22 05:42:00,23.8,18.8,30.07,NE,44,0.0,3.0,81,0.00,,,0.00,VWS V14.01,2013-02-22 10:42:00,
2013-02-22 05:43:00,23.8,18.8,30.07,NE,44,0.0,3.0,81,0.00,,,0.00,VWS V14.01,2013-02-22 10:43:00,
2013-02-22 05:44:00,23.8,18.8,30.07,NE,44,1.0,3.0,81,0.00,,,0.00,VWS V14.01,2013-02-22 10:44:00,
2013-02-22 05:45:00,23.8,18.5,30.07,ESE,109,2.0,3.0,80,0.00,,,0.00,VWS V14.01,2013-02-22 10:45:00,
2013-02-22 05:46:00,23.8,18.5,30.07,ESE,109,0.0,3.0,80,0.00,,,0.00,VWS V14.01,2013-02-22 10:46:00,
2013-02-22 05:47:00,23.8,18.5,30.07,ESE,109,1.0,3.0,80,0.00,,,0.00,VWS V14.01,2013-02-22 10:47:00,
2013-02-22 05:48:00,23.9,18.6,30.06,ESE,107,0.0,3.0,80,0.00,,,0.00,VWS V14.01,2013-02-22 10:48:00,
2013-02-22 05:49:00,23.9,18.6,30.07,ENE,62,0.0,3.0,80,0.00,,,0.00,VWS V14.01,2013-02-22 10:49:00,
2013-02-22 05:50:00,23.9,18.6,30.07,ENE,62,0.0,3.0,80,0.00,,,0.00,VWS V14.01,2013-02-22 10:50:00,
2013-02-22 05:51:00,23.9,18.6,30.07,ENE,63,1.0,3.0,80,0.00,,,0.00,VWS V14.01,2013-02-22 10:51:00,
2013-02-22 05:52:00,23.9,18.6,30.06,East,95,0.0,3.0,80,0.00,,,0.00,VWS V14.01,2013-02-22 10:52:00,
2013-02-22 05:53:00,23.9,18.6,30.06,East,96,0.0,3.0,80,0.00,,,0.00,VWS V14.01,2013-02-22 10:53:00,
2013-02-22 05:54:00,23.9,18.6,30.06,East,96,0.0,3.0,80,0.00,,,0.00,VWS V14.01,2013-02-22 10:54:00,
2013-02-22 05:55:00,23.9,18.6,30.06,East,96,0.0,3.0,80,0.00,,,0.00,VWS V14.01,2013-02-22 10:55:00,
2013-02-22 05:56:00,23.9,18.6,30.06,East,96,2.0,3.0,80,0.00,,,0.00,VWS V14.01,2013-02-22 10:56:00,
2013-02-22 05:57:00,23.9,18.6,30.05,East,95,0.0,3.0,80,0.00,,,0.00,VWS V14.01,2013-02-22 10:57:00,
2013-02-22 05:58:00,23.9,18.6,30.05,East,95,1.0,3.0,80,0.00,,,0.00,VWS V14.01,2013-02-22 10:58:00,
2013-02-22 05:59:00,24.0,18.7,30.05,NE,44,1.0,3.0,80,0.00,,,0.00,VWS V14.01,2013-02-22 10:59:00,
2013-02-22 06:00:00,24.0,18.7,30.04,NE,44,1.0,3.0,80,0.00,,,0.00,VWS V14.01,2013-02-22 11:00:00,
2013-02-22 06:01:00,23.9,18.6,30.04,NE,44,1.0,1.0,80,0.00,,,0.00,VWS V14.01,2013-02-22 11:01:00,
2013-02-22 06:02:00,23.9,18.6,30.04,NE,44,0.0,1.0,80,0.00,,,0.00,VWS V14.01,2013-02-22 11:02:00,
2013-02-22 06:03:00,23.9,18.6,30.03,NE,45,0.0,1.0,80,0.00,,,0.00,VWS V14.01,2013-02-22 11:03:00,
2013-02-22 06:04:00,23.9,18.6,30.04,NE,46,0.0,2.0,80,0.00,,,0.00,VWS V14.01,2013-02-22 11:04:00,
2013-02-22 06:05:00,23.9,18.6,30.04,NE,46,0.0,2.0,80,0.00,,,0.00,VWS V14.01,2013-02-22 11:05:00,
2013-02-22 06:06:00,23.9,18.6,30.04,NE,46,0.0,2.0,80,0.00,,,0.00,VWS V14.01,2013-02-22 11:06:00,
2013-02-22 06:07:00,23.9,18.9,30.04,East,92,0.0,3.0,81,0.00,,,0.00,VWS V14.01,2013-02-22 11:07:00,
2013-02-22 06:08:00,23.9,18.9,30.05,East,92,0.0,3.0,81,0.00,,,0.00,VWS V14.01,2013-02-22 11:08:00,
2013-02-22 06:09:00,23.9,18.9,30.05,East,92,0.0,3.0,81,0.00,,,0.00,VWS V14.01,2013-02-22 11:09:00,
2013-02-22 06:10:00,23.9,18.9,30.05,East,80,2.0,3.0,81,0.00,,,0.00,VWS V14.01,2013-02-22 11:10:00,
2013-02-22 06:11:00,23.9,18.9,30.05,ENE,78,0.0,3.0,81,0.00,,,0.00,VWS V14.01,2013-02-22 11:11:00,
2013-02-22 06:12:00,23.8,18.8,30.05,ENE,78,0.0,3.0,81,0.00,,,0.00,VWS V14.01,2013-02-22 11:12:00,
2013-02-22 06:13:00,23.8,18.8,30.05,NNE,24,2.0,4.0,81,0.00,,,0.00,VWS V14.01,2013-02-22 11:13:00,
2013-02-22 06:14:00,23.8,18.8,30.05,NNE,21,0.0,4.0,81,0.00,,,0.00,VWS V14.01,2013-02-22 11:14:00,
2013-02-22 06:15:00,23.8,18.8,30.05,NNE,25,0.0,4.0,81,0.00,,,0.00,VWS V14.01,2013-02-22 11:15:00,
2013-02-22 06:16:00,23.7,18.7,30.05,NNE,26,0.0,4.0,81,0.00,,,0.00,VWS V14.01,2013-02-22 11:16:00,
2013-02-22 06:17:00,23.7,18.7,30.05,NNE,26,0.0,4.0,81,0.00,,,0.00,VWS V14.01,2013-02-22 11:17:00,
2013-02-22 06:18:00,23.6,18.6,30.05,NNE,26,1.0,4.0,81,0.00,,,0.00,VWS V14.01,2013-02-22 11:18:00,
2013-02-22 06:19:00,23.6,18.6,30.05,NE,52,1.0,4.0,81,0.00,,,0.00,VWS V14.01,2013-02-22 11:19:00,
2013-02-22 06:20:00,23.6,18.9,30.05,NE,44,0.0,4.0,82,0.00,,,0.00,VWS V14.01,2013-02-22 11:20:00,
2013-02-22 06:21:00,23.6,18.9,30.05,NE,44,0.0,4.0,82,0.00,,,0.00,VWS V14.01,2013-02-22 11:21:00,
2013-02-22 06:22:00,23.5,18.8,30.05,NE,45,0.0,4.0,82,0.00,,,0.00,VWS V14.01,2013-02-22 11:22:00,
2013-02-22 06:23:00,23.5,18.8,30.05,NE,45,0.0,4.0,82,0.00,,,0.00,VWS V14.01,2013-02-22 11:23:00,
2013-02-22 06:24:00,23.5,18.8,30.05,NE,45,0.0,4.0,82,0.00,,,0.00,VWS V14.01,2013-02-22 11:24:00,
2013-02-22 06:25:00,23.5,18.8,30.04,NE,46,0.0,4.0,82,0.00,,,0.00,VWS V14.01,2013-02-22 11:25:00,
2013-02-22 06:26:00,23.4,18.7,30.05,NE,45,0.0,4.0,82,0.00,,,0.00,VWS V14.01,2013-02-22 11:26:00,
2013-02-22 06:27:00,23.4,19.0,30.04,NE,45,1.0,4.0,83,0.00,,,0.00,VWS V14.01,2013-02-22 11:27:00,
2013-02-22 06:28:00,23.4,19.0,30.04,ENE,61,0.0,4.0,83,0.00,,,0.00,VWS V14.01,2013-02-22 11:28:00,
2013-02-22 06:29:00,23.4,19.0,30.05,ENE,61,0.0,4.0,83,0.00,,,0.00,VWS V14.01,2013-02-22 11:29:00,
2013-02-22 06:30:00,23.3,18.9,30.05,ENE,61,0.0,4.0,83,0.00,,,0.00,VWS V14.01,2013-02-22 11:30:00,
2013-02-22 06:31:00,23.3,18.9,30.05,ENE,61,0.0,1.0,83,0.00,,,0.00,VWS V14.01,2013-02-22 11:31:00,
2013-02-22 06:32:00,23.3,18.9,30.05,ENE,61,0.0,2.0,83,0.00,,,0.00,VWS V14.01,2013-02-22 11:32:00,
2013-02-22 06:33:00,23.3,18.9,30.05,NNE,15,0.0,3.0,83,0.00,,,0.00,VWS V14.01,2013-02-22 11:33:00,
2013-02-22 06:34:00,23.2,18.8,30.05,NNE,15,0.0,3.0,83,0.00,,,0.00,VWS V14.01,2013-02-22 11:34:00,
2013-02-22 06:35:00,23.2,18.8,30.05,NNE,15,0.0,3.0,83,0.00,,,0.00,VWS V14.01,2013-02-22 11:35:00,
2013-02-22 06:36:00,23.2,18.8,30.05,NNE,15,0.0,3.0,83,0.00,,,0.00,VWS V14.01,2013-02-22 11:36:00,
2013-02-22 06:37:00,23.2,18.8,30.04,NNE,15,0.0,3.0,83,0.00,,,0.00,VWS V14.01,2013-02-22 11:37:00,
2013-02-22 06:38:00,23.2,18.8,30.04,NNE,15,0.0,3.0,83,0.00,,,0.00,VWS V14.01,2013-02-22 11:38:00,
2013-02-22 06:39:00,23.2,18.8,30.04,NNE,15,0.0,3.0,83,0.00,,,0.00,VWS V14.01,2013-02-22 11:39:00,
2013-02-22 06:40:00,23.2,18.8,30.04,NNE,15,0.0,3.0,83,0.00,,,0.00,VWS V14.01,2013-02-22 11:40:00,
2013-02-22 06:41:00,23.1,19.0,30.04,NNE,17,0.0,3.0,84,0.00,,,0.00,VWS V14.01,2013-02-22 11:41:00,
2013-02-22 06:42:00,23.1,19.0,30.03,NNE,17,0.0,3.0,84,0.00,,,0.00,VWS V14.01,2013-02-22 11:42:00,
2013-02-22 06:43:00,23.1,19.0,30.04,NNE,17,0.0,3.0,84,0.00,,,0.00,VWS V14.01,2013-02-22 11:43:00,
2013-02-22 06:44:00,23.1,19.0,30.03,NNE,17,0.0,3.0,84,0.00,,,0.00,VWS V14.01,2013-02-22 11:44:00,
2013-02-22 06:45:00,23.1,19.0,30.03,NNE,17,0.0,3.0,84,0.00,,,0.00,VWS V14.01,2013-02-22 11:45:00,
2013-02-22 06:46:00,23.1,19.0,30.03,NNE,17,0.0,3.0,84,0.00,,,0.00,VWS V14.01,2013-02-22 11:46:00,
2013-02-22 06:47:00,23.1,19.0,30.03,NNE,17,0.0,3.0,84,0.00,,,0.00,VWS V14.01,2013-02-22 11:47:00,
2013-02-22 06:48:00,23.1,19.0,30.03,NNE,17,0.0,3.0,84,0.00,,,0.00,VWS V14.01,2013-02-22 11:48:00,
2013-02-22 06:49:00,23.1,19.0,30.03,NNE,17,0.0,3.0,84,0.00,,,0.00,VWS V14.01,2013-02-22 11:49:00,
2013-02-22 06:50:00,23.1,19.0,30.03,NNE,18,0.0,3.0,84,0.00,,,0.00,VWS V14.01,2013-02-22 11:50:00,
2013-02-22 06:51:00,23.0,18.9,30.03,NNE,18,0.0,3.0,84,0.00,,,0.00,VWS V14.01,2013-02-22 11:51:00,
2013-02-22 06:52:00,23.1,19.0,30.03,NNE,18,0.0,3.0,84,0.00,,,0.00,VWS V14.01,2013-02-22 11:52:00,
2013-02-22 06:53:00,23.0,18.9,30.03,NNE,18,0.0,3.0,84,0.00,,,0.00,VWS V14.01,2013-02-22 11:53:00,
2013-02-22 06:54:00,23.0,18.9,30.03,NNE,18,0.0,3.0,84,0.00,,,0.00,VWS V14.01,2013-02-22 11:54:00,
2013-02-22 06:55:00,23.0,19.2,30.03,NNE,18,0.0,3.0,85,0.00,,,0.00,VWS V14.01,2013-02-22 11:55:00,
2013-02-22 06:56:00,23.0,19.2,30.03,NNE,18,1.0,3.0,85,0.00,,,0.00,VWS V14.01,2013-02-22 11:56:00,
2013-02-22 06:57:00,23.0,19.2,30.02,NNE,18,1.0,3.0,85,0.00,,,0.00,VWS V14.01,2013-02-22 11:57:00,
2013-02-22 06:58:00,23.0,19.2,30.02,NNE,18,3.0,3.0,85,0.00,,,0.00,VWS V14.01,2013-02-22 11:58:00,
2013-02-22 06:59:00,23.0,19.2,30.02,NNE,18,1.0,3.0,85,0.00,,,0.00,VWS V14.01,2013-02-22 11:59:00,
2013-02-22 07:00:00,23.0,19.2,30.02,NNE,26,1.0,3.0,85,0.00,,,0.00,VWS V14.01,2013-02-22 12:00:00,
2013-02-22 07:01:00,23.0,19.2,30.01,NNE,26,0.0,1.0,85,0.00,,,0.00,VWS V14.01,2013-02-22 12:01:00,
2013-02-22 07:02:00,23.0,19.2,30.01,NNE,26,0.0,1.0,85,0.00,,,0.00,VWS V14.01,2013-02-22 12:02:00,
2013-02-22 07:03:00,23.0,19.2,30.01,NNE,27,0.0,1.0,85,0.00,,,0.00,VWS V14.01,2013-02-22 12:03:00,
2013-02-22 07:04:00,23.0,19.2,30.01,NNE,26,0.0,1.0,85,0.00,,,0.00,VWS V14.01,2013-02-22 12:04:00,
2013-02-22 07:05:00,23.0,19.2,30.01,NNE,26,0.0,1.0,85,0.00,,,0.00,VWS V14.01,2013-02-22 12:05:00,
2013-02-22 07:06:00,23.0,19.2,30.01,NNE,26,0.0,1.0,85,0.00,,,0.00,VWS V14.01,2013-02-22 12:06:00,
2013-02-22 07:07:00,23.1,19.3,30.01,NNE,27,3.0,3.0,85,0.00,,,0.00,VWS V14.01,2013-02-22 12:07:00,
2013-02-22 07:08:00,23.1,19.3,30.01,NNE,25,0.0,3.0,85,0.00,,,0.00,VWS V14.01,2013-02-22 12:08:00,
2013-02-22 07:09:00,23.1,19.3,30.01,NE,38,0.0,3.0,85,0.00,,,0.00,VWS V14.01,2013-02-22 12:09:00,
2013-02-22 07:10:00,23.1,19.3,30.01,NE,38,0.0,3.0,85,0.00,,,0.00,VWS V14.01,2013-02-22 12:10:00,
2013-02-22 07:11:00,23.1,19.3,30.01,NE,42,1.0,3.0,85,0.00,,,0.00,VWS V14.01,2013-02-22 12:11:00,
2013-02-22 07:12:00,23.1,19.3,30.01,NE,44,0.0,3.0,85,0.00,,,0.00,VWS V14.01,2013-02-22 12:12:00,
2013-02-22 07:13:00,23.1,19.3,30.01,ENE,65,3.0,3.0,85,0.00,,,0.00,VWS V14.01,2013-02-22 12:13:00,
2013-02-22 07:14:00,23.1,19.3,30.01,ENE,64,0.0,3.0,85,0.00,,,0.00,VWS V14.01,2013-02-22 12:14:00,
2013-02-22 07:15:00,23.1,19.3,30.01,ENE,64,0.0,3.0,85,0.00,,,0.00,VWS V14.01,2013-02-22 12:15:00,
2013-02-22 07:16:00,23.1,19.3,30.01,ENE,64,0.0,3.0,85,0.00,,,0.00,VWS V14.01,2013-02-22 12:16:00,
2013-02-22 07:17:00,23.1,19.3,30.01,ENE,64,0.0,3.0,85,0.00,,,0.00,VWS V14.01,2013-02-22 12:17:00,
2013-02-22 07:18:00,23.1,19.3,30.01,ENE,64,0.0,3.0,85,0.00,,,0.00,VWS V14.01,2013-02-22 12:18:00,
2013-02-22 07:19:00,23.1,19.3,30.01,ENE,64,0.0,3.0,85,0.00,,,0.00,VWS V14.01,2013-02-22 12:19:00,
2013-02-22 07:20:00,23.1,19.5,30.00,ENE,64,0.0,3.0,86,0.00,,,0.00,VWS V14.01,2013-02-22 12:20:00,
2013-02-22 07:21:00,23.1,19.5,30.00,ENE,66,0.0,3.0,86,0.00,,,0.00,VWS V14.01,2013-02-22 12:21:00,
2013-02-22 07:22:00,23.1,19.5,30.00,ENE,66,0.0,3.0,86,0.00,,,0.00,VWS V14.01,2013-02-22 12:22:00,
2013-02-22 07:23:00,23.2,19.6,30.00,ENE,66,0.0,3.0,86,0.00,,,0.00,VWS V14.01,2013-02-22 12:23:00,
2013-02-22 07:24:00,23.2,19.6,30.00,ENE,66,0.0,3.0,86,0.00,,,0.00,VWS V14.01,2013-02-22 12:24:00,
2013-02-22 07:25:00,23.2,19.6,30.00,ENE,65,1.0,3.0,86,0.00,,,0.00,VWS V14.01,2013-02-22 12:25:00,
2013-02-22 07:26:00,23.2,19.6,30.00,ENE,57,3.0,3.0,86,0.00,,,0.00,VWS V14.01,2013-02-22 12:26:00,
2013-02-22 07:27:00,23.2,19.6,30.00,ENE,57,0.0,3.0,86,0.00,,,0.00,VWS V14.01,2013-02-22 12:27:00,
2013-02-22 07:28:00,23.2,19.6,30.00,NE,56,0.0,3.0,86,0.00,,,0.00,VWS V14.01,2013-02-22 12:28:00,
2013-02-22 07:29:00,23.2,19.6,30.00,ENE,57,0.0,3.0,86,0.00,,,0.00,VWS V14.01,2013-02-22 12:29:00,
2013-02-22 07:30:00,23.2,19.6,30.00,NE,52,0.0,3.0,86,0.00,,,0.00,VWS V14.01,2013-02-22 12:30:00,
2013-02-22 07:31:00,23.2,19.6,30.00,NE,55,1.0,1.0,86,0.00,,,0.00,VWS V14.01,2013-02-22 12:31:00,
2013-02-22 07:32:00,23.2,19.6,30.01,NE,55,0.0,1.0,86,0.00,,,0.00,VWS V14.01,2013-02-22 12:32:00,
2013-02-22 07:33:00,23.3,19.7,30.01,NE,56,1.0,1.0,86,0.00,,,0.00,VWS V14.01,2013-02-22 12:33:00,
2013-02-22 07:34:00,23.3,19.7,30.01,ENE,65,0.0,2.0,86,0.00,,,0.00,VWS V14.01,2013-02-22 12:34:00,
2013-02-22 07:35:00,23.3,19.7,30.01,ENE,67,1.0,2.0,86,0.00,,,0.00,VWS V14.01,2013-02-22 12:35:00,
2013-02-22 07:36:00,23.3,19.7,30.01,ENE,67,0.0,2.0,86,0.00,,,0.00,VWS V14.01,2013-02-22 12:36:00,
2013-02-22 07:37:00,23.3,19.7,30.01,ENE,75,1.0,2.0,86,0.00,,,0.00,VWS V14.01,2013-02-22 12:37:00,
2013-02-22 07:38:00,23.3,19.7,30.01,ENE,74,0.0,2.0,86,0.00,,,0.00,VWS V14.01,2013-02-22 12:38:00,
2013-02-22 07:39:00,23.3,19.7,30.01,ENE,74,0.0,2.0,86,0.00,,,0.00,VWS V14.01,2013-02-22 12:39:00,
2013-02-22 07:40:00,23.3,19.7,30.01,ENE,75,0.0,2.0,86,0.00,,,0.00,VWS V14.01,2013-02-22 12:40:00,
2013-02-22 07:41:00,23.3,19.7,30.01,ENE,75,0.0,2.0,86,0.00,,,0.00,VWS V14.01,2013-02-22 12:41:00,
2013-02-22 07:42:00,23.3,19.7,30.01,ENE,75,0.0,2.0,86,0.00,,,0.00,VWS V14.01,2013-02-22 12:42:00,
2013-02-22 07:43:00,23.3,19.7,30.01,East,91,3.0,3.0,86,0.00,,,0.00,VWS V14.01,2013-02-22 12:43:00,
2013-02-22 07:44:00,23.3,19.7,30.01,East,96,0.0,4.0,86,0.00,,,0.00,VWS V14.01,2013-02-22 12:44:00,
2013-02-22 07:45:00,23.3,19.7,30.01,East,97,0.0,4.0,86,0.00,,,0.00,VWS V14.01,2013-02-22 12:45:00,
2013-02-22 07:46:00,23.3,19.7,30.01,East,97,0.0,4.0,86,0.00,,,0.00,VWS V14.01,2013-02-22 12:46:00,
2013-02-22 07:47:00,23.3,19.7,30.01,East,97,0.0,4.0,86,0.00,,,0.00,VWS V14.01,2013-02-22 12:47:00,
2013-02-22 07:48:00,23.3,19.7,30.01,East,96,0.0,4.0,86,0.00,,,0.00,VWS V14.01,2013-02-22 12:48:00,
2013-02-22 07:49:00,23.3,19.7,30.01,East,96,0.0,4.0,86,0.00,,,0.00,VWS V14.01,2013-02-22 12:49:00,
2013-02-22 07:50:00,23.4,19.8,30.01,ENE,61,1.0,4.0,86,0.00,,,0.00,VWS V14.01,2013-02-22 12:50:00,
2013-02-22 07:51:00,23.4,19.8,30.01,NNE,21,0.0,4.0,86,0.00,,,0.00,VWS V14.01,2013-02-22 12:51:00,
2013-02-22 07:52:00,23.4,19.8,30.01,NNE,21,0.0,4.0,86,0.00,,,0.00,VWS V14.01,2013-02-22 12:52:00,
2013-02-22 07:53:00,23.4,19.8,30.01,NE,41,0.0,4.0,86,0.00,,,0.00,VWS V14.01,2013-02-22 12:53:00,
2013-02-22 07:54:00,23.4,19.8,30.01,NE,41,0.0,4.0,86,0.00,,,0.00,VWS V14.01,2013-02-22 12:54:00,
2013-02-22 07:55:00,23.4,19.8,30.01,East,100,3.0,4.0,86,0.00,,,0.00,VWS V14.01,2013-02-22 12:55:00,
2013-02-22 07:56:00,23.4,19.8,30.01,NE,45,0.0,4.0,86,0.00,,,0.00,VWS V14.01,2013-02-22 12:56:00,
2013-02-22 07:57:00,23.4,19.8,30.01,ENE,68,0.0,4.0,86,0.00,,,0.00,VWS V14.01,2013-02-22 12:57:00,
2013-02-22 07:58:00,23.4,19.8,30.01,ENE,72,1.0,4.0,86,0.00,,,0.00,VWS V14.01,2013-02-22 12:58:00,
2013-02-22 07:59:00,23.4,19.8,30.01,ENE,72,0.0,4.0,86,0.00,,,0.00,VWS V14.01,2013-02-22 12:59:00,
2013-02-22 08:00:00,23.4,19.8,30.01,ENE,72,0.0,4.0,86,0.00,,,0.00,VWS V14.01,2013-02-22 13:00:00,
2013-02-22 08:01:00,23.4,19.8,30.01,ENE,72,0.0,0.0,86,0.00,,,0.00,VWS V14.01,2013-02-22 13:01:00,
2013-02-22 08:02:00,23.3,19.7,30.00,ENE,72,0.0,1.0,86,0.00,,,0.00,VWS V14.01,2013-02-22 13:02:00,
2013-02-22 08:03:00,23.3,19.7,30.00,ENE,72,0.0,1.0,86,0.00,,,0.00,VWS V14.01,2013-02-22 13:03:00,
2013-02-22 08:04:00,23.3,19.7,30.00,ENE,72,0.0,1.0,86,0.00,,,0.00,VWS V14.01,2013-02-22 13:04:00,
2013-02-22 08:05:00,23.3,19.7,30.00,East,85,1.0,2.0,86,0.00,,,0.00,VWS V14.01,2013-02-22 13:05:00,
2013-02-22 08:06:00,23.4,19.8,30.00,East,82,2.0,2.0,86,0.00,,,0.00,VWS V14.01,2013-02-22 13:06:00,
2013-02-22 08:07:00,23.3,19.7,30.00,ENE,72,0.0,3.0,86,0.00,,,0.00,VWS V14.01,2013-02-22 13:07:00,
2013-02-22 08:08:00,23.4,19.8,30.00,ENE,72,0.0,3.0,86,0.00,,,0.00,VWS V14.01,2013-02-22 13:08:00,
2013-02-22 08:09:00,23.3,19.7,30.00,ENE,72,0.0,3.0,86,0.00,,,0.00,VWS V14.01,2013-02-22 13:09:00,
2013-02-22 08:10:00,23.3,19.7,30.00,ENE,68,0.0,3.0,86,0.00,,,0.00,VWS V14.01,2013-02-22 13:10:00,
2013-02-22 08:11:00,23.4,19.8,30.00,ENE,69,0.0,3.0,86,0.00,,,0.00,VWS V14.01,2013-02-22 13:11:00,
2013-02-22 08:12:00,23.4,19.8,30.00,East,98,0.0,4.0,86,0.00,,,0.00,VWS V14.01,2013-02-22 13:12:00,
2013-02-22 08:13:00,23.3,19.7,30.00,East,96,0.0,4.0,86,0.00,,,0.00,VWS V14.01,2013-02-22 13:13:00,
2013-02-22 08:14:00,23.3,19.7,30.00,East,96,0.0,4.0,86,0.00,,,0.00,VWS V14.01,2013-02-22 13:14:00,
2013-02-22 08:15:00,23.3,19.7,30.00,East,96,0.0,4.0,86,0.00,,,0.00,VWS V14.01,2013-02-22 13:15:00,
2013-02-22 08:16:00,23.3,19.7,30.00,SSE,164,2.0,10.0,86,0.00,,,0.00,VWS V14.01,2013-02-22 13:16:00,
2013-02-22 08:17:00,23.3,19.7,30.00,ESE,107,1.0,10.0,86,0.00,,,0.00,VWS V14.01,2013-02-22 13:17:00,
2013-02-22 08:18:00,23.3,19.7,30.00,ESE,107,2.0,10.0,86,0.00,,,0.00,VWS V14.01,2013-02-22 13:18:00,
2013-02-22 08:19:00,23.3,19.7,30.00,ESE,107,0.0,10.0,86,0.00,,,0.00,VWS V14.01,2013-02-22 13:19:00,
2013-02-22 08:20:00,23.3,20.0,30.00,ESE,107,3.0,10.0,87,0.00,,,0.00,VWS V14.01,2013-02-22 13:20:00,
2013-02-22 08:21:00,23.3,20.0,30.00,ESE,107,2.0,10.0,87,0.00,,,0.00,VWS V14.01,2013-02-22 13:21:00,
2013-02-22 08:22:00,23.3,20.0,30.00,ESE,107,0.0,10.0,87,0.00,,,0.00,VWS V14.01,2013-02-22 13:22:00,
2013-02-22 08:23:00,23.3,20.0,30.00,NE,45,0.0,10.0,87,0.00,,,0.00,VWS V14.01,2013-02-22 13:23:00,
2013-02-22 08:24:00,23.3,20.0,30.00,East,83,0.0,10.0,87,0.00,,,0.00,VWS V14.01,2013-02-22 13:24:00,
2013-02-22 08:25:00,23.3,20.0,30.00,East,83,0.0,10.0,87,0.00,,,0.00,VWS V14.01,2013-02-22 13:25:00,
2013-02-22 08:26:00,23.3,20.0,30.00,East,83,0.0,10.0,87,0.00,,,0.00,VWS V14.01,2013-02-22 13:26:00,
2013-02-22 08:27:00,23.3,20.0,30.00,East,96,0.0,10.0,87,0.00,,,0.00,VWS V14.01,2013-02-22 13:27:00,
2013-02-22 08:28:00,23.3,20.0,30.00,East,95,0.0,10.0,87,0.00,,,0.00,VWS V14.01,2013-02-22 13:28:00,
2013-02-22 08:29:00,23.3,20.0,30.00,East,95,0.0,10.0,87,0.00,,,0.00,VWS V14.01,2013-02-22 13:29:00,
2013-02-22 08:30:00,23.3,20.0,30.00,East,95,1.0,10.0,87,0.00,,,0.00,VWS V14.01,2013-02-22 13:30:00,
2013-02-22 08:31:00,23.4,20.1,30.00,East,95,0.0,1.0,87,0.00,,,0.00,VWS V14.01,2013-02-22 13:31:00,
2013-02-22 08:32:00,23.4,20.1,30.00,East,95,0.0,1.0,87,0.00,,,0.00,VWS V14.01,2013-02-22 13:32:00,
2013-02-22 08:33:00,23.4,20.1,30.00,East,95,0.0,1.0,87,0.00,,,0.00,VWS V14.01,2013-02-22 13:33:00,
2013-02-22 08:34:00,23.4,20.1,30.00,NE,56,3.0,3.0,87,0.00,,,0.00,VWS V14.01,2013-02-22 13:34:00,
2013-02-22 08:35:00,23.5,20.2,30.00,NE,56,0.0,3.0,87,0.00,,,0.00,VWS V14.01,2013-02-22 13:35:00,
2013-02-22 08:36:00,23.5,20.2,30.00,ENE,71,0.0,3.0,87,0.00,,,0.00,VWS V14.01,2013-02-22 13:36:00,
2013-02-22 08:37:00,23.5,20.2,30.00,ENE,71,1.0,3.0,87,0.00,,,0.00,VWS V14.01,2013-02-22 13:37:00,
2013-02-22 08:38:00,23.5,20.2,30.00,ENE,72,0.0,3.0,87,0.00,,,0.00,VWS V14.01,2013-02-22 13:38:00,
2013-02-22 08:39:00,23.6,20.3,30.00,ENE,72,0.0,3.0,87,0.00,,,0.00,VWS V14.01,2013-02-22 13:39:00,
2013-02-22 08:40:00,23.6,20.3,30.00,ENE,72,0.0,3.0,87,0.00,,,0.00,VWS V14.01,2013-02-22 13:40:00,
2013-02-22 08:41:00,23.6,20.3,29.99,ENE,76,0.0,3.0,87,0.00,,,0.00,VWS V14.01,2013-02-22 13:41:00,
2013-02-22 08:42:00,23.6,20.3,29.99,ENE,76,0.0,3.0,87,0.00,,,0.00,VWS V14.01,2013-02-22 13:42:00,
2013-02-22 08:43:00,23.6,20.3,29.99,East,80,0.0,3.0,87,0.00,,,0.00,VWS V14.01,2013-02-22 13:43:00,
2013-02-22 08:44:00,23.6,20.3,30.00,East,80,1.0,3.0,87,0.00,,,0.00,VWS V14.01,2013-02-22 13:44:00,
2013-02-22 08:45:00,23.6,20.3,30.00,East,80,0.0,3.0,87,0.00,,,0.00,VWS V14.01,2013-02-22 13:45:00,
2013-02-22 08:46:00,23.6,20.3,30.00,East,79,0.0,3.0,87,0.00,,,0.00,VWS V14.01,2013-02-22 13:46:00,
2013-02-22 08:47:00,23.6,20.3,29.99,East,79,0.0,3.0,87,0.00,,,0.00,VWS V14.01,2013-02-22 13:47:00,
2013-02-22 08:48:00,23.7,20.4,30.00,East,79,0.0,3.0,87,0.00,,,0.00,VWS V14.01,2013-02-22 13:48:00,
2013-02-22 08:49:00,23.6,20.3,29.99,East,80,0.0,3.0,87,0.00,,,0.00,VWS V14.01,2013-02-22 13:49:00,
2013-02-22 08:50:00,23.6,20.3,29.99,East,80,0.0,3.0,87,0.00,,,0.00,VWS V14.01,2013-02-22 13:50:00,
2013-02-22 08:51:00,23.6,20.3,29.99,East,80,0.0,3.0,87,0.00,,,0.00,VWS V14.01,2013-02-22 13:51:00,
2013-02-22 08:52:00,23.7,20.4,29.99,East,79,0.0,3.0,87,0.00,,,0.00,VWS V14.01,2013-02-22 13:52:00,
2013-02-22 08:53:00,23.6,20.3,29.99,East,80,0.0,3.0,87,0.00,,,0.00,VWS V14.01,2013-02-22 13:53:00,
2013-02-22 08:54:00,23.7,20.4,29.99,East,80,0.0,3.0,87,0.00,,,0.00,VWS V14.01,2013-02-22 13:54:00,
2013-02-22 08:55:00,23.7,20.4,29.99,East,80,0.0,3.0,87,0.00,,,0.00,VWS V14.01,2013-02-22 13:55:00,
2013-02-22 08:56:00,23.7,20.4,29.99,East,80,0.0,3.0,87,0.00,,,0.00,VWS V14.01,2013-02-22 13:56:00,
2013-02-22 08:57:00,23.7,20.4,29.99,East,80,0.0,3.0,87,0.00,,,0.00,VWS V14.01,2013-02-22 13:57:00,
2013-02-22 08:58:00,23.7,20.4,29.99,East,80,1.0,3.0,87,0.00,,,0.00,VWS V14.01,2013-02-22 13:58:00,
2013-02-22 08:59:00,23.7,20.4,29.99,South,172,0.0,3.0,87,0.00,,,0.00,VWS V14.01,2013-02-22 13:59:00,
2013-02-22 09:00:00,23.7,20.4,29.99,SSE,163,2.0,3.0,87,0.00,,,0.00,VWS V14.01,2013-02-22 14:00:00,
2013-02-22 09:01:00,23.7,20.4,29.99,SSE,163,0.0,2.0,87,0.00,,,0.00,VWS V14.01,2013-02-22 14:01:00,
2013-02-22 09:02:00,23.7,20.4,29.99,SE,146,0.0,3.0,87,0.00,,,0.00,VWS V14.01,2013-02-22 14:02:00,
2013-02-22 09:03:00,23.8,20.5,29.99,SSE,147,0.0,3.0,87,0.00,,,0.00,VWS V14.01,2013-02-22 14:03:00,
2013-02-22 09:04:00,23.7,20.4,29.99,SSE,147,0.0,3.0,87,0.00,,,0.00,VWS V14.01,2013-02-22 14:04:00,
2013-02-22 09:05:00,23.8,20.5,29.99,SSE,147,1.0,3.0,87,0.00,,,0.00,VWS V14.01,2013-02-22 14:05:00,
2013-02-22 09:06:00,23.8,20.5,29.99,SE,142,1.0,3.0,87,0.00,,,0.00,VWS V14.01,2013-02-22 14:06:00,
2013-02-22 09:07:00,23.8,20.5,29.99,SE,142,1.0,3.0,87,0.00,,,0.00,VWS V14.01,2013-02-22 14:07:00,
2013-02-22 09:08:00,23.8,20.5,29.99,SE,142,1.0,3.0,87,0.00,,,0.00,VWS V14.01,2013-02-22 14:08:00,
2013-02-22 09:09:00,23.8,20.5,29.99,SE,124,2.0,3.0,87,0.00,,,0.00,VWS V14.01,2013-02-22 14:09:00,
2013-02-22 09:10:00,23.8,20.5,29.99,SE,124,0.0,3.0,87,0.00,,,0.00,VWS V14.01,2013-02-22 14:10:00,
2013-02-22 09:11:00,23.9,20.6,29.99,SE,124,0.0,3.0,87,0.00,,,0.00,VWS V14.01,2013-02-22 14:11:00,
2013-02-22 09:12:00,23.9,20.6,29.99,SE,128,0.0,3.0,87,0.00,,,0.00,VWS V14.01,2013-02-22 14:12:00,
2013-02-22 09:13:00,23.9,20.6,29.99,SE,128,2.0,3.0,87,0.00,,,0.00,VWS V14.01,2013-02-22 14:13:00,
2013-02-22 09:14:00,24.0,20.7,29.99,SE,138,1.0,4.0,87,0.00,,,0.00,VWS V14.01,2013-02-22 14:14:00,
2013-02-22 09:15:00,24.0,20.7,29.99,SE,128,2.0,4.0,87,0.00,,,0.00,VWS V14.01,2013-02-22 14:15:00,
2013-02-22 09:16:00,24.0,20.7,29.99,SE,128,0.0,4.0,87,0.00,,,0.00,VWS V14.01,2013-02-22 14:16:00,
2013-02-22 09:17:00,24.0,20.7,29.99,SE,128,0.0,4.0,87,0.00,,,0.00,VWS V14.01,2013-02-22 14:17:00,
2013-02-22 09:18:00,24.1,20.8,29.99,North,360,7.0,7.0,87,0.00,,,0.00,VWS V14.01,2013-02-22 14:18:00,
2013-02-22 09:19:00,24.1,20.8,29.98,ENE,63,0.0,7.0,87,0.00,,,0.00,VWS V14.01,2013-02-22 14:19:00,
2013-02-22 09:20:00,24.2,20.9,29.99,ENE,63,0.0,7.0,87,0.00,,,0.00,VWS V14.01,2013-02-22 14:20:00,
2013-02-22 09:21:00,24.2,20.9,29.98,ENE,72,0.0,7.0,87,0.00,,,0.00,VWS V14.01,2013-02-22 14:21:00,
2013-02-22 09:22:00,24.3,21.0,29.98,SSE,149,1.0,7.0,87,0.00,,,0.00,VWS V14.01,2013-02-22 14:22:00,
2013-02-22 09:23:00,24.3,21.0,29.98,SE,126,0.0,7.0,87,0.00,,,0.00,VWS V14.01,2013-02-22 14:23:00,
2013-02-22 09:24:00,24.3,21.0,29.98,ESE,123,2.0,7.0,87,0.00,,,0.00,VWS V14.01,2013-02-22 14:24:00,
2013-02-22 09:25:00,24.4,21.1,29.98,ESE,117,1.0,7.0,87,0.00,,,0.00,VWS V14.01,2013-02-22 14:25:00,
2013-02-22 09:26:00,24.5,21.2,29.98,SE,124,0.0,7.0,87,0.00,,,0.00,VWS V14.01,2013-02-22 14:26:00,
2013-02-22 09:27:00,24.5,21.2,29.98,SSE,161,3.0,7.0,87,0.00,,,0.00,VWS V14.01,2013-02-22 14:27:00,
2013-02-22 09:28:00,24.6,21.3,29.98,SSE,154,0.0,7.0,87,0.00,,,0.00,VWS V14.01,2013-02-22 14:28:00,
2013-02-22 09:29:00,24.6,21.3,29.98,SSE,153,0.0,7.0,87,0.00,,,0.00,VWS V14.01,2013-02-22 14:29:00,
2013-02-22 09:30:00,24.7,21.4,29.98,SSE,154,0.0,7.0,87,0.00,,,0.00,VWS V14.01,2013-02-22 14:30:00,
2013-02-22 09:31:00,24.8,21.5,29.98,SE,132,0.0,3.0,87,0.00,,,0.00,VWS V14.01,2013-02-22 14:31:00,
2013-02-22 09:32:00,24.9,21.6,29.98,ESE,123,0.0,3.0,87,0.00,,,0.00,VWS V14.01,2013-02-22 14:32:00,
2013-02-22 09:33:00,24.9,21.6,29.98,ESE,110,4.0,4.0,87,0.00,,,0.00,VWS V14.01,2013-02-22 14:33:00,
2013-02-22 09:34:00,24.9,21.6,29.98,South,186,0.0,5.0,87,0.00,,,0.00,VWS V14.01,2013-02-22 14:34:00,
2013-02-22 09:35:00,24.9,21.6,29.98,South,173,2.0,5.0,87,0.00,,,0.00,VWS V14.01,2013-02-22 14:35:00,
2013-02-22 09:36:00,24.9,21.6,29.98,SE,138,2.0,5.0,87,0.00,,,0.00,VWS V14.01,2013-02-22 14:36:00,
2013-02-22 09:37:00,24.9,21.6,29.98,ESE,122,1.0,5.0,87,0.00,,,0.00,VWS V14.01,2013-02-22 14:37:00,
2013-02-22 09:38:00,24.9,21.6,29.98,SSE,158,0.0,5.0,87,0.00,,,0.00,VWS V14.01,2013-02-22 14:38:00,
2013-02-22 09:39:00,24.9,21.6,29.98,SSE,147,1.0,5.0,87,0.00,,,0.00,VWS V14.01,2013-02-22 14:39:00,
2013-02-22 09:40:00,24.9,21.6,29.98,SE,132,0.0,5.0,87,0.00,,,0.00,VWS V14.01,2013-02-22 14:40:00,
2013-02-22 09:41:00,24.9,21.6,29.98,SE,130,1.0,5.0,87,0.00,,,0.00,VWS V14.01,2013-02-22 14:41:00,
2013-02-22 09:42:00,24.9,21.6,29.98,ESE,112,3.0,5.0,87,0.00,,,0.00,VWS V14.01,2013-02-22 14:42:00,
2013-02-22 09:43:00,24.9,21.6,29.98,ESE,123,3.0,5.0,87,0.00,,,0.00,VWS V14.01,2013-02-22 14:43:00,
2013-02-22 09:44:00,24.9,21.6,29.98,ESE,121,2.0,5.0,87,0.00,,,0.00,VWS V14.01,2013-02-22 14:44:00,
2013-02-22 09:45:00,24.9,21.6,29.98,ESE,115,3.0,5.0,87,0.00,,,0.00,VWS V14.01,2013-02-22 14:45:00,
2013-02-22 09:46:00,24.9,21.6,29.97,ESE,119,1.0,5.0,87,0.00,,,0.00,VWS V14.01,2013-02-22 14:46:00,
2013-02-22 09:47:00,24.9,21.6,29.97,ESE,119,2.0,5.0,87,0.00,,,0.00,VWS V14.01,2013-02-22 14:47:00,
2013-02-22 09:48:00,24.9,21.6,29.97,SSE,166,2.0,5.0,87,0.00,,,0.00,VWS V14.01,2013-02-22 14:48:00,
2013-02-22 09:49:00,24.9,21.6,29.97,SSW,213,0.0,5.0,87,0.00,,,0.00,VWS V14.01,2013-02-22 14:49:00,
2013-02-22 09:50:00,25.0,21.7,29.97,SSE,163,0.0,5.0,87,0.00,,,0.00,VWS V14.01,2013-02-22 14:50:00,
2013-02-22 09:51:00,25.0,21.7,29.97,ESE,117,2.0,5.0,87,0.00,,,0.00,VWS V14.01,2013-02-22 14:51:00,
2013-02-22 09:52:00,25.0,21.7,29.97,ESE,109,0.0,5.0,87,0.00,,,0.00,VWS V14.01,2013-02-22 14:52:00,
2013-02-22 09:53:00,25.0,21.7,29.97,ESE,109,0.0,5.0,87,0.00,,,0.00,VWS V14.01,2013-02-22 14:53:00,
2013-02-22 09:54:00,25.1,21.8,29.97,ESE,109,1.0,5.0,87,0.00,,,0.00,VWS V14.01,2013-02-22 14:54:00,
2013-02-22 09:55:00,25.1,21.8,29.96,East,94,1.0,5.0,87,0.00,,,0.00,VWS V14.01,2013-02-22 14:55:00,
2013-02-22 09:56:00,25.1,21.8,29.96,East,96,1.0,5.0,87,0.00,,,0.00,VWS V14.01,2013-02-22 14:56:00,
2013-02-22 09:57:00,25.1,21.8,29.96,East,95,0.0,5.0,87,0.00,,,0.00,VWS V14.01,2013-02-22 14:57:00,
2013-02-22 09:58:00,25.1,21.5,29.96,East,96,1.0,5.0,86,0.00,,,0.00,VWS V14.01,2013-02-22 14:58:00,
2013-02-22 09:59:00,25.1,21.5,29.96,East,96,0.0,5.0,86,0.00,,,0.00,VWS V14.01,2013-02-22 14:59:00,
2013-02-22 10:00:00,25.2,21.6,29.95,East,96,0.0,5.0,86,0.00,,,0.00,VWS V14.01,2013-02-22 15:00:00,
2013-02-22 10:01:00,25.2,21.6,29.96,East,96,2.0,2.0,86,0.00,,,0.00,VWS V14.01,2013-02-22 15:01:00,
2013-02-22 10:02:00,25.2,21.6,29.96,East,96,0.0,2.0,86,0.00,,,0.00,VWS V14.01,2013-02-22 15:02:00,
2013-02-22 10:03:00,25.3,21.7,29.96,ESE,107,0.0,2.0,86,0.00,,,0.00,VWS V14.01,2013-02-22 15:03:00,
2013-02-22 10:04:00,25.2,21.6,29.96,SSE,160,3.0,3.0,86,0.00,,,0.00,VWS V14.01,2013-02-22 15:04:00,
2013-02-22 10:05:00,25.3,21.7,29.96,ESE,119,0.0,3.0,86,0.00,,,0.00,VWS V14.01,2013-02-22 15:05:00,
2013-02-22 10:06:00,25.3,21.7,29.95,East,98,1.0,3.0,86,0.00,,,0.00,VWS V14.01,2013-02-22 15:06:00,
2013-02-22 10:07:00,25.4,21.8,29.96,SSE,164,2.0,3.0,86,0.00,,,0.00,VWS V14.01,2013-02-22 15:07:00,
2013-02-22 10:08:00,25.4,21.8,29.95,ESE,121,1.0,3.0,86,0.00,,,0.00,VWS V14.01,2013-02-22 15:08:00,
2013-02-22 10:09:00,25.4,21.8,29.95,South,175,0.0,5.0,86,0.00,,,0.00,VWS V14.01,2013-02-22 15:09:00,
2013-02-22 10:10:00,25.4,21.8,29.95,South,173,0.0,5.0,86,0.00,,,0.00,VWS V14.01,2013-02-22 15:10:00,
2013-02-22 10:11:00,25.4,21.8,29.95,South,175,0.0,5.0,86,0.00,,,0.00,VWS V14.01,2013-02-22 15:11:00,
2013-02-22 10:12:00,25.4,21.8,29.95,SSE,166,2.0,5.0,86,0.00,,,0.00,VWS V14.01,2013-02-22 15:12:00,
2013-02-22 10:13:00,25.4,21.8,29.95,SSE,165,0.0,5.0,86,0.00,,,0.00,VWS V14.01,2013-02-22 15:13:00,
2013-02-22 10:14:00,25.5,21.9,29.95,SE,125,2.0,5.0,86,0.00,,,0.00,VWS V14.01,2013-02-22 15:14:00,
2013-02-22 10:15:00,25.5,21.9,29.95,SE,128,2.0,5.0,86,0.00,,,0.00,VWS V14.01,2013-02-22 15:15:00,
2013-02-22 10:16:00,25.5,21.9,29.95,SSW,202,2.0,5.0,86,0.00,,,0.00,VWS V14.01,2013-02-22 15:16:00,
2013-02-22 10:17:00,25.5,21.9,29.95,ENE,69,0.0,5.0,86,0.00,,,0.00,VWS V14.01,2013-02-22 15:17:00,
2013-02-22 10:18:00,25.5,21.9,29.95,SE,130,3.0,5.0,86,0.00,,,0.00,VWS V14.01,2013-02-22 15:18:00,
2013-02-22 10:19:00,25.5,21.9,29.95,SE,145,1.0,5.0,86,0.00,,,0.00,VWS V14.01,2013-02-22 15:19:00,
2013-02-22 10:20:00,25.5,21.9,29.95,SE,144,1.0,5.0,86,0.00,,,0.00,VWS V14.01,2013-02-22 15:20:00,
2013-02-22 10:21:00,25.5,21.9,29.95,SE,146,1.0,5.0,86,0.00,,,0.00,VWS V14.01,2013-02-22 15:21:00,
2013-02-22 10:22:00,25.5,21.9,29.95,SSE,164,2.0,5.0,86,0.00,,,0.00,VWS V14.01,2013-02-22 15:22:00,
2013-02-22 10:23:00,25.6,22.0,29.95,SSE,164,0.0,5.0,86,0.00,,,0.00,VWS V14.01,2013-02-22 15:23:00,
2013-02-22 10:24:00,25.6,22.0,29.95,ESE,113,2.0,5.0,86,0.00,,,0.00,VWS V14.01,2013-02-22 15:24:00,
2013-02-22 10:25:00,25.6,22.0,29.95,ESE,113,1.0,5.0,86,0.00,,,0.00,VWS V14.01,2013-02-22 15:25:00,
2013-02-22 10:26:00,25.6,22.0,29.95,ESE,113,1.0,5.0,86,0.00,,,0.00,VWS V14.01,2013-02-22 15:26:00,
2013-02-22 10:27:00,25.7,22.1,29.95,ESE,113,1.0,5.0,86,0.00,,,0.00,VWS V14.01,2013-02-22 15:27:00,
2013-02-22 10:28:00,25.7,22.1,29.95,ESE,115,0.0,5.0,86,0.00,,,0.00,VWS V14.01,2013-02-22 15:28:00,
2013-02-22 10:29:00,25.7,22.1,29.95,South,177,0.0,5.0,86,0.00,,,0.00,VWS V14.01,2013-02-22 15:29:00,
2013-02-22 10:30:00,25.8,22.2,29.95,South,175,1.0,5.0,86,0.00,,,0.00,VWS V14.01,2013-02-22 15:30:00,
2013-02-22 10:31:00,25.7,21.8,29.95,SSE,158,3.0,3.0,85,0.00,,,0.00,VWS V14.01,2013-02-22 15:31:00,
2013-02-22 10:32:00,25.7,21.8,29.95,SE,132,0.0,3.0,85,0.00,,,0.00,VWS V14.01,2013-02-22 15:32:00,
2013-02-22 10:33:00,25.7,21.8,29.95,SE,132,0.0,3.0,85,0.00,,,0.00,VWS V14.01,2013-02-22 15:33:00,
2013-02-22 10:34:00,25.7,21.8,29.95,SE,133,1.0,3.0,85,0.00,,,0.00,VWS V14.01,2013-02-22 15:34:00,
2013-02-22 10:35:00,25.7,21.8,29.95,SE,133,0.0,3.0,85,0.00,,,0.00,VWS V14.01,2013-02-22 15:35:00,
2013-02-22 10:36:00,25.7,21.8,29.95,SE,133,0.0,3.0,85,0.00,,,0.00,VWS V14.01,2013-02-22 15:36:00,
2013-02-22 10:37:00,25.8,21.9,29.95,SE,134,3.0,3.0,85,0.00,,,0.00,VWS V14.01,2013-02-22 15:37:00,
2013-02-22 10:38:00,25.7,21.8,29.95,SE,134,0.0,3.0,85,0.00,,,0.00,VWS V14.01,2013-02-22 15:38:00,
2013-02-22 10:39:00,25.8,21.9,29.94,SSE,148,0.0,3.0,85,0.00,,,0.00,VWS V14.01,2013-02-22 15:39:00,
2013-02-22 10:40:00,25.7,21.8,29.95,SSE,148,0.0,3.0,85,0.00,,,0.00,VWS V14.01,2013-02-22 15:40:00,
2013-02-22 10:41:00,25.7,21.8,29.95,SSE,148,1.0,3.0,85,0.00,,,0.00,VWS V14.01,2013-02-22 15:41:00,
2013-02-22 10:42:00,25.8,21.9,29.95,SE,144,2.0,3.0,85,0.00,,,0.00,VWS V14.01,2013-02-22 15:42:00,
2013-02-22 10:43:00,25.8,21.9,29.95,SE,144,1.0,3.0,85,0.00,,,0.00,VWS V14.01,2013-02-22 15:43:00,
2013-02-22 10:44:00,25.8,21.9,29.95,SE,144,0.0,3.0,85,0.00,,,0.00,VWS V14.01,2013-02-22 15:44:00,
2013-02-22 10:45:00,25.8,21.9,29.95,SE,144,0.0,3.0,85,0.00,,,0.00,VWS V14.01,2013-02-22 15:45:00,
2013-02-22 10:46:00,25.8,21.9,29.95,SE,144,2.0,3.0,85,0.00,,,0.00,VWS V14.01,2013-02-22 15:46:00,
2013-02-22 10:47:00,25.8,21.9,29.95,SE,144,0.0,3.0,85,0.00,,,0.00,VWS V14.01,2013-02-22 15:47:00,
2013-02-22 10:48:00,25.8,21.9,29.95,SE,144,0.0,3.0,85,0.00,,,0.00,VWS V14.01,2013-02-22 15:48:00,
2013-02-22 10:49:00,25.8,21.9,29.95,SE,144,0.0,3.0,85,0.00,,,0.00,VWS V14.01,2013-02-22 15:49:00,
2013-02-22 10:50:00,25.8,21.9,29.95,SE,144,2.0,3.0,85,0.00,,,0.00,VWS V14.01,2013-02-22 15:50:00,
2013-02-22 10:51:00,25.9,22.0,29.95,South,172,2.0,3.0,85,0.00,,,0.00,VWS V14.01,2013-02-22 15:51:00,
2013-02-22 10:52:00,25.9,22.0,29.95,South,169,0.0,3.0,85,0.00,,,0.00,VWS V14.01,2013-02-22 15:52:00,
2013-02-22 10:53:00,25.9,22.0,29.95,South,169,0.0,3.0,85,0.00,,,0.00,VWS V14.01,2013-02-22 15:53:00,
2013-02-22 10:54:00,25.9,23.9,29.95,South,169,0.0,3.0,92,0.00,,,0.00,VWS V14.01,2013-02-22 15:54:00,
2013-02-22 10:55:00,25.9,22.0,29.95,South,169,0.0,3.0,85,0.00,,,0.00,VWS V14.01,2013-02-22 15:55:00,
2013-02-22 10:56:00,26.0,22.1,29.95,South,169,0.0,3.0,85,0.00,,,0.00,VWS V14.01,2013-02-22 15:56:00,
2013-02-22 10:57:00,26.0,22.1,29.95,SSE,168,0.0,3.0,85,0.00,,,0.00,VWS V14.01,2013-02-22 15:57:00,
2013-02-22 10:58:00,26.0,22.1,29.95,South,169,1.0,3.0,85,0.00,,,0.00,VWS V14.01,2013-02-22 15:58:00,
2013-02-22 10:59:00,26.1,22.2,29.95,SSE,168,0.0,3.0,85,0.00,,,0.00,VWS V14.01,2013-02-22 15:59:00,
2013-02-22 11:00:00,26.1,22.2,29.95,SSE,168,0.0,3.0,85,0.00,,,0.00,VWS V14.01,2013-02-22 16:00:00,
2013-02-22 11:01:00,26.2,22.3,29.95,SSE,168,0.0,0.0,85,0.00,,,0.00,VWS V14.01,2013-02-22 16:01:00,
2013-02-22 11:02:00,26.2,22.3,29.95,SSE,168,0.0,0.0,85,0.00,,,0.00,VWS V14.01,2013-02-22 16:02:00,
2013-02-22 11:03:00,26.2,22.3,29.95,SSE,168,0.0,1.0,85,0.00,,,0.00,VWS V14.01,2013-02-22 16:03:00,
2013-02-22 11:04:00,26.2,22.3,29.95,SSE,168,0.0,1.0,85,0.00,,,0.00,VWS V14.01,2013-02-22 16:04:00,
2013-02-22 11:05:00,26.2,22.3,29.95,South,178,2.0,5.0,85,0.00,,,0.00,VWS V14.01,2013-02-22 16:05:00,
2013-02-22 11:06:00,26.2,22.3,29.95,SE,129,1.0,5.0,85,0.00,,,0.00,VWS V14.01,2013-02-22 16:06:00,
2013-02-22 11:07:00,26.2,22.3,29.94,SE,136,0.0,5.0,85,0.00,,,0.00,VWS V14.01,2013-02-22 16:07:00,
2013-02-22 11:08:00,26.2,22.3,29.95,South,181,0.0,5.0,85,0.00,,,0.00,VWS V14.01,2013-02-22 16:08:00,
2013-02-22 11:09:00,26.2,22.3,29.95,South,180,0.0,5.0,85,0.00,,,0.00,VWS V14.01,2013-02-22 16:09:00,
2013-02-22 11:10:00,26.2,22.3,29.95,South,180,0.0,5.0,85,0.00,,,0.00,VWS V14.01,2013-02-22 16:10:00,
2013-02-22 11:11:00,26.2,22.3,29.95,South,179,0.0,5.0,85,0.00,,,0.00,VWS V14.01,2013-02-22 16:11:00,
2013-02-22 11:12:00,26.2,22.3,29.95,SSE,150,2.0,5.0,85,0.00,,,0.00,VWS V14.01,2013-02-22 16:12:00,
2013-02-22 11:13:00,26.3,22.4,29.94,SSE,150,1.0,5.0,85,0.00,,,0.00,VWS V14.01,2013-02-22 16:13:00,
2013-02-22 11:14:00,26.3,22.4,29.94,SSE,157,3.0,5.0,85,0.00,,,0.00,VWS V14.01,2013-02-22 16:14:00,
2013-02-22 11:15:00,26.3,22.4,29.94,SSE,164,0.0,5.0,85,0.00,,,0.00,VWS V14.01,2013-02-22 16:15:00,
2013-02-22 11:16:00,26.3,22.4,29.94,SSE,164,2.0,5.0,85,0.00,,,0.00,VWS V14.01,2013-02-22 16:16:00,
2013-02-22 11:17:00,26.3,22.4,29.94,SSE,164,1.0,5.0,85,0.00,,,0.00,VWS V14.01,2013-02-22 16:17:00,
2013-02-22 11:18:00,26.4,22.5,29.94,SSE,164,0.0,5.0,85,0.00,,,0.00,VWS V14.01,2013-02-22 16:18:00,
2013-02-22 11:19:00,26.4,22.5,29.94,SSE,164,0.0,5.0,85,0.00,,,0.00,VWS V14.01,2013-02-22 16:19:00,
2013-02-22 11:20:00,26.4,22.5,29.94,SSE,164,0.0,5.0,85,0.00,,,0.00,VWS V14.01,2013-02-22 16:20:00,
2013-02-22 11:21:00,26.5,22.6,29.94,SSE,164,0.0,5.0,85,0.00,,,0.00,VWS V14.01,2013-02-22 16:21:00,
2013-02-22 11:22:00,26.5,22.6,29.94,SSE,164,0.0,5.0,85,0.00,,,0.00,VWS V14.01,2013-02-22 16:22:00,
2013-02-22 11:23:00,26.5,22.6,29.94,SSE,164,0.0,5.0,85,0.00,,,0.00,VWS V14.01,2013-02-22 16:23:00,
2013-02-22 11:24:00,26.6,22.7,29.94,SSE,164,1.0,5.0,85,0.00,,,0.00,VWS V14.01,2013-02-22 16:24:00,
2013-02-22 11:25:00,26.6,22.7,29.94,SSE,164,0.0,5.0,85,0.00,,,0.00,VWS V14.01,2013-02-22 16:25:00,
2013-02-22 11:26:00,26.6,22.7,29.94,SSE,160,3.0,5.0,85,0.00,,,0.00,VWS V14.01,2013-02-22 16:26:00,
2013-02-22 11:27:00,26.6,22.7,29.94,SSE,159,1.0,5.0,85,0.00,,,0.00,VWS V14.01,2013-02-22 16:27:00,
2013-02-22 11:28:00,26.7,22.8,29.94,SSE,159,2.0,5.0,85,0.00,,,0.00,VWS V14.01,2013-02-22 16:28:00,
2013-02-22 11:29:00,26.7,22.8,29.94,SSE,151,1.0,5.0,85,0.00,,,0.00,VWS V14.01,2013-02-22 16:29:00,
2013-02-22 11:30:00,26.7,22.8,29.94,SSE,151,1.0,5.0,85,0.00,,,0.00,VWS V14.01,2013-02-22 16:30:00,
2013-02-22 11:31:00,26.7,22.8,29.94,SSE,151,0.0,2.0,85,0.00,,,0.00,VWS V14.01,2013-02-22 16:31:00,
2013-02-22 11:32:00,26.7,22.8,29.94,SSE,151,0.0,2.0,85,0.00,,,0.00,VWS V14.01,2013-02-22 16:32:00,
2013-02-22 11:33:00,26.8,22.9,29.94,SSE,150,0.0,2.0,85,0.00,,,0.00,VWS V14.01,2013-02-22 16:33:00,
2013-02-22 11:34:00,26.8,22.9,29.94,SSE,151,1.0,2.0,85,0.00,,,0.00,VWS V14.01,2013-02-22 16:34:00,
2013-02-22 11:35:00,26.8,22.9,29.93,SE,137,0.0,2.0,85,0.00,,,0.00,VWS V14.01,2013-02-22 16:35:00,
2013-02-22 11:36:00,26.8,22.9,29.94,SE,137,0.0,2.0,85,0.00,,,0.00,VWS V14.01,2013-02-22 16:36:00,
2013-02-22 11:37:00,26.9,23.0,29.94,SE,137,0.0,2.0,85,0.00,,,0.00,VWS V14.01,2013-02-22 16:37:00,
2013-02-22 11:38:00,26.9,23.0,29.94,SE,137,0.0,2.0,85,0.00,,,0.00,VWS V14.01,2013-02-22 16:38:00,
2013-02-22 11:39:00,26.9,23.0,29.93,SE,137,1.0,2.0,85,0.00,,,0.00,VWS V14.01,2013-02-22 16:39:00,
2013-02-22 11:40:00,27.0,23.1,29.93,SE,137,0.0,2.0,85,0.00,,,0.00,VWS V14.01,2013-02-22 16:40:00,
2013-02-22 11:41:00,27.0,23.1,29.94,SE,137,2.0,2.0,85,0.00,,,0.00,VWS V14.01,2013-02-22 16:41:00,
2013-02-22 11:42:00,27.1,23.2,29.93,SE,137,0.0,2.0,85,0.00,,,0.00,VWS V14.01,2013-02-22 16:42:00,
2013-02-22 11:43:00,27.1,23.2,29.93,SE,134,1.0,2.0,85,0.00,,,0.00,VWS V14.01,2013-02-22 16:43:00,
2013-02-22 11:44:00,27.1,23.2,29.93,SE,135,1.0,2.0,85,0.00,,,0.00,VWS V14.01,2013-02-22 16:44:00,
2013-02-22 11:45:00,27.1,23.2,29.93,SSE,153,3.0,3.0,85,0.00,,,0.00,VWS V14.01,2013-02-22 16:45:00,
2013-02-22 11:46:00,27.1,23.2,29.93,SSE,153,2.0,3.0,85,0.00,,,0.00,VWS V14.01,2013-02-22 16:46:00,
2013-02-22 11:47:00,27.1,23.2,29.93,SSW,206,2.0,3.0,85,0.00,,,0.00,VWS V14.01,2013-02-22 16:47:00,
2013-02-22 11:48:00,27.1,23.2,29.93,SSE,165,1.0,3.0,85,0.00,,,0.00,VWS V14.01,2013-02-22 16:48:00,
2013-02-22 11:49:00,27.1,23.2,29.93,SSE,165,1.0,3.0,85,0.00,,,0.00,VWS V14.01,2013-02-22 16:49:00,
2013-02-22 11:50:00,27.2,23.3,29.93,SSE,164,0.0,3.0,85,0.00,,,0.00,VWS V14.01,2013-02-22 16:50:00,
2013-02-22 11:51:00,27.2,23.3,29.93,SSE,165,0.0,3.0,85,0.00,,,0.00,VWS V14.01,2013-02-22 16:51:00,
2013-02-22 11:52:00,27.2,23.3,29.93,SSE,164,1.0,3.0,85,0.00,,,0.00,VWS V14.01,2013-02-22 16:52:00,
2013-02-22 11:53:00,27.2,23.3,29.93,SSE,164,1.0,3.0,85,0.00,,,0.00,VWS V14.01,2013-02-22 16:53:00,
2013-02-22 11:54:00,27.2,23.3,29.93,SSE,165,0.0,3.0,85,0.00,,,0.00,VWS V14.01,2013-02-22 16:54:00,
2013-02-22 11:55:00,27.2,23.3,29.93,SSE,165,2.0,3.0,85,0.00,,,0.00,VWS V14.01,2013-02-22 16:55:00,
2013-02-22 11:56:00,27.3,23.4,29.93,SSE,155,1.0,5.0,85,0.00,,,0.00,VWS V14.01,2013-02-22 16:56:00,
2013-02-22 11:57:00,27.2,23.3,29.93,SSE,151,0.0,5.0,85,0.00,,,0.00,VWS V14.01,2013-02-22 16:57:00,
2013-02-22 11:58:00,27.3,23.4,29.93,SSE,163,1.0,5.0,85,0.00,,,0.00,VWS V14.01,2013-02-22 16:58:00,
2013-02-22 11:59:00,27.2,23.3,29.93,SSE,163,0.0,5.0,85,0.00,,,0.00,VWS V14.01,2013-02-22 16:59:00,
2013-02-22 12:00:00,27.3,23.4,29.93,SSE,163,0.0,5.0,85,0.00,,,0.00,VWS V14.01,2013-02-22 17:00:00,
2013-02-22 12:01:00,27.3,23.4,29.93,SSE,163,0.0,0.0,85,0.00,,,0.00,VWS V14.01,2013-02-22 17:01:00,
2013-02-22 12:02:00,27.3,23.4,29.93,SSE,163,0.0,0.0,85,0.00,,,0.00,VWS V14.01,2013-02-22 17:02:00,
2013-02-22 12:03:00,27.3,25.3,29.93,NE,52,0.0,1.0,92,0.00,,,0.00,VWS V14.01,2013-02-22 17:03:00,
2013-02-22 12:04:00,27.4,23.8,29.93,ENE,63,0.0,2.0,86,0.00,,,0.00,VWS V14.01,2013-02-22 17:04:00,
2013-02-22 12:05:00,27.4,23.8,29.93,East,86,2.0,3.0,86,0.00,,,0.00,VWS V14.01,2013-02-22 17:05:00,
2013-02-22 12:06:00,27.4,23.8,29.93,South,178,2.0,3.0,86,0.00,,,0.00,VWS V14.01,2013-02-22 17:06:00,
2013-02-22 12:07:00,27.4,23.8,29.93,South,178,2.0,3.0,86,0.00,,,0.00,VWS V14.01,2013-02-22 17:07:00,
2013-02-22 12:08:00,27.4,23.8,29.93,South,178,0.0,3.0,86,0.00,,,0.00,VWS V14.01,2013-02-22 17:08:00,
2013-02-22 12:09:00,27.4,23.8,29.93,South,176,0.0,3.0,86,0.00,,,0.00,VWS V14.01,2013-02-22 17:09:00,
2013-02-22 12:10:00,27.4,23.8,29.93,South,177,0.0,3.0,86,0.00,,,0.00,VWS V14.01,2013-02-22 17:10:00,
2013-02-22 12:11:00,27.4,23.8,29.93,South,177,0.0,3.0,86,0.00,,,0.00,VWS V14.01,2013-02-22 17:11:00,
2013-02-22 12:12:00,27.5,23.9,29.93,South,176,0.0,3.0,86,0.00,,,0.00,VWS V14.01,2013-02-22 17:12:00,
2013-02-22 12:13:00,27.5,23.9,29.93,South,177,1.0,3.0,86,0.00,,,0.00,VWS V14.01,2013-02-22 17:13:00,
2013-02-22 12:14:00,27.5,23.9,29.93,South,177,1.0,3.0,86,0.00,,,0.00,VWS V14.01,2013-02-22 17:14:00,
2013-02-22 12:15:00,27.5,23.9,29.93,South,177,0.0,3.0,86,0.00,,,0.00,VWS V14.01,2013-02-22 17:15:00,
2013-02-22 12:16:00,27.6,24.0,29.93,South,177,0.0,3.0,86,0.00,,,0.00,VWS V14.01,2013-02-22 17:16:00,
2013-02-22 12:17:00,27.6,24.0,29.93,South,177,0.0,3.0,86,0.00,,,0.00,VWS V14.01,2013-02-22 17:17:00,
2013-02-22 12:18:00,27.6,24.0,29.93,South,176,0.0,3.0,86,0.00,,,0.00,VWS V14.01,2013-02-22 17:18:00,
2013-02-22 12:19:00,27.6,24.0,29.93,South,176,0.0,3.0,86,0.00,,,0.00,VWS V14.01,2013-02-22 17:19:00,
2013-02-22 12:20:00,27.6,24.0,29.93,South,176,0.0,3.0,86,0.00,,,0.00,VWS V14.01,2013-02-22 17:20:00,
2013-02-22 12:21:00,27.7,24.1,29.93,South,176,0.0,3.0,86,0.00,,,0.00,VWS V14.01,2013-02-22 17:21:00,
2013-02-22 12:22:00,27.7,24.1,29.93,South,176,0.0,3.0,86,0.00,,,0.00,VWS V14.01,2013-02-22 17:22:00,
2013-02-22 12:23:00,27.8,24.2,29.93,South,176,0.0,3.0,86,0.00,,,0.00,VWS V14.01,2013-02-22 17:23:00,
2013-02-22 12:24:00,27.8,24.2,29.93,West,272,2.0,3.0,86,0.00,,,0.00,VWS V14.01,2013-02-22 17:24:00,
2013-02-22 12:25:00,27.9,24.3,29.93,West,277,0.0,3.0,86,0.00,,,0.00,VWS V14.01,2013-02-22 17:25:00,
2013-02-22 12:26:00,27.9,24.3,29.93,West,279,0.0,3.0,86,0.00,,,0.00,VWS V14.01,2013-02-22 17:26:00,
2013-02-22 12:27:00,27.9,24.3,29.92,West,279,0.0,3.0,86,0.00,,,0.00,VWS V14.01,2013-02-22 17:27:00,
2013-02-22 12:28:00,27.9,24.3,29.92,WSW,250,0.0,3.0,86,0.00,,,0.00,VWS V14.01,2013-02-22 17:28:00,
2013-02-22 12:29:00,28.0,24.4,29.93,WSW,250,0.0,3.0,86,0.00,,,0.00,VWS V14.01,2013-02-22 17:29:00,
2013-02-22 12:30:00,28.0,24.4,29.92,WSW,250,0.0,3.0,86,0.00,,,0.00,VWS V14.01,2013-02-22 17:30:00,
2013-02-22 12:31:00,28.0,24.4,29.92,WSW,250,0.0,0.0,86,0.00,,,0.00,VWS V14.01,2013-02-22 17:31:00,
2013-02-22 12:32:00,28.1,24.5,29.92,SW,227,2.0,2.0,86,0.00,,,0.00,VWS V14.01,2013-02-22 17:32:00,
2013-02-22 12:33:00,28.0,24.4,29.92,SW,224,0.0,2.0,86,0.00,,,0.00,VWS V14.01,2013-02-22 17:33:00,
2013-02-22 12:34:00,28.0,24.4,29.92,SW,224,0.0,2.0,86,0.00,,,0.00,VWS V14.01,2013-02-22 17:34:00,
2013-02-22 12:35:00,28.1,24.5,29.92,SW,224,2.0,2.0,86,0.00,,,0.00,VWS V14.01,2013-02-22 17:35:00,
2013-02-22 12:36:00,28.0,24.4,29.92,SW,223,0.0,2.0,86,0.00,,,0.00,VWS V14.01,2013-02-22 17:36:00,
2013-02-22 12:37:00,28.1,24.5,29.92,SW,223,0.0,2.0,86,0.00,,,0.00,VWS V14.01,2013-02-22 17:37:00,
2013-02-22 12:38:00,28.0,24.4,29.92,SW,224,0.0,2.0,86,0.00,,,0.00,VWS V14.01,2013-02-22 17:38:00,
2013-02-22 12:39:00,28.1,24.5,29.92,SW,223,0.0,2.0,86,0.00,,,0.00,VWS V14.01,2013-02-22 17:39:00,
2013-02-22 12:40:00,28.1,24.5,29.92,SW,223,0.0,2.0,86,0.00,,,0.00,VWS V14.01,2013-02-22 17:40:00,
2013-02-22 12:41:00,28.1,24.5,29.92,SW,224,0.0,2.0,86,0.00,,,0.00,VWS V14.01,2013-02-22 17:41:00,
2013-02-22 12:42:00,28.1,24.5,29.92,SW,223,0.0,2.0,86,0.00,,,0.00,VWS V14.01,2013-02-22 17:42:00,
2013-02-22 12:43:00,28.2,24.6,29.92,SW,224,0.0,2.0,86,0.00,,,0.00,VWS V14.01,2013-02-22 17:43:00,
2013-02-22 12:44:00,28.2,24.6,29.92,SW,223,0.0,2.0,86,0.00,,,0.00,VWS V14.01,2013-02-22 17:44:00,
2013-02-22 12:45:00,28.2,24.6,29.92,SW,223,0.0,2.0,86,0.00,,,0.00,VWS V14.01,2013-02-22 17:45:00,
2013-02-22 12:46:00,28.2,24.6,29.92,SW,223,0.0,2.0,86,0.00,,,0.00,VWS V14.01,2013-02-22 17:46:00,
2013-02-22 12:47:00,28.2,24.6,29.91,SW,224,1.0,2.0,86,0.00,,,0.00,VWS V14.01,2013-02-22 17:47:00,
2013-02-22 12:48:00,28.2,24.6,29.91,SW,223,0.0,2.0,86,0.00,,,0.00,VWS V14.01,2013-02-22 17:48:00,
2013-02-22 12:49:00,28.2,24.6,29.91,SW,223,0.0,2.0,86,0.00,,,0.00,VWS V14.01,2013-02-22 17:49:00,
2013-02-22 12:50:00,28.3,24.7,29.91,SW,223,0.0,2.0,86,0.00,,,0.00,VWS V14.01,2013-02-22 17:50:00,
2013-02-22 12:51:00,28.3,24.7,29.91,SW,223,0.0,2.0,86,0.00,,,0.00,VWS V14.01,2013-02-22 17:51:00,
2013-02-22 12:52:00,28.3,24.7,29.91,SW,215,1.0,2.0,86,0.00,,,0.00,VWS V14.01,2013-02-22 17:52:00,
2013-02-22 12:53:00,28.3,24.7,29.91,SW,216,0.0,2.0,86,0.00,,,0.00,VWS V14.01,2013-02-22 17:53:00,
2013-02-22 12:54:00,28.3,24.7,29.91,SW,216,0.0,2.0,86,0.00,,,0.00,VWS V14.01,2013-02-22 17:54:00,
2013-02-22 12:55:00,28.3,24.7,29.91,SW,216,0.0,2.0,86,0.00,,,0.00,VWS V14.01,2013-02-22 17:55:00,
2013-02-22 12:56:00,28.3,24.7,29.91,SW,216,0.0,2.0,86,0.00,,,0.00,VWS V14.01,2013-02-22 17:56:00,
2013-02-22 12:57:00,28.3,24.7,29.91,SW,216,0.0,2.0,86,0.00,,,0.00,VWS V14.01,2013-02-22 17:57:00,
2013-02-22 12:58:00,28.3,24.7,29.91,SW,215,2.0,2.0,86,0.00,,,0.00,VWS V14.01,2013-02-22 17:58:00,
2013-02-22 12:59:00,28.3,24.7,29.91,South,171,0.0,4.0,86,0.00,,,0.00,VWS V14.01,2013-02-22 17:59:00,
2013-02-22 13:00:00,28.2,24.6,29.91,South,171,0.0,4.0,86,0.00,,,0.00,VWS V14.01,2013-02-22 18:00:00,
2013-02-22 13:01:00,28.2,24.6,29.91,South,171,0.0,0.0,86,0.00,,,0.00,VWS V14.01,2013-02-22 18:01:00,
2013-02-22 13:02:00,28.3,24.7,29.91,South,171,1.0,1.0,86,0.00,,,0.00,VWS V14.01,2013-02-22 18:02:00,
2013-02-22 13:03:00,28.3,24.9,29.90,South,171,1.0,1.0,87,0.00,,,0.00,VWS V14.01,2013-02-22 18:03:00,
2013-02-22 13:04:00,28.3,24.9,29.90,South,171,0.0,1.0,87,0.00,,,0.00,VWS V14.01,2013-02-22 18:04:00,
2013-02-22 13:05:00,28.3,24.9,29.91,South,171,0.0,2.0,87,0.00,,,0.00,VWS V14.01,2013-02-22 18:05:00,
2013-02-22 13:06:00,28.3,24.9,29.90,South,171,1.0,2.0,87,0.00,,,0.00,VWS V14.01,2013-02-22 18:06:00,
2013-02-22 13:07:00,28.3,24.9,29.90,South,171,1.0,2.0,87,0.00,,,0.00,VWS V14.01,2013-02-22 18:07:00,
2013-02-22 13:08:00,28.3,24.9,29.91,South,171,1.0,2.0,87,0.00,,,0.00,VWS V14.01,2013-02-22 18:08:00,
2013-02-22 13:09:00,28.3,24.9,29.91,South,171,1.0,2.0,87,0.00,,,0.00,VWS V14.01,2013-02-22 18:09:00,
2013-02-22 13:10:00,28.4,25.0,29.90,South,171,1.0,2.0,87,0.00,,,0.00,VWS V14.01,2013-02-22 18:10:00,
2013-02-22 13:11:00,28.3,24.9,29.91,South,171,0.0,2.0,87,0.00,,,0.00,VWS V14.01,2013-02-22 18:11:00,
2013-02-22 13:12:00,28.3,24.9,29.91,South,171,0.0,2.0,87,0.00,,,0.00,VWS V14.01,2013-02-22 18:12:00,
2013-02-22 13:13:00,28.3,24.9,29.91,South,171,0.0,2.0,87,0.00,,,0.00,VWS V14.01,2013-02-22 18:13:00,
2013-02-22 13:14:00,28.3,24.9,29.90,South,171,0.0,2.0,87,0.00,,,0.00,VWS V14.01,2013-02-22 18:14:00,
2013-02-22 13:15:00,28.3,24.9,29.90,South,171,0.0,2.0,87,0.00,,,0.00,VWS V14.01,2013-02-22 18:15:00,
2013-02-22 13:16:00,28.3,24.9,29.91,South,171,0.0,2.0,87,0.00,,,0.00,VWS V14.01,2013-02-22 18:16:00,
2013-02-22 13:17:00,28.4,25.0,29.91,South,171,0.0,2.0,87,0.00,,,0.00,VWS V14.01,2013-02-22 18:17:00,
2013-02-22 13:18:00,28.3,24.9,29.91,South,169,0.0,2.0,87,0.00,,,0.00,VWS V14.01,2013-02-22 18:18:00,
2013-02-22 13:19:00,28.4,25.0,29.91,South,169,0.0,2.0,87,0.00,,,0.00,VWS V14.01,2013-02-22 18:19:00,
2013-02-22 13:20:00,28.4,25.0,29.91,South,169,0.0,2.0,87,0.00,,,0.00,VWS V14.01,2013-02-22 18:20:00,
2013-02-22 13:21:00,28.4,25.0,29.90,South,169,0.0,2.0,87,0.00,,,0.00,VWS V14.01,2013-02-22 18:21:00,
2013-02-22 13:22:00,28.4,25.0,29.90,South,169,0.0,2.0,87,0.00,,,0.00,VWS V14.01,2013-02-22 18:22:00,
2013-02-22 13:23:00,28.4,25.0,29.91,South,169,0.0,2.0,87,0.00,,,0.00,VWS V14.01,2013-02-22 18:23:00,
2013-02-22 13:24:00,28.4,25.0,29.91,South,169,0.0,2.0,87,0.00,,,0.00,VWS V14.01,2013-02-22 18:24:00,
2013-02-22 13:25:00,28.4,25.0,29.91,South,169,0.0,2.0,87,0.00,,,0.00,VWS V14.01,2013-02-22 18:25:00,
2013-02-22 13:26:00,28.4,25.0,29.91,South,169,0.0,2.0,87,0.00,,,0.00,VWS V14.01,2013-02-22 18:26:00,
2013-02-22 13:27:00,28.5,25.1,29.91,South,169,0.0,2.0,87,0.00,,,0.00,VWS V14.01,2013-02-22 18:27:00,
2013-02-22 13:28:00,28.5,25.1,29.90,SSE,168,0.0,2.0,87,0.00,,,0.00,VWS V14.01,2013-02-22 18:28:00,
2013-02-22 13:29:00,28.5,25.1,29.90,SSE,168,0.0,2.0,87,0.00,,,0.00,VWS V14.01,2013-02-22 18:29:00,
2013-02-22 13:30:00,28.5,25.1,29.90,South,169,0.0,2.0,87,0.00,,,0.00,VWS V14.01,2013-02-22 18:30:00,
2013-02-22 13:31:00,28.5,25.1,29.90,South,169,1.0,1.0,87,0.00,,,0.00,VWS V14.01,2013-02-22 18:31:00,
2013-02-22 13:32:00,28.5,25.1,29.90,South,169,1.0,2.0,87,0.00,,,0.00,VWS V14.01,2013-02-22 18:32:00,
2013-02-22 13:33:00,28.5,25.1,29.90,SSE,168,0.0,2.0,87,0.00,,,0.00,VWS V14.01,2013-02-22 18:33:00,
2013-02-22 13:34:00,28.5,25.1,29.90,South,169,0.0,2.0,87,0.00,,,0.00,VWS V14.01,2013-02-22 18:34:00,
2013-02-22 13:35:00,28.5,25.1,29.90,South,169,0.0,2.0,87,0.00,,,0.00,VWS V14.01,2013-02-22 18:35:00,
2013-02-22 13:36:00,28.5,25.1,29.90,South,169,0.0,2.0,87,0.00,,,0.00,VWS V14.01,2013-02-22 18:36:00,
2013-02-22 13:37:00,28.5,25.1,29.90,South,169,1.0,2.0,87,0.00,,,0.00,VWS V14.01,2013-02-22 18:37:00,
2013-02-22 13:38:00,28.6,25.2,29.90,South,169,0.0,2.0,87,0.00,,,0.00,VWS V14.01,2013-02-22 18:38:00,
2013-02-22 13:39:00,28.6,25.2,29.90,South,169,0.0,2.0,87,0.00,,,0.00,VWS V14.01,2013-02-22 18:39:00,
2013-02-22 13:40:00,28.6,25.2,29.90,SSE,168,0.0,2.0,87,0.00,,,0.00,VWS V14.01,2013-02-22 18:40:00,
2013-02-22 13:41:00,28.6,25.2,29.90,South,169,0.0,2.0,87,0.00,,,0.00,VWS V14.01,2013-02-22 18:41:00,
2013-02-22 13:42:00,28.7,25.3,29.90,SSE,168,0.0,2.0,87,0.00,,,0.00,VWS V14.01,2013-02-22 18:42:00,
2013-02-22 13:43:00,28.7,25.3,29.90,South,169,0.0,2.0,87,0.00,,,0.00,VWS V14.01,2013-02-22 18:43:00,
2013-02-22 13:44:00,28.7,25.3,29.90,South,169,0.0,2.0,87,0.00,,,0.00,VWS V14.01,2013-02-22 18:44:00,
2013-02-22 13:45:00,28.7,25.3,29.90,SSE,168,0.0,2.0,87,0.00,,,0.00,VWS V14.01,2013-02-22 18:45:00,
2013-02-22 13:46:00,28.7,25.3,29.90,SSE,168,0.0,2.0,87,0.00,,,0.00,VWS V14.01,2013-02-22 18:46:00,
2013-02-22 13:47:00,28.8,25.7,29.90,SSE,168,0.0,2.0,88,0.00,,,0.00,VWS V14.01,2013-02-22 18:47:00,
2013-02-22 13:48:00,28.8,25.7,29.90,SSE,168,0.0,2.0,88,0.00,,,0.00,VWS V14.01,2013-02-22 18:48:00,
2013-02-22 13:49:00,28.8,25.7,29.90,South,169,0.0,2.0,88,0.00,,,0.00,VWS V14.01,2013-02-22 18:49:00,
2013-02-22 13:50:00,28.8,25.4,29.90,SSE,168,0.0,2.0,87,0.00,,,0.00,VWS V14.01,2013-02-22 18:50:00,
2013-02-22 13:51:00,28.8,25.7,29.90,SSE,168,0.0,2.0,88,0.00,,,0.00,VWS V14.01,2013-02-22 18:51:00,
2013-02-22 13:52:00,28.8,25.7,29.90,SSE,168,0.0,2.0,88,0.00,,,0.00,VWS V14.01,2013-02-22 18:52:00,
2013-02-22 13:53:00,28.9,25.8,29.90,SSE,168,0.0,2.0,88,0.00,,,0.00,VWS V14.01,2013-02-22 18:53:00,
2013-02-22 13:54:00,28.9,25.8,29.90,SSE,168,0.0,2.0,88,0.00,,,0.00,VWS V14.01,2013-02-22 18:54:00,
2013-02-22 13:55:00,28.9,25.8,29.90,South,169,0.0,2.0,88,0.00,,,0.00,VWS V14.01,2013-02-22 18:55:00,
2013-02-22 13:56:00,28.9,25.8,29.90,South,169,0.0,2.0,88,0.00,,,0.00,VWS V14.01,2013-02-22 18:56:00,
2013-02-22 13:57:00,28.9,25.8,29.90,South,169,0.0,2.0,88,0.00,,,0.00,VWS V14.01,2013-02-22 18:57:00,
2013-02-22 13:58:00,28.9,25.8,29.90,South,169,0.0,2.0,88,0.00,,,0.00,VWS V14.01,2013-02-22 18:58:00,
2013-02-22 13:59:00,28.9,25.8,29.90,South,169,0.0,2.0,88,0.00,,,0.00,VWS V14.01,2013-02-22 18:59:00,
2013-02-22 14:00:00,28.9,25.8,29.90,South,169,0.0,2.0,88,0.00,,,0.00,VWS V14.01,2013-02-22 19:00:00,
2013-02-22 14:01:00,29.0,25.9,29.90,South,169,0.0,0.0,88,0.00,,,0.00,VWS V14.01,2013-02-22 19:01:00,
2013-02-22 14:02:00,29.0,25.9,29.90,South,169,0.0,0.0,88,0.00,,,0.00,VWS V14.01,2013-02-22 19:02:00,
2013-02-22 14:03:00,29.0,25.9,29.89,SSE,168,0.0,0.0,88,0.00,,,0.00,VWS V14.01,2013-02-22 19:03:00,
2013-02-22 14:04:00,29.0,25.9,29.89,South,169,0.0,0.0,88,0.00,,,0.00,VWS V14.01,2013-02-22 19:04:00,
2013-02-22 14:05:00,29.0,25.9,29.90,South,169,0.0,0.0,88,0.00,,,0.00,VWS V14.01,2013-02-22 19:05:00,
2013-02-22 14:06:00,29.0,25.9,29.90,South,169,0.0,0.0,88,0.00,,,0.00,VWS V14.01,2013-02-22 19:06:00,
2013-02-22 14:07:00,29.1,26.0,29.90,South,169,0.0,0.0,88,0.00,,,0.00,VWS V14.01,2013-02-22 19:07:00,
2013-02-22 14:08:00,29.1,26.0,29.90,SSE,168,0.0,0.0,88,0.00,,,0.00,VWS V14.01,2013-02-22 19:08:00,
2013-02-22 14:09:00,29.1,26.0,29.90,South,169,0.0,0.0,88,0.00,,,0.00,VWS V14.01,2013-02-22 19:09:00,
2013-02-22 14:10:00,29.1,26.0,29.90,South,169,0.0,0.0,88,0.00,,,0.00,VWS V14.01,2013-02-22 19:10:00,
2013-02-22 14:11:00,29.2,26.1,29.90,South,169,0.0,0.0,88,0.00,,,0.00,VWS V14.01,2013-02-22 19:11:00,
2013-02-22 14:12:00,29.1,26.0,29.90,South,169,0.0,0.0,88,0.00,,,0.00,VWS V14.01,2013-02-22 19:12:00,
2013-02-22 14:13:00,29.2,26.1,29.90,South,169,0.0,0.0,88,0.00,,,0.00,VWS V14.01,2013-02-22 19:13:00,
2013-02-22 14:14:00,29.2,26.1,29.90,South,169,0.0,1.0,88,0.00,,,0.00,VWS V14.01,2013-02-22 19:14:00,
2013-02-22 14:15:00,29.2,26.1,29.90,South,169,0.0,1.0,88,0.00,,,0.00,VWS V14.01,2013-02-22 19:15:00,
2013-02-22 14:16:00,29.2,26.1,29.90,SSE,168,0.0,1.0,88,0.00,,,0.00,VWS V14.01,2013-02-22 19:16:00,
2013-02-22 14:17:00,29.2,26.1,29.90,South,169,0.0,1.0,88,0.00,,,0.00,VWS V14.01,2013-02-22 19:17:00,
2013-02-22 14:18:00,29.2,26.1,29.90,South,169,0.0,1.0,88,0.00,,,0.00,VWS V14.01,2013-02-22 19:18:00,
2013-02-22 14:19:00,29.3,26.2,29.90,South,169,0.0,1.0,88,0.00,,,0.00,VWS V14.01,2013-02-22 19:19:00,
2013-02-22 14:20:00,29.3,26.2,29.90,South,169,0.0,1.0,88,0.00,,,0.00,VWS V14.01,2013-02-22 19:20:00,
2013-02-22 14:21:00,29.4,26.3,29.90,South,169,0.0,1.0,88,0.00,,,0.00,VWS V14.01,2013-02-22 19:21:00,
2013-02-22 14:22:00,29.4,26.3,29.90,SSE,168,0.0,1.0,88,0.00,,,0.00,VWS V14.01,2013-02-22 19:22:00,
2013-02-22 14:23:00,29.4,26.3,29.90,South,169,0.0,1.0,88,0.00,,,0.00,VWS V14.01,2013-02-22 19:23:00,
2013-02-22 14:24:00,29.4,26.3,29.90,South,169,0.0,1.0,88,0.00,,,0.00,VWS V14.01,2013-02-22 19:24:00,
2013-02-22 14:25:00,29.5,26.4,29.90,South,169,0.0,1.0,88,0.00,,,0.00,VWS V14.01,2013-02-22 19:25:00,
2013-02-22 14:26:00,29.5,26.4,29.90,South,169,0.0,1.0,88,0.00,,,0.00,VWS V14.01,2013-02-22 19:26:00,
2013-02-22 14:27:00,29.5,26.4,29.90,South,169,0.0,1.0,88,0.00,,,0.00,VWS V14.01,2013-02-22 19:27:00,
2013-02-22 14:28:00,29.6,26.5,29.90,South,169,0.0,1.0,88,0.00,,,0.00,VWS V14.01,2013-02-22 19:28:00,
2013-02-22 14:29:00,29.6,26.5,29.90,South,169,0.0,1.0,88,0.00,,,0.00,VWS V14.01,2013-02-22 19:29:00,
2013-02-22 14:30:00,29.6,26.5,29.90,South,169,0.0,1.0,88,0.00,,,0.00,VWS V14.01,2013-02-22 19:30:00,
2013-02-22 14:31:00,29.6,26.5,29.90,South,169,0.0,1.0,88,0.00,,,0.00,VWS V14.01,2013-02-22 19:31:00,
2013-02-22 14:32:00,29.6,26.5,29.90,South,169,0.0,1.0,88,0.00,,,0.00,VWS V14.01,2013-02-22 19:32:00,
2013-02-22 14:33:00,29.6,26.5,29.90,SSE,168,0.0,1.0,88,0.00,,,0.00,VWS V14.01,2013-02-22 19:33:00,
2013-02-22 14:34:00,29.6,26.5,29.90,South,169,0.0,1.0,88,0.00,,,0.00,VWS V14.01,2013-02-22 19:34:00,
2013-02-22 14:35:00,29.6,26.5,29.90,South,169,1.0,1.0,88,0.00,,,0.00,VWS V14.01,2013-02-22 19:35:00,
2013-02-22 14:36:00,29.6,26.5,29.90,South,169,0.0,1.0,88,0.00,,,0.00,VWS V14.01,2013-02-22 19:36:00,
2013-02-22 14:37:00,29.7,26.6,29.89,South,169,0.0,1.0,88,0.00,,,0.00,VWS V14.01,2013-02-22 19:37:00,
2013-02-22 14:38:00,29.7,26.6,29.89,SSE,168,0.0,1.0,88,0.00,,,0.00,VWS V14.01,2013-02-22 19:38:00,
2013-02-22 14:39:00,29.7,26.6,29.89,South,169,0.0,1.0,88,0.00,,,0.00,VWS V14.01,2013-02-22 19:39:00,
2013-02-22 14:40:00,29.8,26.7,29.89,South,169,1.0,1.0,88,0.00,,,0.00,VWS V14.01,2013-02-22 19:40:00,
2013-02-22 14:41:00,29.8,26.7,29.89,SSE,168,0.0,1.0,88,0.00,,,0.00,VWS V14.01,2013-02-22 19:41:00,
2013-02-22 14:42:00,29.8,26.7,29.89,South,169,0.0,1.0,88,0.00,,,0.00,VWS V14.01,2013-02-22 19:42:00,
2013-02-22 14:43:00,29.8,26.7,29.89,South,169,0.0,1.0,88,0.00,,,0.00,VWS V14.01,2013-02-22 19:43:00,
2013-02-22 14:44:00,29.8,26.7,29.89,SSE,168,0.0,1.0,88,0.00,,,0.00,VWS V14.01,2013-02-22 19:44:00,
2013-02-22 14:45:00,29.9,26.8,29.90,SSE,168,0.0,1.0,88,0.00,,,0.00,VWS V14.01,2013-02-22 19:45:00,
2013-02-22 14:46:00,29.9,26.8,29.89,South,169,0.0,1.0,88,0.00,,,0.00,VWS V14.01,2013-02-22 19:46:00,
2013-02-22 14:47:00,29.9,26.8,29.89,SSE,168,0.0,1.0,88,0.00,,,0.00,VWS V14.01,2013-02-22 19:47:00,
2013-02-22 14:48:00,29.9,26.8,29.89,South,169,0.0,1.0,88,0.00,,,0.00,VWS V14.01,2013-02-22 19:48:00,
2013-02-22 14:49:00,30.0,26.9,29.89,South,169,0.0,1.0,88,0.00,,,0.00,VWS V14.01,2013-02-22 19:49:00,
2013-02-22 14:50:00,30.0,26.9,29.89,South,169,0.0,1.0,88,0.00,,,0.00,VWS V14.01,2013-02-22 19:50:00,
2013-02-22 14:51:00,30.1,27.0,29.90,South,169,1.0,1.0,88,0.00,,,0.00,VWS V14.01,2013-02-22 19:51:00,
2013-02-22 14:52:00,30.1,27.0,29.89,SSE,168,1.0,2.0,88,0.00,,,0.00,VWS V14.01,2013-02-22 19:52:00,
2013-02-22 14:53:00,30.1,27.0,29.89,South,169,0.0,2.0,88,0.00,,,0.00,VWS V14.01,2013-02-22 19:53:00,
2013-02-22 14:54:00,30.1,27.0,29.90,South,169,0.0,2.0,88,0.00,,,0.00,VWS V14.01,2013-02-22 19:54:00,
2013-02-22 14:55:00,30.1,27.0,29.90,SSE,168,0.0,2.0,88,0.00,,,0.00,VWS V14.01,2013-02-22 19:55:00,
2013-02-22 14:56:00,30.1,27.3,29.90,SSE,168,0.0,2.0,89,0.00,,,0.00,VWS V14.01,2013-02-22 19:56:00,
2013-02-22 14:57:00,30.1,27.3,29.90,South,169,0.0,2.0,89,0.00,,,0.00,VWS V14.01,2013-02-22 19:57:00,
2013-02-22 14:58:00,30.1,27.3,29.89,SSE,168,0.0,2.0,89,0.00,,,0.00,VWS V14.01,2013-02-22 19:58:00,
2013-02-22 14:59:00,30.1,27.3,29.90,South,169,0.0,2.0,89,0.00,,,0.00,VWS V14.01,2013-02-22 19:59:00,
2013-02-22 15:00:00,30.1,27.3,29.89,South,169,0.0,2.0,89,0.00,,,0.00,VWS V14.01,2013-02-22 20:00:00,
2013-02-22 15:01:00,30.2,27.4,29.89,South,169,2.0,2.0,89,0.00,,,0.00,VWS V14.01,2013-02-22 20:01:00,
2013-02-22 15:02:00,30.2,27.4,29.89,South,169,1.0,3.0,89,0.00,,,0.00,VWS V14.01,2013-02-22 20:02:00,
2013-02-22 15:03:00,30.2,27.4,29.89,South,169,1.0,3.0,89,0.00,,,0.00,VWS V14.01,2013-02-22 20:03:00,
2013-02-22 15:04:00,30.2,27.4,29.89,South,169,0.0,3.0,89,0.00,,,0.00,VWS V14.01,2013-02-22 20:04:00,
2013-02-22 15:05:00,30.2,27.4,29.89,South,169,0.0,3.0,89,0.00,,,0.00,VWS V14.01,2013-02-22 20:05:00,
2013-02-22 15:06:00,30.2,27.4,29.89,South,169,0.0,3.0,89,0.00,,,0.00,VWS V14.01,2013-02-22 20:06:00,
2013-02-22 15:07:00,30.2,27.4,29.89,South,169,0.0,3.0,89,0.00,,,0.00,VWS V14.01,2013-02-22 20:07:00,
2013-02-22 15:08:00,30.3,27.5,29.89,South,169,0.0,3.0,89,0.00,,,0.00,VWS V14.01,2013-02-22 20:08:00,
2013-02-22 15:09:00,30.3,27.5,29.89,South,169,0.0,3.0,89,0.00,,,0.00,VWS V14.01,2013-02-22 20:09:00,
2013-02-22 15:10:00,30.3,27.5,29.89,South,169,0.0,3.0,89,0.00,,,0.00,VWS V14.01,2013-02-22 20:10:00,
2013-02-22 15:11:00,30.3,27.5,29.89,SSE,168,0.0,3.0,89,0.00,,,0.00,VWS V14.01,2013-02-22 20:11:00,
2013-02-22 15:12:00,30.3,27.5,29.89,South,169,0.0,3.0,89,0.00,,,0.00,VWS V14.01,2013-02-22 20:12:00,
2013-02-22 15:13:00,30.3,27.5,29.89,SSE,168,0.0,3.0,89,0.00,,,0.00,VWS V14.01,2013-02-22 20:13:00,
2013-02-22 15:14:00,30.3,27.5,29.89,South,169,0.0,3.0,89,0.00,,,0.00,VWS V14.01,2013-02-22 20:14:00,
2013-02-22 15:15:00,30.3,27.5,29.89,South,169,2.0,3.0,89,0.00,,,0.00,VWS V14.01,2013-02-22 20:15:00,
2013-02-22 15:16:00,30.3,27.5,29.89,South,169,1.0,3.0,89,0.00,,,0.00,VWS V14.01,2013-02-22 20:16:00,
2013-02-22 15:17:00,30.3,27.5,29.89,South,169,2.0,3.0,89,0.00,,,0.00,VWS V14.01,2013-02-22 20:17:00,
2013-02-22 15:18:00,30.3,27.5,29.89,South,169,1.0,3.0,89,0.00,,,0.00,VWS V14.01,2013-02-22 20:18:00,
2013-02-22 15:19:00,30.3,27.5,29.89,South,169,1.0,3.0,89,0.00,,,0.00,VWS V14.01,2013-02-22 20:19:00,
2013-02-22 15:20:00,30.3,27.5,29.89,South,169,0.0,3.0,89,0.00,,,0.00,VWS V14.01,2013-02-22 20:20:00,
2013-02-22 15:21:00,30.3,27.5,29.89,SSE,168,0.0,3.0,89,0.00,,,0.00,VWS V14.01,2013-02-22 20:21:00,
2013-02-22 15:22:00,30.3,27.5,29.89,SSE,168,0.0,3.0,89,0.00,,,0.00,VWS V14.01,2013-02-22 20:22:00,
2013-02-22 15:23:00,30.3,27.5,29.89,South,169,1.0,3.0,89,0.00,,,0.00,VWS V14.01,2013-02-22 20:23:00,
2013-02-22 15:24:00,30.3,27.5,29.89,SSE,168,2.0,3.0,89,0.00,,,0.00,VWS V14.01,2013-02-22 20:24:00,
2013-02-22 15:25:00,30.3,27.5,29.89,SSE,168,0.0,3.0,89,0.00,,,0.00,VWS V14.01,2013-02-22 20:25:00,
2013-02-22 15:26:00,30.3,27.5,29.90,South,169,0.0,3.0,89,0.00,,,0.00,VWS V14.01,2013-02-22 20:26:00,
2013-02-22 15:27:00,30.3,27.5,29.90,SSE,168,0.0,3.0,89,0.00,,,0.00,VWS V14.01,2013-02-22 20:27:00,
2013-02-22 15:28:00,30.3,27.5,29.90,South,169,0.0,3.0,89,0.00,,,0.00,VWS V14.01,2013-02-22 20:28:00,
2013-02-22 15:29:00,30.3,27.5,29.90,SSE,168,0.0,3.0,89,0.00,,,0.00,VWS V14.01,2013-02-22 20:29:00,
2013-02-22 15:30:00,30.3,27.5,29.90,SSE,168,0.0,3.0,89,0.00,,,0.00,VWS V14.01,2013-02-22 20:30:00,
2013-02-22 15:31:00,30.3,27.5,29.90,South,169,0.0,1.0,89,0.00,,,0.00,VWS V14.01,2013-02-22 20:31:00,
2013-02-22 15:32:00,30.4,27.5,29.90,South,169,0.0,1.0,89,0.00,,,0.00,VWS V14.01,2013-02-22 20:32:00,
2013-02-22 15:33:00,30.3,27.5,29.90,SSE,168,3.0,3.0,89,0.00,,,0.00,VWS V14.01,2013-02-22 20:33:00,
2013-02-22 15:34:00,30.3,27.5,29.90,SSE,168,2.0,3.0,89,0.00,,,0.00,VWS V14.01,2013-02-22 20:34:00,
2013-02-22 15:35:00,30.3,27.5,29.90,SSE,168,0.0,3.0,89,0.00,,,0.00,VWS V14.01,2013-02-22 20:35:00,
2013-02-22 15:36:00,30.3,27.5,29.89,SSE,168,0.0,3.0,89,0.00,,,0.00,VWS V14.01,2013-02-22 20:36:00,
2013-02-22 15:37:00,30.3,27.5,29.89,SSE,168,0.0,3.0,89,0.00,,,0.00,VWS V14.01,2013-02-22 20:37:00,
2013-02-22 15:38:00,30.3,27.5,29.89,SSE,168,2.0,3.0,89,0.00,,,0.00,VWS V14.01,2013-02-22 20:38:00,
2013-02-22 15:39:00,30.3,27.5,29.89,SSE,168,0.0,3.0,89,0.00,,,0.00,VWS V14.01,2013-02-22 20:39:00,
2013-02-22 15:40:00,30.3,27.5,29.90,South,169,0.0,3.0,89,0.00,,,0.00,VWS V14.01,2013-02-22 20:40:00,
2013-02-22 15:41:00,30.3,27.5,29.90,South,169,0.0,3.0,89,0.00,,,0.00,VWS V14.01,2013-02-22 20:41:00,
2013-02-22 15:42:00,30.3,27.5,29.89,SSE,168,0.0,3.0,89,0.00,,,0.00,VWS V14.01,2013-02-22 20:42:00,
2013-02-22 15:43:00,30.3,27.5,29.89,SSE,168,0.0,3.0,89,0.00,,,0.00,VWS V14.01,2013-02-22 20:43:00,
2013-02-22 15:44:00,30.3,27.5,29.89,South,169,0.0,3.0,89,0.00,,,0.00,VWS V14.01,2013-02-22 20:44:00,
2013-02-22 15:45:00,30.3,27.5,29.89,South,169,0.0,3.0,89,0.00,,,0.00,VWS V14.01,2013-02-22 20:45:00,
2013-02-22 15:46:00,30.4,27.5,29.89,South,169,0.0,3.0,89,0.00,,,0.00,VWS V14.01,2013-02-22 20:46:00,
2013-02-22 15:47:00,30.4,27.5,29.89,South,169,0.0,3.0,89,0.00,,,0.00,VWS V14.01,2013-02-22 20:47:00,
2013-02-22 15:48:00,30.3,27.5,29.89,SSE,168,0.0,3.0,89,0.00,,,0.00,VWS V14.01,2013-02-22 20:48:00,
2013-02-22 15:49:00,30.4,27.5,29.89,South,169,0.0,3.0,89,0.00,,,0.00,VWS V14.01,2013-02-22 20:49:00,
2013-02-22 15:50:00,30.4,27.5,29.89,South,169,0.0,3.0,89,0.00,,,0.00,VWS V14.01,2013-02-22 20:50:00,
2013-02-22 15:51:00,30.4,27.5,29.89,South,169,0.0,3.0,89,0.00,,,0.00,VWS V14.01,2013-02-22 20:51:00,
2013-02-22 15:52:00,30.4,27.5,29.89,South,169,0.0,3.0,89,0.00,,,0.00,VWS V14.01,2013-02-22 20:52:00,
2013-02-22 15:53:00,30.5,27.6,29.89,South,169,0.0,3.0,89,0.00,,,0.00,VWS V14.01,2013-02-22 20:53:00,
2013-02-22 15:54:00,30.4,27.5,29.89,SSE,168,0.0,3.0,89,0.00,,,0.00,VWS V14.01,2013-02-22 20:54:00,
2013-02-22 15:55:00,30.5,27.6,29.89,SSE,168,0.0,3.0,89,0.00,,,0.00,VWS V14.01,2013-02-22 20:55:00,
2013-02-22 15:56:00,30.5,27.6,29.89,South,169,0.0,3.0,89,0.00,,,0.00,VWS V14.01,2013-02-22 20:56:00,
2013-02-22 15:57:00,30.5,27.6,29.89,South,169,0.0,3.0,89,0.00,,,0.00,VWS V14.01,2013-02-22 20:57:00,
2013-02-22 15:58:00,30.5,27.6,29.89,South,169,0.0,3.0,89,0.00,,,0.00,VWS V14.01,2013-02-22 20:58:00,
2013-02-22 15:59:00,30.5,27.6,29.89,South,169,0.0,3.0,89,0.00,,,0.00,VWS V14.01,2013-02-22 20:59:00,
2013-02-22 16:00:00,30.5,27.6,29.89,SSE,168,0.0,3.0,89,0.00,,,0.00,VWS V14.01,2013-02-22 21:00:00,
2013-02-22 16:01:00,30.5,27.6,29.89,South,169,0.0,0.0,89,0.00,,,0.00,VWS V14.01,2013-02-22 21:01:00,
2013-02-22 16:02:00,30.5,27.6,29.89,South,169,0.0,0.0,89,0.00,,,0.00,VWS V14.01,2013-02-22 21:02:00,
2013-02-22 16:03:00,30.5,27.6,29.89,South,169,0.0,0.0,89,0.00,,,0.00,VWS V14.01,2013-02-22 21:03:00,
2013-02-22 16:04:00,30.6,27.8,29.89,South,169,0.0,0.0,89,0.00,,,0.00,VWS V14.01,2013-02-22 21:04:00,
2013-02-22 16:05:00,30.6,27.8,29.89,South,169,0.0,0.0,89,0.00,,,0.00,VWS V14.01,2013-02-22 21:05:00,
2013-02-22 16:06:00,30.6,27.8,29.89,South,169,0.0,0.0,89,0.00,,,0.00,VWS V14.01,2013-02-22 21:06:00,
2013-02-22 16:07:00,30.6,27.8,29.89,South,169,0.0,1.0,89,0.00,,,0.00,VWS V14.01,2013-02-22 21:07:00,
2013-02-22 16:08:00,30.6,27.8,29.89,South,169,2.0,2.0,89,0.00,,,0.00,VWS V14.01,2013-02-22 21:08:00,
2013-02-22 16:09:00,30.6,27.8,29.89,South,169,0.0,2.0,89,0.00,,,0.00,VWS V14.01,2013-02-22 21:09:00,
2013-02-22 16:10:00,30.6,27.8,29.89,South,169,0.0,2.0,89,0.00,,,0.00,VWS V14.01,2013-02-22 21:10:00,
2013-02-22 16:11:00,30.6,27.8,29.89,South,169,0.0,2.0,89,0.00,,,0.00,VWS V14.01,2013-02-22 21:11:00,
2013-02-22 16:12:00,30.6,27.8,29.89,South,169,0.0,2.0,89,0.00,,,0.00,VWS V14.01,2013-02-22 21:12:00,
2013-02-22 16:13:00,30.7,27.9,29.89,SSE,168,2.0,2.0,89,0.00,,,0.00,VWS V14.01,2013-02-22 21:13:00,
2013-02-22 16:14:00,30.7,27.9,29.89,SSE,168,0.0,2.0,89,0.00,,,0.00,VWS V14.01,2013-02-22 21:14:00,
2013-02-22 16:15:00,30.7,27.9,29.89,South,169,0.0,2.0,89,0.00,,,0.00,VWS V14.01,2013-02-22 21:15:00,
2013-02-22 16:16:00,30.7,27.9,29.89,South,169,0.0,2.0,89,0.00,,,0.00,VWS V14.01,2013-02-22 21:16:00,
2013-02-22 16:17:00,30.7,27.9,29.89,South,169,0.0,2.0,89,0.00,,,0.00,VWS V14.01,2013-02-22 21:17:00,
2013-02-22 16:18:00,30.7,27.9,29.89,South,169,0.0,2.0,89,0.00,,,0.00,VWS V14.01,2013-02-22 21:18:00,
2013-02-22 16:19:00,30.7,27.9,29.89,SSE,168,0.0,2.0,89,0.00,,,0.00,VWS V14.01,2013-02-22 21:19:00,
2013-02-22 16:20:00,30.7,27.9,29.89,South,169,0.0,2.0,89,0.00,,,0.00,VWS V14.01,2013-02-22 21:20:00,
2013-02-22 16:21:00,30.7,27.9,29.89,SSE,168,0.0,2.0,89,0.00,,,0.00,VWS V14.01,2013-02-22 21:21:00,
2013-02-22 16:22:00,30.7,27.9,29.89,South,169,0.0,2.0,89,0.00,,,0.00,VWS V14.01,2013-02-22 21:22:00,
2013-02-22 16:23:00,30.7,27.9,29.89,South,169,2.0,2.0,89,0.00,,,0.00,VWS V14.01,2013-02-22 21:23:00,
2013-02-22 16:24:00,30.7,27.9,29.89,SSE,168,0.0,2.0,89,0.00,,,0.00,VWS V14.01,2013-02-22 21:24:00,
2013-02-22 16:25:00,30.8,28.0,29.89,SSE,168,0.0,2.0,89,0.00,,,0.00,VWS V14.01,2013-02-22 21:25:00,
2013-02-22 16:26:00,30.7,27.9,29.89,South,169,0.0,2.0,89,0.00,,,0.00,VWS V14.01,2013-02-22 21:26:00,
2013-02-22 16:27:00,30.8,28.0,29.89,South,169,0.0,2.0,89,0.00,,,0.00,VWS V14.01,2013-02-22 21:27:00,
2013-02-22 16:28:00,30.7,27.9,29.89,South,169,0.0,2.0,89,0.00,,,0.00,VWS V14.01,2013-02-22 21:28:00,
2013-02-22 16:29:00,30.8,28.0,29.89,SSE,168,0.0,2.0,89,0.00,,,0.00,VWS V14.01,2013-02-22 21:29:00,
2013-02-22 16:30:00,30.8,28.0,29.89,South,169,0.0,2.0,89,0.00,,,0.00,VWS V14.01,2013-02-22 21:30:00,
2013-02-22 16:31:00,30.8,28.0,29.89,South,169,0.0,1.0,89,0.00,,,0.00,VWS V14.01,2013-02-22 21:31:00,
2013-02-22 16:32:00,30.7,27.9,29.89,South,169,2.0,2.0,89,0.00,,,0.00,VWS V14.01,2013-02-22 21:32:00,
2013-02-22 16:33:00,30.8,28.0,29.89,South,169,0.0,2.0,89,0.00,,,0.00,VWS V14.01,2013-02-22 21:33:00,
2013-02-22 16:34:00,30.8,28.0,29.89,South,169,1.0,2.0,89,0.00,,,0.00,VWS V14.01,2013-02-22 21:34:00,
2013-02-22 16:35:00,30.8,28.0,29.89,SSE,168,0.0,2.0,89,0.00,,,0.00,VWS V14.01,2013-02-22 21:35:00,
2013-02-22 16:36:00,30.8,28.0,29.89,SSE,168,0.0,2.0,89,0.00,,,0.00,VWS V14.01,2013-02-22 21:36:00,
2013-02-22 16:37:00,30.8,28.0,29.89,South,169,0.0,2.0,89,0.00,,,0.00,VWS V14.01,2013-02-22 21:37:00,
2013-02-22 16:38:00,30.8,28.0,29.89,South,169,0.0,2.0,89,0.00,,,0.00,VWS V14.01,2013-02-22 21:38:00,
2013-02-22 16:39:00,30.8,28.2,29.89,South,169,0.0,2.0,90,0.00,,,0.00,VWS V14.01,2013-02-22 21:39:00,
2013-02-22 16:40:00,30.8,28.2,29.89,South,169,0.0,2.0,90,0.00,,,0.00,VWS V14.01,2013-02-22 21:40:00,
2013-02-22 16:41:00,30.8,28.2,29.89,South,169,0.0,2.0,90,0.00,,,0.00,VWS V14.01,2013-02-22 21:41:00,
2013-02-22 16:42:00,30.8,28.2,29.89,SSE,168,0.0,3.0,90,0.00,,,0.00,VWS V14.01,2013-02-22 21:42:00,
2013-02-22 16:43:00,30.8,28.2,29.89,SSE,168,0.0,3.0,90,0.00,,,0.00,VWS V14.01,2013-02-22 21:43:00,
2013-02-22 16:44:00,30.8,28.2,29.89,South,169,0.0,3.0,90,0.00,,,0.00,VWS V14.01,2013-02-22 21:44:00,
2013-02-22 16:45:00,30.8,28.2,29.89,South,169,0.0,3.0,90,0.00,,,0.00,VWS V14.01,2013-02-22 21:45:00,
2013-02-22 16:46:00,30.8,28.2,29.89,South,169,0.0,3.0,90,0.00,,,0.00,VWS V14.01,2013-02-22 21:46:00,
2013-02-22 16:47:00,30.9,28.3,29.89,SSE,165,1.0,3.0,90,0.00,,,0.00,VWS V14.01,2013-02-22 21:47:00,
2013-02-22 16:48:00,30.8,28.2,29.89,SSE,166,0.0,3.0,90,0.00,,,0.00,VWS V14.01,2013-02-22 21:48:00,
2013-02-22 16:49:00,30.8,28.2,29.89,SSE,166,0.0,3.0,90,0.00,,,0.00,VWS V14.01,2013-02-22 21:49:00,
2013-02-22 16:50:00,30.9,28.3,29.89,SSE,166,0.0,3.0,90,0.00,,,0.00,VWS V14.01,2013-02-22 21:50:00,
2013-02-22 16:51:00,30.9,28.3,29.89,SSE,166,0.0,3.0,90,0.00,,,0.00,VWS V14.01,2013-02-22 21:51:00,
2013-02-22 16:52:00,30.8,28.2,29.89,SSE,166,0.0,3.0,90,0.00,,,0.00,VWS V14.01,2013-02-22 21:52:00,
2013-02-22 16:53:00,30.9,28.3,29.89,SSE,166,0.0,3.0,90,0.00,,,0.00,VWS V14.01,2013-02-22 21:53:00,
2013-02-22 16:54:00,30.9,28.3,29.89,SSE,166,0.0,3.0,90,0.00,,,0.00,VWS V14.01,2013-02-22 21:54:00,
2013-02-22 16:55:00,30.9,28.3,29.89,SSE,166,0.0,3.0,90,0.00,,,0.00,VWS V14.01,2013-02-22 21:55:00,
2013-02-22 16:56:00,30.9,28.3,29.89,SSE,166,0.0,3.0,90,0.00,,,0.00,VWS V14.01,2013-02-22 21:56:00,
2013-02-22 16:57:00,30.9,28.3,29.89,SSE,166,0.0,3.0,90,0.00,,,0.00,VWS V14.01,2013-02-22 21:57:00,
2013-02-22 16:58:00,30.9,28.3,29.89,SSE,165,0.0,3.0,90,0.00,,,0.00,VWS V14.01,2013-02-22 21:58:00,
2013-02-22 16:59:00,30.9,28.3,29.89,SSE,166,0.0,3.0,90,0.00,,,0.00,VWS V14.01,2013-02-22 21:59:00,
2013-02-22 17:00:00,30.9,28.3,29.89,SSE,165,0.0,3.0,90,0.00,,,0.00,VWS V14.01,2013-02-22 22:00:00,
2013-02-22 17:01:00,30.9,28.3,29.89,SSE,165,1.0,2.0,90,0.00,,,0.00,VWS V14.01,2013-02-22 22:01:00,
2013-02-22 17:02:00,30.9,28.3,29.89,SSE,166,0.0,2.0,90,0.00,,,0.00,VWS V14.01,2013-02-22 22:02:00,
2013-02-22 17:03:00,30.9,28.3,29.89,SSE,166,0.0,2.0,90,0.00,,,0.00,VWS V14.01,2013-02-22 22:03:00,
2013-02-22 17:04:00,31.0,28.4,29.89,SSE,165,0.0,2.0,90,0.00,,,0.00,VWS V14.01,2013-02-22 22:04:00,
2013-02-22 17:05:00,31.0,28.4,29.89,SSE,166,0.0,2.0,90,0.00,,,0.00,VWS V14.01,2013-02-22 22:05:00,
2013-02-22 17:06:00,31.0,28.4,29.89,SSE,165,1.0,2.0,90,0.00,,,0.00,VWS V14.01,2013-02-22 22:06:00,
2013-02-22 17:07:00,31.0,28.4,29.89,SSE,165,2.0,3.0,90,0.00,,,0.00,VWS V14.01,2013-02-22 22:07:00,
2013-02-22 17:08:00,31.0,28.4,29.89,SSE,166,0.0,3.0,90,0.00,,,0.00,VWS V14.01,2013-02-22 22:08:00,
2013-02-22 17:09:00,31.0,28.4,29.89,SSE,166,0.0,3.0,90,0.00,,,0.00,VWS V14.01,2013-02-22 22:09:00,
2013-02-22 17:10:00,31.0,28.4,29.89,SSE,165,0.0,3.0,90,0.00,,,0.00,VWS V14.01,2013-02-22 22:10:00,
2013-02-22 17:11:00,31.0,28.4,29.89,SSE,166,0.0,3.0,90,0.00,,,0.00,VWS V14.01,2013-02-22 22:11:00,
2013-02-22 17:12:00,31.0,28.4,29.89,SSE,166,1.0,3.0,90,0.00,,,0.00,VWS V14.01,2013-02-22 22:12:00,
2013-02-22 17:13:00,31.0,28.4,29.89,SSE,166,1.0,3.0,90,0.00,,,0.00,VWS V14.01,2013-02-22 22:13:00,
2013-02-22 17:14:00,31.0,28.4,29.89,SSE,166,1.0,3.0,90,0.00,,,0.00,VWS V14.01,2013-02-22 22:14:00,
2013-02-22 17:15:00,31.0,28.4,29.89,SSE,166,0.0,3.0,90,0.00,,,0.00,VWS V14.01,2013-02-22 22:15:00,
2013-02-22 17:16:00,31.0,28.4,29.89,SSE,166,0.0,3.0,90,0.00,,,0.00,VWS V14.01,2013-02-22 22:16:00,
2013-02-22 17:17:00,31.1,28.5,29.89,SSE,166,0.0,3.0,90,0.00,,,0.00,VWS V14.01,2013-02-22 22:17:00,
2013-02-22 17:18:00,31.1,28.5,29.89,SSE,166,1.0,3.0,90,0.00,,,0.00,VWS V14.01,2013-02-22 22:18:00,
2013-02-22 17:19:00,31.1,28.5,29.89,SSE,166,0.0,3.0,90,0.00,,,0.00,VWS V14.01,2013-02-22 22:19:00,
2013-02-22 17:20:00,31.1,28.5,29.89,SSE,166,1.0,3.0,90,0.00,,,0.00,VWS V14.01,2013-02-22 22:20:00,
2013-02-22 17:21:00,31.1,28.5,29.90,SSE,166,0.0,3.0,90,0.00,,,0.00,VWS V14.01,2013-02-22 22:21:00,
2013-02-22 17:22:00,31.1,28.5,29.90,SSE,166,0.0,3.0,90,0.00,,,0.00,VWS V14.01,2013-02-22 22:22:00,
2013-02-22 17:23:00,31.1,28.5,29.90,SSE,166,0.0,3.0,90,0.00,,,0.00,VWS V14.01,2013-02-22 22:23:00,
2013-02-22 17:24:00,31.1,28.5,29.90,SSE,165,0.0,3.0,90,0.00,,,0.00,VWS V14.01,2013-02-22 22:24:00,
2013-02-22 17:25:00,31.1,28.5,29.90,SSE,166,1.0,3.0,90,0.00,,,0.00,VWS V14.01,2013-02-22 22:25:00,
2013-02-22 17:26:00,31.1,28.5,29.90,SSE,166,0.0,3.0,90,0.00,,,0.00,VWS V14.01,2013-02-22 22:26:00,
2013-02-22 17:27:00,31.1,28.5,29.90,SSE,165,0.0,3.0,90,0.00,,,0.00,VWS V14.01,2013-02-22 22:27:00,
2013-02-22 17:28:00,31.1,28.5,29.90,SSE,165,0.0,3.0,90,0.00,,,0.00,VWS V14.01,2013-02-22 22:28:00,
2013-02-22 17:29:00,31.1,28.5,29.90,SSE,165,0.0,3.0,90,0.00,,,0.00,VWS V14.01,2013-02-22 22:29:00,
2013-02-22 17:30:00,31.1,28.5,29.90,SSE,166,1.0,3.0,90,0.00,,,0.00,VWS V14.01,2013-02-22 22:30:00,
2013-02-22 17:31:00,31.2,28.6,29.90,SSE,165,0.0,1.0,90,0.00,,,0.00,VWS V14.01,2013-02-22 22:31:00,
2013-02-22 17:32:00,31.2,28.6,29.90,SSE,165,1.0,1.0,90,0.00,,,0.00,VWS V14.01,2013-02-22 22:32:00,
2013-02-22 17:33:00,31.2,28.6,29.90,SSE,166,0.0,1.0,90,0.00,,,0.00,VWS V14.01,2013-02-22 22:33:00,
2013-02-22 17:34:00,31.2,28.6,29.90,SSE,166,0.0,1.0,90,0.00,,,0.00,VWS V14.01,2013-02-22 22:34:00,
2013-02-22 17:35:00,31.2,28.6,29.90,SSE,166,1.0,2.0,90,0.00,,,0.00,VWS V14.01,2013-02-22 22:35:00,
2013-02-22 17:36:00,31.2,28.6,29.90,SSE,166,0.0,2.0,90,0.00,,,0.00,VWS V14.01,2013-02-22 22:36:00,
2013-02-22 17:37:00,31.2,28.6,29.90,SSE,166,0.0,2.0,90,0.00,,,0.00,VWS V14.01,2013-02-22 22:37:00,
2013-02-22 17:38:00,31.2,28.6,29.90,SSE,165,1.0,2.0,90,0.00,,,0.00,VWS V14.01,2013-02-22 22:38:00,
2013-02-22 17:39:00,31.2,28.6,29.90,SSE,165,0.0,2.0,90,0.00,,,0.00,VWS V14.01,2013-02-22 22:39:00,
2013-02-22 17:40:00,31.2,28.6,29.90,SSE,165,0.0,2.0,90,0.00,,,0.00,VWS V14.01,2013-02-22 22:40:00,
2013-02-22 17:41:00,31.2,28.6,29.90,SSE,165,0.0,3.0,90,0.00,,,0.00,VWS V14.01,2013-02-22 22:41:00,
2013-02-22 17:42:00,31.2,28.6,29.90,SSE,165,1.0,3.0,90,0.00,,,0.00,VWS V14.01,2013-02-22 22:42:00,
2013-02-22 17:43:00,31.3,28.7,29.90,SSE,165,0.0,3.0,90,0.00,,,0.00,VWS V14.01,2013-02-22 22:43:00,
2013-02-22 17:44:00,31.3,28.7,29.90,SSE,165,0.0,3.0,90,0.00,,,0.00,VWS V14.01,2013-02-22 22:44:00,
2013-02-22 17:45:00,31.3,28.7,29.90,SSE,165,0.0,3.0,90,0.00,,,0.00,VWS V14.01,2013-02-22 22:45:00,
2013-02-22 17:46:00,31.3,28.7,29.90,SSE,165,1.0,3.0,90,0.00,,,0.00,VWS V14.01,2013-02-22 22:46:00,
2013-02-22 17:47:00,31.3,28.7,29.90,SSE,165,0.0,3.0,90,0.00,,,0.00,VWS V14.01,2013-02-22 22:47:00,
2013-02-22 17:48:00,31.3,28.7,29.90,SSE,166,0.0,3.0,90,0.00,,,0.00,VWS V14.01,2013-02-22 22:48:00,
2013-02-22 17:49:00,31.3,28.7,29.90,SSE,165,0.0,3.0,90,0.00,,,0.00,VWS V14.01,2013-02-22 22:49:00,
2013-02-22 17:50:00,31.3,28.7,29.90,SSE,165,0.0,3.0,90,0.00,,,0.00,VWS V14.01,2013-02-22 22:50:00,
2013-02-22 17:51:00,31.3,28.7,29.90,SSE,165,2.0,3.0,90,0.00,,,0.00,VWS V14.01,2013-02-22 22:51:00,
2013-02-22 17:52:00,31.3,28.7,29.90,SSE,166,2.0,3.0,90,0.00,,,0.00,VWS V14.01,2013-02-22 22:52:00,
2013-02-22 17:53:00,31.3,28.7,29.90,SSE,166,0.0,3.0,90,0.00,,,0.00,VWS V14.01,2013-02-22 22:53:00,
2013-02-22 17:54:00,31.4,28.8,29.90,SSE,166,0.0,3.0,90,0.00,,,0.00,VWS V14.01,2013-02-22 22:54:00,
2013-02-22 17:55:00,31.3,28.7,29.90,SSE,166,0.0,3.0,90,0.00,,,0.00,VWS V14.01,2013-02-22 22:55:00,
2013-02-22 17:56:00,31.3,28.7,29.90,SSE,166,0.0,3.0,90,0.00,,,0.00,VWS V14.01,2013-02-22 22:56:00,
2013-02-22 17:57:00,31.4,28.8,29.90,SSE,165,2.0,3.0,90,0.00,,,0.00,VWS V14.01,2013-02-22 22:57:00,
2013-02-22 17:58:00,31.4,28.8,29.90,SSE,165,0.0,3.0,90,0.00,,,0.00,VWS V14.01,2013-02-22 22:58:00,
2013-02-22 17:59:00,31.4,28.8,29.90,SSE,165,1.0,3.0,90,0.00,,,0.00,VWS V14.01,2013-02-22 22:59:00,
2013-02-22 18:00:00,31.4,28.8,29.90,SSE,166,0.0,3.0,90,0.00,,,0.00,VWS V14.01,2013-02-22 23:00:00,
2013-02-22 18:01:00,31.4,28.8,29.90,SSE,165,0.0,1.0,90,0.00,,,0.00,VWS V14.01,2013-02-22 23:01:00,
2013-02-22 18:02:00,31.4,28.8,29.90,SSE,166,1.0,1.0,90,0.00,,,0.00,VWS V14.01,2013-02-22 23:02:00,
2013-02-22 18:03:00,31.4,28.8,29.90,SSE,165,1.0,2.0,90,0.00,,,0.00,VWS V14.01,2013-02-22 23:03:00,
2013-02-22 18:04:00,31.4,28.8,29.90,SSE,165,0.0,2.0,90,0.00,,,0.00,VWS V14.01,2013-02-22 23:04:00,
2013-02-22 18:05:00,31.4,28.8,29.90,SSE,166,0.0,2.0,90,0.00,,,0.00,VWS V14.01,2013-02-22 23:05:00,
2013-02-22 18:06:00,31.4,28.8,29.90,SSE,166,0.0,2.0,90,0.00,,,0.00,VWS V14.01,2013-02-22 23:06:00,
2013-02-22 18:07:00,31.4,28.8,29.90,SSE,166,1.0,2.0,90,0.00,,,0.00,VWS V14.01,2013-02-22 23:07:00,
2013-02-22 18:08:00,31.4,28.8,29.90,SSE,166,2.0,2.0,90,0.00,,,0.00,VWS V14.01,2013-02-22 23:08:00,
2013-02-22 18:09:00,31.4,28.8,29.90,SSE,165,1.0,2.0,90,0.00,,,0.00,VWS V14.01,2013-02-22 23:09:00,
2013-02-22 18:10:00,31.4,28.8,29.90,SSE,165,0.0,2.0,90,0.00,,,0.00,VWS V14.01,2013-02-22 23:10:00,
2013-02-22 18:11:00,31.4,28.8,29.90,SSE,165,0.0,2.0,90,0.00,,,0.00,VWS V14.01,2013-02-22 23:11:00,
2013-02-22 18:12:00,31.4,28.8,29.90,SSE,165,0.0,2.0,90,0.00,,,0.00,VWS V14.01,2013-02-22 23:12:00,
2013-02-22 18:13:00,31.5,28.9,29.90,SSE,165,0.0,2.0,90,0.00,,,0.00,VWS V14.01,2013-02-22 23:13:00,
2013-02-22 18:14:00,31.4,28.8,29.90,SSE,165,0.0,2.0,90,0.00,,,0.00,VWS V14.01,2013-02-22 23:14:00,
2013-02-22 18:15:00,31.4,28.8,29.90,SSE,165,0.0,2.0,90,0.00,,,0.00,VWS V14.01,2013-02-22 23:15:00,
2013-02-22 18:16:00,31.5,28.9,29.90,SSE,165,0.0,2.0,90,0.00,,,0.00,VWS V14.01,2013-02-22 23:16:00,
2013-02-22 18:17:00,31.5,28.9,29.90,SSE,165,0.0,2.0,90,0.00,,,0.00,VWS V14.01,2013-02-22 23:17:00,
2013-02-22 18:18:00,31.5,28.9,29.91,SSE,165,0.0,2.0,90,0.00,,,0.00,VWS V14.01,2013-02-22 23:18:00,
2013-02-22 18:19:00,31.5,28.9,29.91,SSE,165,0.0,2.0,90,0.00,,,0.00,VWS V14.01,2013-02-22 23:19:00,
2013-02-22 18:20:00,31.5,28.9,29.91,SSE,165,0.0,2.0,90,0.00,,,0.00,VWS V14.01,2013-02-22 23:20:00,
2013-02-22 18:21:00,31.5,28.9,29.90,SSE,165,0.0,2.0,90,0.00,,,0.00,VWS V14.01,2013-02-22 23:21:00,
2013-02-22 18:22:00,31.5,28.9,29.90,SSE,165,0.0,2.0,90,0.00,,,0.00,VWS V14.01,2013-02-22 23:22:00,
2013-02-22 18:23:00,31.5,28.9,29.91,SSE,166,2.0,2.0,90,0.00,,,0.00,VWS V14.01,2013-02-22 23:23:00,
2013-02-22 18:24:00,31.5,28.9,29.91,SSE,165,1.0,2.0,90,0.00,,,0.00,VWS V14.01,2013-02-22 23:24:00,
2013-02-22 18:25:00,31.5,28.9,29.91,SSE,165,0.0,2.0,90,0.00,,,0.00,VWS V14.01,2013-02-22 23:25:00,
2013-02-22 18:26:00,31.5,28.9,29.91,SSE,165,0.0,2.0,90,0.00,,,0.00,VWS V14.01,2013-02-22 23:26:00,
2013-02-22 18:27:00,31.5,28.9,29.91,SSE,165,0.0,2.0,90,0.00,,,0.00,VWS V14.01,2013-02-22 23:27:00,
2013-02-22 18:28:00,31.6,29.0,29.91,SSE,165,1.0,2.0,90,0.00,,,0.00,VWS V14.01,2013-02-22 23:28:00,
2013-02-22 18:29:00,31.6,29.0,29.91,SSE,165,0.0,2.0,90,0.00,,,0.00,VWS V14.01,2013-02-22 23:29:00,
2013-02-22 18:30:00,31.6,29.0,29.91,SSE,165,1.0,2.0,90,0.00,,,0.00,VWS V14.01,2013-02-22 23:30:00,
2013-02-22 18:31:00,31.6,29.0,29.91,SSE,165,0.0,1.0,90,0.00,,,0.00,VWS V14.01,2013-02-22 23:31:00,
2013-02-22 18:32:00,31.6,29.0,29.91,SSE,165,0.0,1.0,90,0.00,,,0.00,VWS V14.01,2013-02-22 23:32:00,
2013-02-22 18:33:00,31.6,29.0,29.91,SSE,165,0.0,2.0,90,0.00,,,0.00,VWS V14.01,2013-02-22 23:33:00,
2013-02-22 18:34:00,31.6,29.0,29.91,SSE,165,0.0,2.0,90,0.00,,,0.00,VWS V14.01,2013-02-22 23:34:00,
2013-02-22 18:35:00,31.6,29.0,29.91,SSE,165,1.0,2.0,90,0.00,,,0.00,VWS V14.01,2013-02-22 23:35:00,
2013-02-22 18:36:00,31.6,29.0,29.91,SSE,165,0.0,2.0,90,0.00,,,0.00,VWS V14.01,2013-02-22 23:36:00,
2013-02-22 18:37:00,31.7,29.1,29.91,SSE,165,0.0,2.0,90,0.00,,,0.00,VWS V14.01,2013-02-22 23:37:00,
2013-02-22 18:38:00,31.7,29.1,29.91,SSE,165,0.0,2.0,90,0.00,,,0.00,VWS V14.01,2013-02-22 23:38:00,
2013-02-22 18:39:00,31.7,29.1,29.91,SSE,165,0.0,2.0,90,0.00,,,0.00,VWS V14.01,2013-02-22 23:39:00,
2013-02-22 18:40:00,31.7,29.1,29.91,SSE,165,0.0,2.0,90,0.00,,,0.00,VWS V14.01,2013-02-22 23:40:00,
2013-02-22 18:41:00,31.7,29.1,29.91,SSE,165,0.0,2.0,90,0.00,,,0.00,VWS V14.01,2013-02-22 23:41:00,
2013-02-22 18:42:00,31.7,29.1,29.91,SSE,165,0.0,2.0,90,0.00,,,0.00,VWS V14.01,2013-02-22 23:42:00,
2013-02-22 18:43:00,31.7,29.1,29.91,SSE,165,0.0,2.0,90,0.00,,,0.00,VWS V14.01,2013-02-22 23:43:00,
2013-02-22 18:44:00,31.8,29.2,29.91,SSE,165,0.0,2.0,90,0.00,,,0.00,VWS V14.01,2013-02-22 23:44:00,
2013-02-22 18:45:00,31.8,29.2,29.91,SSE,165,0.0,2.0,90,0.00,,,0.00,VWS V14.01,2013-02-22 23:45:00,
2013-02-22 18:46:00,31.8,29.2,29.91,SSE,165,0.0,2.0,90,0.00,,,0.00,VWS V14.01,2013-02-22 23:46:00,
2013-02-22 18:47:00,31.8,29.2,29.91,SSE,165,0.0,2.0,90,0.00,,,0.00,VWS V14.01,2013-02-22 23:47:00,
2013-02-22 18:48:00,31.8,29.2,29.91,SSE,165,0.0,2.0,90,0.00,,,0.00,VWS V14.01,2013-02-22 23:48:00,
2013-02-22 18:49:00,31.9,29.3,29.91,SSE,165,1.0,2.0,90,0.00,,,0.00,VWS V14.01,2013-02-22 23:49:00,
2013-02-22 18:50:00,31.8,29.2,29.91,SSE,165,0.0,2.0,90,0.00,,,0.00,VWS V14.01,2013-02-22 23:50:00,
2013-02-22 18:51:00,31.9,29.3,29.91,SSE,165,1.0,2.0,90,0.00,,,0.00,VWS V14.01,2013-02-22 23:51:00,
2013-02-22 18:52:00,31.9,29.3,29.91,SSE,165,0.0,2.0,90,0.00,,,0.00,VWS V14.01,2013-02-22 23:52:00,
2013-02-22 18:53:00,31.9,29.3,29.91,SSE,165,0.0,2.0,90,0.00,,,0.00,VWS V14.01,2013-02-22 23:53:00,
2013-02-22 18:54:00,31.9,29.3,29.91,SSE,165,0.0,2.0,90,0.00,,,0.00,VWS V14.01,2013-02-22 23:54:00,
2013-02-22 18:55:00,31.9,29.3,29.91,SSE,165,1.0,2.0,90,0.00,,,0.00,VWS V14.01,2013-02-22 23:55:00,
2013-02-22 18:56:00,31.9,29.3,29.91,SSE,165,0.0,2.0,90,0.00,,,0.00,VWS V14.01,2013-02-22 23:56:00,
2013-02-22 18:57:00,31.9,29.3,29.91,SSE,165,0.0,2.0,90,0.00,,,0.00,VWS V14.01,2013-02-22 23:57:00,
2013-02-22 18:58:00,31.9,29.3,29.91,SSE,165,1.0,2.0,90,0.00,,,0.00,VWS V14.01,2013-02-22 23:58:00,
2013-02-22 18:59:00,31.9,29.3,29.91,SSE,165,0.0,2.0,90,0.00,,,0.00,VWS V14.01,2013-02-22 23:59:00,
2013-02-22 19:00:00,32.0,29.4,29.91,SSE,165,0.0,2.0,90,0.00,,,0.00,VWS V14.01,2013-02-23 00:00:00,
2013-02-22 19:01:00,32.0,29.4,29.91,SSE,165,0.0,2.0,90,0.00,,,0.00,VWS V14.01,2013-02-23 00:01:00,
2013-02-22 19:02:00,32.0,29.4,29.91,SSE,165,1.0,2.0,90,0.00,,,0.00,VWS V14.01,2013-02-23 00:02:00,
2013-02-22 19:03:00,32.0,29.4,29.91,SSE,165,1.0,2.0,90,0.00,,,0.00,VWS V14.01,2013-02-23 00:03:00,
2013-02-22 19:04:00,32.0,29.4,29.91,SSE,165,2.0,3.0,90,0.00,,,0.00,VWS V14.01,2013-02-23 00:04:00,
2013-02-22 19:05:00,32.1,29.5,29.91,SSE,165,0.0,3.0,90,0.00,,,0.00,VWS V14.01,2013-02-23 00:05:00,
2013-02-22 19:06:00,32.1,29.5,29.91,SSE,165,2.0,3.0,90,0.00,,,0.00,VWS V14.01,2013-02-23 00:06:00,
2013-02-22 19:07:00,32.1,29.5,29.91,SSE,165,1.0,3.0,90,0.00,,,0.00,VWS V14.01,2013-02-23 00:07:00,
2013-02-22 19:08:00,32.2,29.6,29.91,SSE,165,0.0,3.0,90,0.00,,,0.00,VWS V14.01,2013-02-23 00:08:00,
2013-02-22 19:09:00,32.2,29.6,29.90,SSE,165,2.0,3.0,90,0.00,,,0.00,VWS V14.01,2013-02-23 00:09:00,
2013-02-22 19:10:00,32.2,29.6,29.91,SSE,165,0.0,3.0,90,0.00,,,0.00,VWS V14.01,2013-02-23 00:10:00,
2013-02-22 19:11:00,32.3,29.7,29.91,SSE,165,2.0,3.0,90,0.00,,,0.00,VWS V14.01,2013-02-23 00:11:00,
2013-02-22 19:12:00,32.3,29.7,29.91,SSE,165,2.0,3.0,90,0.00,,,0.00,VWS V14.01,2013-02-23 00:12:00,
2013-02-22 19:13:00,32.3,29.7,29.91,SSE,165,2.0,3.0,90,0.00,,,0.00,VWS V14.01,2013-02-23 00:13:00,
2013-02-22 19:14:00,32.3,29.7,29.91,SSE,165,1.0,3.0,90,0.00,,,0.00,VWS V14.01,2013-02-23 00:14:00,
2013-02-22 19:15:00,32.3,29.7,29.91,SSE,165,0.0,3.0,90,0.00,,,0.00,VWS V14.01,2013-02-23 00:15:00,
2013-02-22 19:16:00,32.3,29.7,29.90,SSE,165,2.0,3.0,90,0.00,,,0.00,VWS V14.01,2013-02-23 00:16:00,
2013-02-22 19:17:00,32.3,29.7,29.90,SSE,165,0.0,3.0,90,0.00,,,0.00,VWS V14.01,2013-02-23 00:17:00,
2013-02-22 19:18:00,32.4,29.8,29.90,SSE,165,1.0,3.0,90,0.00,,,0.00,VWS V14.01,2013-02-23 00:18:00,
2013-02-22 19:19:00,32.3,29.7,29.90,SSE,165,0.0,3.0,90,0.00,,,0.00,VWS V14.01,2013-02-23 00:19:00,
2013-02-22 19:20:00,32.4,29.8,29.90,SSE,165,1.0,3.0,90,0.00,,,0.00,VWS V14.01,2013-02-23 00:20:00,
2013-02-22 19:21:00,32.4,29.8,29.90,SSE,165,1.0,3.0,90,0.00,,,0.00,VWS V14.01,2013-02-23 00:21:00,
2013-02-22 19:22:00,32.4,29.8,29.91,SSE,165,1.0,3.0,90,0.00,,,0.00,VWS V14.01,2013-02-23 00:22:00,
2013-02-22 19:23:00,32.4,29.8,29.90,SSE,165,0.0,3.0,90,0.00,,,0.00,VWS V14.01,2013-02-23 00:23:00,
2013-02-22 19:24:00,32.4,30.1,29.90,SSE,165,1.0,3.0,91,0.00,,,0.00,VWS V14.01,2013-02-23 00:24:00,
2013-02-22 19:25:00,32.4,30.1,29.90,SSE,165,0.0,3.0,91,0.00,,,0.00,VWS V14.01,2013-02-23 00:25:00,
2013-02-22 19:26:00,32.4,30.1,29.90,SSE,165,2.0,3.0,91,0.00,,,0.00,VWS V14.01,2013-02-23 00:26:00,
2013-02-22 19:27:00,32.4,30.1,29.90,SSE,165,1.0,3.0,91,0.00,,,0.00,VWS V14.01,2013-02-23 00:27:00,
2013-02-22 19:28:00,32.5,30.2,29.90,SSE,165,1.0,3.0,91,0.00,,,0.00,VWS V14.01,2013-02-23 00:28:00,
2013-02-22 19:29:00,32.5,30.2,29.90,SSE,165,2.0,3.0,91,0.00,,,0.00,VWS V14.01,2013-02-23 00:29:00,
2013-02-22 19:30:00,32.5,30.2,29.90,SSE,165,2.0,3.0,91,0.00,,,0.00,VWS V14.01,2013-02-23 00:30:00,
2013-02-22 19:31:00,32.5,30.2,29.90,SSE,165,2.0,4.0,91,0.00,,,0.00,VWS V14.01,2013-02-23 00:31:00,
2013-02-22 19:32:00,32.5,30.2,29.90,SSE,165,2.0,4.0,91,0.00,,,0.00,VWS V14.01,2013-02-23 00:32:00,
2013-02-22 19:33:00,32.5,30.2,29.90,SSE,165,2.0,4.0,91,0.00,,,0.00,VWS V14.01,2013-02-23 00:33:00,
2013-02-22 19:34:00,32.5,30.2,29.90,SSE,165,2.0,4.0,91,0.00,,,0.00,VWS V14.01,2013-02-23 00:34:00,
2013-02-22 19:35:00,32.6,30.3,29.90,SSE,165,3.0,4.0,91,0.00,,,0.00,VWS V14.01,2013-02-23 00:35:00,
2013-02-22 19:36:00,32.6,30.3,29.90,SSE,165,1.0,4.0,91,0.00,,,0.00,VWS V14.01,2013-02-23 00:36:00,
2013-02-22 19:37:00,32.6,30.3,29.90,SSE,165,2.0,4.0,91,0.00,,,0.00,VWS V14.01,2013-02-23 00:37:00,
2013-02-22 19:38:00,32.6,30.3,29.90,SSE,165,1.0,4.0,91,0.00,,,0.00,VWS V14.01,2013-02-23 00:38:00,
2013-02-22 19:39:00,32.6,30.3,29.90,SSE,165,2.0,4.0,91,0.00,,,0.00,VWS V14.01,2013-02-23 00:39:00,
2013-02-22 19:40:00,32.6,30.3,29.90,SSE,165,2.0,4.0,91,0.00,,,0.00,VWS V14.01,2013-02-23 00:40:00,
2013-02-22 19:41:00,32.6,30.3,29.90,SSE,165,1.0,4.0,91,0.00,,,0.00,VWS V14.01,2013-02-23 00:41:00,
2013-02-22 19:42:00,32.6,30.3,29.90,SSE,165,1.0,4.0,91,0.00,,,0.00,VWS V14.01,2013-02-23 00:42:00,
2013-02-22 19:43:00,32.7,30.4,29.90,SSE,165,2.0,4.0,91,0.00,,,0.00,VWS V14.01,2013-02-23 00:43:00,
2013-02-22 19:44:00,32.7,30.4,29.90,SSE,165,2.0,4.0,91,0.00,,,0.00,VWS V14.01,2013-02-23 00:44:00,
2013-02-22 19:45:00,32.7,30.4,29.90,SSE,165,2.0,4.0,91,0.00,,,0.00,VWS V14.01,2013-02-23 00:45:00,
2013-02-22 19:46:00,32.7,30.4,29.90,SSE,165,1.0,4.0,91,0.00,,,0.00,VWS V14.01,2013-02-23 00:46:00,
2013-02-22 19:47:00,32.7,30.4,29.90,SSE,165,2.0,4.0,91,0.00,,,0.00,VWS V14.01,2013-02-23 00:47:00,
2013-02-22 19:48:00,32.8,30.5,29.90,SSE,165,1.0,4.0,91,0.00,,,0.00,VWS V14.01,2013-02-23 00:48:00,
2013-02-22 19:49:00,32.8,30.5,29.90,SSE,164,2.0,4.0,91,0.00,,,0.00,VWS V14.01,2013-02-23 00:49:00,
2013-02-22 19:50:00,32.8,30.5,29.90,SSE,165,1.0,4.0,91,0.00,,,0.00,VWS V14.01,2013-02-23 00:50:00,
2013-02-22 19:51:00,32.8,30.5,29.90,SSE,165,3.0,4.0,91,0.00,,,0.00,VWS V14.01,2013-02-23 00:51:00,
2013-02-22 19:52:00,32.8,30.5,29.90,SSE,165,1.0,4.0,91,0.00,,,0.00,VWS V14.01,2013-02-23 00:52:00,
2013-02-22 19:53:00,32.8,30.5,29.90,SSE,165,1.0,4.0,91,0.00,,,0.00,VWS V14.01,2013-02-23 00:53:00,
2013-02-22 19:54:00,32.8,30.5,29.90,SSE,164,1.0,4.0,91,0.00,,,0.00,VWS V14.01,2013-02-23 00:54:00,
2013-02-22 19:55:00,32.8,30.5,29.90,SSE,164,1.0,4.0,91,0.00,,,0.00,VWS V14.01,2013-02-23 00:55:00,
2013-02-22 19:56:00,32.8,30.5,29.90,SSE,165,2.0,4.0,91,0.00,,,0.00,VWS V14.01,2013-02-23 00:56:00,
2013-02-22 19:57:00,32.8,30.5,29.90,SSE,165,2.0,4.0,91,0.00,,,0.00,VWS V14.01,2013-02-23 00:57:00,
2013-02-22 19:58:00,32.9,30.6,29.90,SSE,165,2.0,4.0,91,0.00,,,0.00,VWS V14.01,2013-02-23 00:58:00,
2013-02-22 19:59:00,32.9,30.6,29.90,SSE,165,2.0,4.0,91,0.00,,,0.00,VWS V14.01,2013-02-23 00:59:00,
2013-02-22 20:00:00,32.9,30.6,29.90,SSE,165,1.0,4.0,91,0.00,,,0.00,VWS V14.01,2013-02-23 01:00:00,
2013-02-22 20:01:00,32.9,30.6,29.90,SSE,165,0.0,3.0,91,0.00,,,0.00,VWS V14.01,2013-02-23 01:01:00,
2013-02-22 20:02:00,32.9,30.6,29.90,SSE,165,2.0,3.0,91,0.00,,,0.00,VWS V14.01,2013-02-23 01:02:00,
2013-02-22 20:03:00,33.0,30.7,29.90,South,173,4.0,4.0,91,0.00,,,0.00,VWS V14.01,2013-02-23 01:03:00,
2013-02-22 20:04:00,33.0,30.7,29.90,South,175,1.0,4.0,91,0.00,,,0.00,VWS V14.01,2013-02-23 01:04:00,
2013-02-22 20:05:00,33.0,30.7,29.90,South,175,1.0,4.0,91,0.00,,,0.00,VWS V14.01,2013-02-23 01:05:00,
2013-02-22 20:06:00,33.0,30.7,29.90,South,175,2.0,4.0,91,0.00,,,0.00,VWS V14.01,2013-02-23 01:06:00,
2013-02-22 20:07:00,33.0,30.7,29.90,South,175,0.0,4.0,91,0.00,,,0.00,VWS V14.01,2013-02-23 01:07:00,
2013-02-22 20:08:00,33.0,30.7,29.90,South,175,0.0,4.0,91,0.00,,,0.00,VWS V14.01,2013-02-23 01:08:00,
2013-02-22 20:09:00,33.0,30.7,29.90,South,175,2.0,4.0,91,0.00,,,0.00,VWS V14.01,2013-02-23 01:09:00,
2013-02-22 20:10:00,33.0,30.7,29.90,South,175,0.0,4.0,91,0.00,,,0.00,VWS V14.01,2013-02-23 01:10:00,
2013-02-22 20:11:00,33.0,30.7,29.90,South,175,1.0,4.0,91,0.00,,,0.00,VWS V14.01,2013-02-23 01:11:00,
2013-02-22 20:12:00,33.0,30.7,29.90,South,175,0.0,4.0,91,0.00,,,0.00,VWS V14.01,2013-02-23 01:12:00,
2013-02-22 20:13:00,33.0,30.7,29.90,South,175,1.0,4.0,91,0.00,,,0.00,VWS V14.01,2013-02-23 01:13:00,
2013-02-22 20:14:00,33.0,30.7,29.90,South,175,0.0,4.0,91,0.00,,,0.00,VWS V14.01,2013-02-23 01:14:00,
2013-02-22 20:15:00,33.0,30.7,29.90,South,175,0.0,4.0,91,0.00,,,0.00,VWS V14.01,2013-02-23 01:15:00,
2013-02-22 20:16:00,33.0,30.7,29.90,South,175,2.0,4.0,91,0.00,,,0.00,VWS V14.01,2013-02-23 01:16:00,
2013-02-22 20:17:00,33.0,30.7,29.90,South,175,1.0,4.0,91,0.00,,,0.00,VWS V14.01,2013-02-23 01:17:00,
2013-02-22 20:18:00,33.0,30.7,29.90,South,175,2.0,4.0,91,0.00,,,0.00,VWS V14.01,2013-02-23 01:18:00,
2013-02-22 20:19:00,33.0,30.7,29.90,South,175,1.0,4.0,91,0.00,,,0.00,VWS V14.01,2013-02-23 01:19:00,
2013-02-22 20:20:00,33.0,30.7,29.90,South,175,0.0,4.0,91,0.00,,,0.00,VWS V14.01,2013-02-23 01:20:00,
2013-02-22 20:21:00,33.0,30.7,29.90,South,175,1.0,4.0,91,0.00,,,0.00,VWS V14.01,2013-02-23 01:21:00,
2013-02-22 20:22:00,33.0,30.7,29.90,South,175,0.0,4.0,91,0.00,,,0.00,VWS V14.01,2013-02-23 01:22:00,
2013-02-22 20:23:00,33.0,30.7,29.90,South,175,2.0,4.0,91,0.00,,,0.00,VWS V14.01,2013-02-23 01:23:00,
2013-02-22 20:24:00,33.0,30.7,29.90,South,175,1.0,4.0,91,0.00,,,0.00,VWS V14.01,2013-02-23 01:24:00,
2013-02-22 20:25:00,33.0,30.7,29.90,South,175,0.0,4.0,91,0.00,,,0.00,VWS V14.01,2013-02-23 01:25:00,
2013-02-22 20:26:00,33.0,30.7,29.90,South,175,0.0,4.0,91,0.00,,,0.00,VWS V14.01,2013-02-23 01:26:00,
2013-02-22 20:27:00,33.0,30.7,29.90,South,175,2.0,4.0,91,0.00,,,0.00,VWS V14.01,2013-02-23 01:27:00,
2013-02-22 20:28:00,33.0,30.7,29.90,South,175,2.0,4.0,91,0.00,,,0.00,VWS V14.01,2013-02-23 01:28:00,
2013-02-22 20:29:00,33.0,30.7,29.90,South,175,0.0,4.0,91,0.00,,,0.00,VWS V14.01,2013-02-23 01:29:00,
2013-02-22 20:30:00,33.0,30.7,29.90,South,175,0.0,4.0,91,0.00,,,0.00,VWS V14.01,2013-02-23 01:30:00,
2013-02-22 20:31:00,33.0,30.7,29.90,South,175,1.0,1.0,91,0.00,,,0.00,VWS V14.01,2013-02-23 01:31:00,
2013-02-22 20:32:00,33.0,30.7,29.91,South,175,1.0,2.0,91,0.00,,,0.00,VWS V14.01,2013-02-23 01:32:00,
2013-02-22 20:33:00,33.0,30.7,29.90,South,175,1.0,2.0,91,0.00,,,0.00,VWS V14.01,2013-02-23 01:33:00,
2013-02-22 20:34:00,33.0,30.7,29.91,South,175,2.0,2.0,91,0.00,,,0.00,VWS V14.01,2013-02-23 01:34:00,
2013-02-22 20:35:00,33.0,30.7,29.91,South,175,2.0,2.0,91,0.00,,,0.00,VWS V14.01,2013-02-23 01:35:00,
2013-02-22 20:36:00,33.0,30.7,29.90,South,175,2.0,2.0,91,0.00,,,0.00,VWS V14.01,2013-02-23 01:36:00,
2013-02-22 20:37:00,33.0,30.7,29.90,South,175,1.0,2.0,91,0.00,,,0.00,VWS V14.01,2013-02-23 01:37:00,
2013-02-22 20:38:00,33.0,30.7,29.90,South,175,1.0,2.0,91,0.00,,,0.00,VWS V14.01,2013-02-23 01:38:00,
2013-02-22 20:39:00,33.1,30.8,29.90,South,175,1.0,2.0,91,0.00,,,0.00,VWS V14.01,2013-02-23 01:39:00,
2013-02-22 20:40:00,33.0,30.7,29.90,South,175,0.0,2.0,91,0.00,,,0.00,VWS V14.01,2013-02-23 01:40:00,
2013-02-22 20:41:00,33.1,30.8,29.90,South,175,2.0,2.0,91,0.00,,,0.00,VWS V14.01,2013-02-23 01:41:00,
2013-02-22 20:42:00,33.0,30.7,29.90,South,175,1.0,2.0,91,0.00,,,0.00,VWS V14.01,2013-02-23 01:42:00,
2013-02-22 20:43:00,33.1,30.8,29.90,South,175,2.0,3.0,91,0.00,,,0.00,VWS V14.01,2013-02-23 01:43:00,
2013-02-22 20:44:00,33.0,30.7,29.90,South,175,1.0,3.0,91,0.00,,,0.00,VWS V14.01,2013-02-23 01:44:00,
2013-02-22 20:45:00,33.1,30.8,29.90,South,175,0.0,3.0,91,0.00,,,0.00,VWS V14.01,2013-02-23 01:45:00,
2013-02-22 20:46:00,33.1,30.8,29.90,South,175,2.0,3.0,91,0.00,,,0.00,VWS V14.01,2013-02-23 01:46:00,
2013-02-22 20:47:00,33.1,30.8,29.91,South,175,1.0,3.0,91,0.00,,,0.00,VWS V14.01,2013-02-23 01:47:00,
2013-02-22 20:48:00,33.1,30.8,29.90,South,175,2.0,3.0,91,0.00,,,0.00,VWS V14.01,2013-02-23 01:48:00,
2013-02-22 20:49:00,33.1,30.8,29.90,South,175,3.0,3.0,91,0.00,,,0.00,VWS V14.01,2013-02-23 01:49:00,
2013-02-22 20:50:00,33.2,30.9,29.90,South,175,1.0,3.0,91,0.00,,,0.00,VWS V14.01,2013-02-23 01:50:00,
2013-02-22 20:51:00,33.1,30.8,29.90,South,175,2.0,3.0,91,0.00,,,0.00,VWS V14.01,2013-02-23 01:51:00,
2013-02-22 20:52:00,33.1,30.8,29.90,South,175,2.0,3.0,91,0.00,,,0.00,VWS V14.01,2013-02-23 01:52:00,
2013-02-22 20:53:00,33.1,30.8,29.90,South,175,1.0,3.0,91,0.00,,,0.00,VWS V14.01,2013-02-23 01:53:00,
2013-02-22 20:54:00,33.1,30.8,29.90,South,175,1.0,3.0,91,0.00,,,0.00,VWS V14.01,2013-02-23 01:54:00,
2013-02-22 20:55:00,33.1,30.8,29.90,South,175,2.0,3.0,91,0.00,,,0.00,VWS V14.01,2013-02-23 01:55:00,
2013-02-22 20:56:00,33.1,30.8,29.90,South,175,0.0,3.0,91,0.00,,,0.00,VWS V14.01,2013-02-23 01:56:00,
2013-02-22 20:57:00,33.2,30.9,29.90,South,175,1.0,3.0,91,0.00,,,0.00,VWS V14.01,2013-02-23 01:57:00,
2013-02-22 20:58:00,33.1,30.8,29.91,South,175,1.0,3.0,91,0.00,,,0.00,VWS V14.01,2013-02-23 01:58:00,
2013-02-22 20:59:00,33.1,30.8,29.91,SSE,167,2.0,3.0,91,0.00,,,0.00,VWS V14.01,2013-02-23 01:59:00,
2013-02-22 21:00:00,33.1,30.8,29.90,SSE,167,1.0,3.0,91,0.00,,,0.00,VWS V14.01,2013-02-23 02:00:00,
2013-02-22 21:01:00,33.2,30.9,29.90,SSE,167,2.0,2.0,91,0.00,,,0.00,VWS V14.01,2013-02-23 02:01:00,
2013-02-22 21:02:00,33.2,30.9,29.90,SSE,167,1.0,2.0,91,0.00,,,0.00,VWS V14.01,2013-02-23 02:02:00,
2013-02-22 21:03:00,33.2,30.9,29.90,SSE,167,2.0,2.0,91,0.00,,,0.00,VWS V14.01,2013-02-23 02:03:00,
2013-02-22 21:04:00,33.2,30.9,29.90,SSE,167,2.0,3.0,91,0.00,,,0.00,VWS V14.01,2013-02-23 02:04:00,
2013-02-22 21:05:00,33.2,30.9,29.90,SSE,167,3.0,3.0,91,0.00,,,0.00,VWS V14.01,2013-02-23 02:05:00,
2013-02-22 21:06:00,33.2,30.9,29.90,SSE,167,2.0,3.0,91,0.00,,,0.00,VWS V14.01,2013-02-23 02:06:00,
2013-02-22 21:07:00,33.2,30.9,29.90,SSE,167,0.0,3.0,91,0.00,,,0.00,VWS V14.01,2013-02-23 02:07:00,
2013-02-22 21:08:00,33.2,30.9,29.90,SSE,167,1.0,3.0,91,0.00,,,0.00,VWS V14.01,2013-02-23 02:08:00,
2013-02-22 21:09:00,33.2,30.9,29.90,SSE,167,2.0,3.0,91,0.00,,,0.00,VWS V14.01,2013-02-23 02:09:00,
2013-02-22 21:10:00,33.2,30.9,29.91,SSE,167,2.0,3.0,91,0.00,,,0.00,VWS V14.01,2013-02-23 02:10:00,
2013-02-22 21:11:00,33.2,30.9,29.91,SSE,167,2.0,3.0,91,0.00,,,0.00,VWS V14.01,2013-02-23 02:11:00,
2013-02-22 21:12:00,33.2,30.9,29.90,SSE,167,2.0,3.0,91,0.00,,,0.00,VWS V14.01,2013-02-23 02:12:00,
2013-02-22 21:13:00,33.2,30.9,29.90,SSE,167,3.0,3.0,91,0.00,,,0.00,VWS V14.01,2013-02-23 02:13:00,
2013-02-22 21:14:00,33.2,30.9,29.90,SSE,167,2.0,3.0,91,0.00,,,0.00,VWS V14.01,2013-02-23 02:14:00,
2013-02-22 21:15:00,33.2,30.9,29.90,SSE,167,0.0,3.0,91,0.00,,,0.00,VWS V14.01,2013-02-23 02:15:00,
2013-02-22 21:16:00,33.2,30.9,29.90,SSE,167,1.0,3.0,91,0.00,,,0.00,VWS V14.01,2013-02-23 02:16:00,
2013-02-22 21:17:00,33.2,30.9,29.90,SSE,167,2.0,3.0,91,0.00,,,0.00,VWS V14.01,2013-02-23 02:17:00,
2013-02-22 21:18:00,33.2,30.9,29.90,SSE,167,2.0,3.0,91,0.00,,,0.00,VWS V14.01,2013-02-23 02:18:00,
2013-02-22 21:19:00,33.2,30.9,29.90,SSE,167,2.0,3.0,91,0.00,,,0.00,VWS V14.01,2013-02-23 02:19:00,
2013-02-22 21:20:00,33.3,31.0,29.90,SSE,167,1.0,3.0,91,0.00,,,0.00,VWS V14.01,2013-02-23 02:20:00,
2013-02-22 21:21:00,33.2,30.9,29.90,SSE,167,1.0,3.0,91,0.00,,,0.00,VWS V14.01,2013-02-23 02:21:00,
2013-02-22 21:22:00,33.2,30.9,29.90,SSE,167,2.0,3.0,91,0.00,,,0.00,VWS V14.01,2013-02-23 02:22:00,
2013-02-22 21:23:00,33.2,30.9,29.90,SSE,167,2.0,3.0,91,0.00,,,0.00,VWS V14.01,2013-02-23 02:23:00,
2013-02-22 21:24:00,33.2,30.9,29.90,SSE,167,4.0,4.0,91,0.00,,,0.00,VWS V14.01,2013-02-23 02:24:00,
2013-02-22 21:25:00,33.2,30.9,29.90,South,169,2.0,4.0,91,0.00,,,0.00,VWS V14.01,2013-02-23 02:25:00,
2013-02-22 21:26:00,33.3,31.0,29.90,SSE,168,2.0,4.0,91,0.00,,,0.00,VWS V14.01,2013-02-23 02:26:00,
2013-02-22 21:27:00,33.3,31.0,29.90,South,175,4.0,4.0,91,0.00,,,0.00,VWS V14.01,2013-02-23 02:27:00,
2013-02-22 21:28:00,33.3,31.0,29.90,South,175,2.0,4.0,91,0.00,,,0.00,VWS V14.01,2013-02-23 02:28:00,
2013-02-22 21:29:00,33.3,31.0,29.91,South,175,3.0,4.0,91,0.00,,,0.00,VWS V14.01,2013-02-23 02:29:00,
2013-02-22 21:30:00,33.3,31.0,29.90,South,175,2.0,4.0,91,0.00,,,0.00,VWS V14.01,2013-02-23 02:30:00,
2013-02-22 21:31:00,33.3,31.0,29.90,South,175,3.0,3.0,91,0.00,,,0.00,VWS V14.01,2013-02-23 02:31:00,
2013-02-22 21:32:00,33.3,31.0,29.90,South,175,1.0,3.0,91,0.00,,,0.00,VWS V14.01,2013-02-23 02:32:00,
2013-02-22 21:33:00,33.3,31.0,29.90,South,175,2.0,3.0,91,0.00,,,0.00,VWS V14.01,2013-02-23 02:33:00,
2013-02-22 21:34:00,33.3,31.0,29.90,South,175,1.0,3.0,91,0.00,,,0.00,VWS V14.01,2013-02-23 02:34:00,
2013-02-22 21:35:00,33.3,31.0,29.90,South,175,3.0,3.0,91,0.00,,,0.00,VWS V14.01,2013-02-23 02:35:00,
2013-02-22 21:36:00,33.3,31.0,29.90,South,175,2.0,3.0,91,0.00,,,0.00,VWS V14.01,2013-02-23 02:36:00,
2013-02-22 21:37:00,33.3,31.0,29.90,South,175,1.0,3.0,91,0.00,,,0.00,VWS V14.01,2013-02-23 02:37:00,
2013-02-22 21:38:00,33.3,31.0,29.90,South,175,2.0,3.0,91,0.00,,,0.00,VWS V14.01,2013-02-23 02:38:00,
2013-02-22 21:39:00,33.3,31.0,29.91,South,175,3.0,3.0,91,0.00,,,0.00,VWS V14.01,2013-02-23 02:39:00,
2013-02-22 21:40:00,33.3,31.0,29.91,South,175,2.0,3.0,91,0.00,,,0.00,VWS V14.01,2013-02-23 02:40:00,
2013-02-22 21:41:00,33.3,31.0,29.90,South,175,3.0,4.0,91,0.00,,,0.00,VWS V14.01,2013-02-23 02:41:00,
2013-02-22 21:42:00,33.3,31.0,29.91,South,175,2.0,4.0,91,0.00,,,0.00,VWS V14.01,2013-02-23 02:42:00,
2013-02-22 21:43:00,33.3,31.0,29.91,South,175,2.0,4.0,91,0.00,,,0.00,VWS V14.01,2013-02-23 02:43:00,
2013-02-22 21:44:00,33.3,31.0,29.90,South,175,2.0,4.0,91,0.00,,,0.00,VWS V14.01,2013-02-23 02:44:00,
2013-02-22 21:45:00,33.3,31.0,29.91,South,175,2.0,4.0,91,0.00,,,0.00,VWS V14.01,2013-02-23 02:45:00,
2013-02-22 21:46:00,33.3,31.0,29.91,South,175,3.0,4.0,91,0.00,,,0.00,VWS V14.01,2013-02-23 02:46:00,
2013-02-22 21:47:00,33.3,31.0,29.91,South,173,2.0,4.0,91,0.00,,,0.00,VWS V14.01,2013-02-23 02:47:00,
2013-02-22 21:48:00,33.3,31.0,29.90,South,173,1.0,4.0,91,0.00,,,0.00,VWS V14.01,2013-02-23 02:48:00,
2013-02-22 21:49:00,33.3,31.0,29.90,South,173,2.0,4.0,91,0.00,,,0.00,VWS V14.01,2013-02-23 02:49:00,
2013-02-22 21:50:00,33.2,30.9,29.91,South,173,1.0,4.0,91,0.00,,,0.00,VWS V14.01,2013-02-23 02:50:00,
2013-02-22 21:51:00,33.3,31.0,29.90,South,173,2.0,4.0,91,0.00,,,0.00,VWS V14.01,2013-02-23 02:51:00,
2013-02-22 21:52:00,33.2,30.9,29.90,South,173,2.0,4.0,91,0.00,,,0.00,VWS V14.01,2013-02-23 02:52:00,
2013-02-22 21:53:00,33.2,30.9,29.90,South,173,2.0,4.0,91,0.00,,,0.00,VWS V14.01,2013-02-23 02:53:00,
2013-02-22 21:54:00,33.2,30.9,29.90,South,173,1.0,4.0,91,0.00,,,0.00,VWS V14.01,2013-02-23 02:54:00,
2013-02-22 21:55:00,33.2,30.9,29.90,South,173,2.0,4.0,91,0.00,,,0.00,VWS V14.01,2013-02-23 02:55:00,
2013-02-22 21:56:00,33.2,30.9,29.90,South,173,1.0,4.0,91,0.00,,,0.00,VWS V14.01,2013-02-23 02:56:00,
2013-02-22 21:57:00,33.2,30.9,29.90,South,173,2.0,4.0,91,0.00,,,0.00,VWS V14.01,2013-02-23 02:57:00,
2013-02-22 21:58:00,33.2,30.9,29.90,South,173,3.0,4.0,91,0.00,,,0.00,VWS V14.01,2013-02-23 02:58:00,
2013-02-22 21:59:00,33.2,30.9,29.90,South,173,2.0,4.0,91,0.00,,,0.00,VWS V14.01,2013-02-23 02:59:00,
2013-02-22 22:00:00,33.2,30.9,29.90,South,173,3.0,4.0,91,0.00,,,0.00,VWS V14.01,2013-02-23 03:00:00,
2013-02-22 22:01:00,33.1,30.8,29.90,South,173,3.0,3.0,91,0.00,,,0.00,VWS V14.01,2013-02-23 03:01:00,
2013-02-22 22:02:00,33.1,30.8,29.90,South,173,3.0,3.0,91,0.00,,,0.00,VWS V14.01,2013-02-23 03:02:00,
2013-02-22 22:03:00,33.1,30.8,29.90,South,173,2.0,3.0,91,0.00,,,0.00,VWS V14.01,2013-02-23 03:03:00,
2013-02-22 22:04:00,33.1,30.8,29.90,South,173,2.0,3.0,91,0.00,,,0.00,VWS V14.01,2013-02-23 03:04:00,
2013-02-22 22:05:00,33.1,30.8,29.90,South,173,3.0,3.0,91,0.00,,,0.00,VWS V14.01,2013-02-23 03:05:00,
2013-02-22 22:06:00,33.1,30.8,29.90,South,173,0.0,3.0,91,0.00,,,0.00,VWS V14.01,2013-02-23 03:06:00,
2013-02-22 22:07:00,33.1,30.8,29.90,South,173,2.0,3.0,91,0.00,,,0.00,VWS V14.01,2013-02-23 03:07:00,
2013-02-22 22:08:00,33.1,30.8,29.90,South,173,2.0,3.0,91,0.00,,,0.00,VWS V14.01,2013-02-23 03:08:00,
2013-02-22 22:09:00,33.1,30.8,29.90,South,173,2.0,3.0,91,0.00,,,0.00,VWS V14.01,2013-02-23 03:09:00,
2013-02-22 22:10:00,33.1,30.8,29.90,South,173,2.0,3.0,91,0.00,,,0.00,VWS V14.01,2013-02-23 03:10:00,
2013-02-22 22:11:00,33.0,30.4,29.90,South,173,2.0,3.0,90,0.00,,,0.00,VWS V14.01,2013-02-23 03:11:00,
2013-02-22 22:12:00,33.0,30.4,29.90,South,173,1.0,3.0,90,0.00,,,0.00,VWS V14.01,2013-02-23 03:12:00,
2013-02-22 22:13:00,33.0,30.7,29.90,South,173,1.0,3.0,91,0.00,,,0.00,VWS V14.01,2013-02-23 03:13:00,
2013-02-22 22:14:00,33.0,30.4,29.90,South,173,2.0,3.0,90,0.00,,,0.00,VWS V14.01,2013-02-23 03:14:00,
2013-02-22 22:15:00,33.0,30.4,29.90,South,173,2.0,3.0,90,0.00,,,0.00,VWS V14.01,2013-02-23 03:15:00,
2013-02-22 22:16:00,33.0,30.4,29.90,South,173,1.0,3.0,90,0.00,,,0.00,VWS V14.01,2013-02-23 03:16:00,
2013-02-22 22:17:00,33.0,30.4,29.90,South,173,2.0,3.0,90,0.00,,,0.00,VWS V14.01,2013-02-23 03:17:00,
2013-02-22 22:18:00,33.0,30.4,29.90,South,173,1.0,3.0,90,0.00,,,0.00,VWS V14.01,2013-02-23 03:18:00,
2013-02-22 22:19:00,33.0,30.4,29.90,South,173,2.0,3.0,90,0.00,,,0.00,VWS V14.01,2013-02-23 03:19:00,
2013-02-22 22:20:00,32.9,30.3,29.90,South,173,2.0,3.0,90,0.00,,,0.00,VWS V14.01,2013-02-23 03:20:00,
2013-02-22 22:21:00,33.0,30.4,29.90,South,173,3.0,3.0,90,0.00,,,0.00,VWS V14.01,2013-02-23 03:21:00,
2013-02-22 22:22:00,32.9,30.3,29.90,South,173,3.0,4.0,90,0.00,,,0.00,VWS V14.01,2013-02-23 03:22:00,
2013-02-22 22:23:00,32.9,30.3,29.90,South,173,1.0,4.0,90,0.00,,,0.00,VWS V14.01,2013-02-23 03:23:00,
2013-02-22 22:24:00,32.9,30.3,29.90,South,173,1.0,4.0,90,0.00,,,0.00,VWS V14.01,2013-02-23 03:24:00,
2013-02-22 22:25:00,32.9,30.3,29.90,South,173,1.0,4.0,90,0.00,,,0.00,VWS V14.01,2013-02-23 03:25:00,
2013-02-22 22:26:00,32.9,30.3,29.90,South,173,3.0,4.0,90,0.00,,,0.00,VWS V14.01,2013-02-23 03:26:00,
2013-02-22 22:27:00,32.9,30.3,29.90,South,173,3.0,4.0,90,0.00,,,0.00,VWS V14.01,2013-02-23 03:27:00,
2013-02-22 22:28:00,32.9,30.3,29.90,South,173,2.0,4.0,90,0.00,,,0.00,VWS V14.01,2013-02-23 03:28:00,
2013-02-22 22:29:00,32.9,30.3,29.90,South,173,3.0,4.0,90,0.00,,,0.00,VWS V14.01,2013-02-23 03:29:00,
2013-02-22 22:30:00,32.9,30.3,29.90,South,173,1.0,4.0,90,0.00,,,0.00,VWS V14.01,2013-02-23 03:30:00,
2013-02-22 22:31:00,32.9,30.3,29.90,South,173,2.0,2.0,90,0.00,,,0.00,VWS V14.01,2013-02-23 03:31:00,
2013-02-22 22:32:00,32.9,30.3,29.90,South,173,1.0,2.0,90,0.00,,,0.00,VWS V14.01,2013-02-23 03:32:00,
2013-02-22 22:33:00,32.9,30.3,29.90,South,173,2.0,3.0,90,0.00,,,0.00,VWS V14.01,2013-02-23 03:33:00,
2013-02-22 22:34:00,32.9,30.3,29.90,South,173,1.0,3.0,90,0.00,,,0.00,VWS V14.01,2013-02-23 03:34:00,
2013-02-22 22:35:00,32.9,30.3,29.90,South,173,3.0,3.0,90,0.00,,,0.00,VWS V14.01,2013-02-23 03:35:00,
2013-02-22 22:36:00,32.9,30.3,29.90,South,173,2.0,3.0,90,0.00,,,0.00,VWS V14.01,2013-02-23 03:36:00,
2013-02-22 22:37:00,32.8,30.2,29.90,South,173,3.0,3.0,90,0.00,,,0.00,VWS V14.01,2013-02-23 03:37:00,
2013-02-22 22:38:00,32.8,30.2,29.90,South,173,2.0,3.0,90,0.00,,,0.00,VWS V14.01,2013-02-23 03:38:00,
2013-02-22 22:39:00,32.8,30.2,29.90,South,173,1.0,3.0,90,0.00,,,0.00,VWS V14.01,2013-02-23 03:39:00,
2013-02-22 22:40:00,32.8,30.2,29.90,South,173,1.0,3.0,90,0.00,,,0.00,VWS V14.01,2013-02-23 03:40:00,
2013-02-22 22:41:00,32.8,30.2,29.90,South,173,2.0,3.0,90,0.00,,,0.00,VWS V14.01,2013-02-23 03:41:00,
2013-02-22 22:42:00,32.8,30.2,29.90,South,173,1.0,3.0,90,0.00,,,0.00,VWS V14.01,2013-02-23 03:42:00,
2013-02-22 22:43:00,32.8,30.2,29.90,South,173,2.0,3.0,90,0.00,,,0.00,VWS V14.01,2013-02-23 03:43:00,
2013-02-22 22:44:00,32.8,30.2,29.90,South,173,1.0,3.0,90,0.00,,,0.00,VWS V14.01,2013-02-23 03:44:00,
2013-02-22 22:45:00,32.8,30.2,29.90,South,173,1.0,3.0,90,0.00,,,0.00,VWS V14.01,2013-02-23 03:45:00,
2013-02-22 22:46:00,32.8,30.2,29.90,South,173,2.0,3.0,90,0.00,,,0.00,VWS V14.01,2013-02-23 03:46:00,
2013-02-22 22:47:00,32.8,30.2,29.90,South,173,0.0,3.0,90,0.00,,,0.00,VWS V14.01,2013-02-23 03:47:00,
2013-02-22 22:48:00,32.8,30.2,29.90,South,173,2.0,3.0,90,0.00,,,0.00,VWS V14.01,2013-02-23 03:48:00,
2013-02-22 22:49:00,32.8,30.2,29.90,South,173,0.0,3.0,90,0.00,,,0.00,VWS V14.01,2013-02-23 03:49:00,
2013-02-22 22:50:00,32.7,30.1,29.90,South,173,0.0,3.0,90,0.00,,,0.00,VWS V14.01,2013-02-23 03:50:00,
2013-02-22 22:51:00,32.8,30.2,29.90,South,173,2.0,3.0,90,0.00,,,0.00,VWS V14.01,2013-02-23 03:51:00,
2013-02-22 22:52:00,32.7,30.1,29.90,South,173,2.0,3.0,90,0.00,,,0.00,VWS V14.01,2013-02-23 03:52:00,
2013-02-22 22:53:00,32.7,30.1,29.90,South,173,0.0,3.0,90,0.00,,,0.00,VWS V14.01,2013-02-23 03:53:00,
2013-02-22 22:54:00,32.7,30.1,29.90,South,173,2.0,3.0,90,0.00,,,0.00,VWS V14.01,2013-02-23 03:54:00,
2013-02-22 22:55:00,32.7,30.1,29.90,South,173,1.0,3.0,90,0.00,,,0.00,VWS V14.01,2013-02-23 03:55:00,
2013-02-22 22:56:00,32.7,30.1,29.90,South,173,3.0,4.0,90,0.00,,,0.00,VWS V14.01,2013-02-23 03:56:00,
2013-02-22 22:57:00,32.7,30.1,29.90,South,173,1.0,4.0,90,0.00,,,0.00,VWS V14.01,2013-02-23 03:57:00,
2013-02-22 22:58:00,32.7,30.1,29.90,South,173,2.0,4.0,90,0.00,,,0.00,VWS V14.01,2013-02-23 03:58:00,
2013-02-22 22:59:00,32.7,30.1,29.90,South,173,1.0,4.0,90,0.00,,,0.00,VWS V14.01,2013-02-23 03:59:00,
2013-02-22 23:00:00,32.7,30.1,29.90,South,173,1.0,4.0,90,0.00,,,0.00,VWS V14.01,2013-02-23 04:00:00,
2013-02-22 23:01:00,32.7,30.1,29.90,South,173,0.0,1.0,90,0.00,,,0.00,VWS V14.01,2013-02-23 04:01:00,
2013-02-22 23:02:00,32.7,30.1,29.90,South,173,1.0,2.0,90,0.00,,,0.00,VWS V14.01,2013-02-23 04:02:00,
2013-02-22 23:03:00,32.7,30.1,29.90,South,173,1.0,2.0,90,0.00,,,0.00,VWS V14.01,2013-02-23 04:03:00,
2013-02-22 23:04:00,32.7,30.1,29.90,South,173,3.0,3.0,90,0.00,,,0.00,VWS V14.01,2013-02-23 04:04:00,
2013-02-22 23:05:00,32.7,30.1,29.90,South,173,1.0,3.0,90,0.00,,,0.00,VWS V14.01,2013-02-23 04:05:00,
2013-02-22 23:06:00,32.7,30.1,29.90,South,173,1.0,3.0,90,0.00,,,0.00,VWS V14.01,2013-02-23 04:06:00,
2013-02-22 23:07:00,32.7,30.1,29.90,South,173,1.0,3.0,90,0.00,,,0.00,VWS V14.01,2013-02-23 04:07:00,
2013-02-22 23:08:00,32.7,30.1,29.90,South,173,0.0,3.0,90,0.00,,,0.00,VWS V14.01,2013-02-23 04:08:00,
2013-02-22 23:09:00,32.6,30.0,29.90,South,173,2.0,3.0,90,0.00,,,0.00,VWS V14.01,2013-02-23 04:09:00,
2013-02-22 23:10:00,32.6,30.0,29.90,South,173,2.0,3.0,90,0.00,,,0.00,VWS V14.01,2013-02-23 04:10:00,
2013-02-22 23:11:00,32.6,30.0,29.90,South,173,2.0,3.0,90,0.00,,,0.00,VWS V14.01,2013-02-23 04:11:00,
2013-02-22 23:12:00,32.6,30.0,29.90,South,173,2.0,3.0,90,0.00,,,0.00,VWS V14.01,2013-02-23 04:12:00,
2013-02-22 23:13:00,32.6,30.0,29.90,South,173,1.0,3.0,90,0.00,,,0.00,VWS V14.01,2013-02-23 04:13:00,
2013-02-22 23:14:00,32.6,29.7,29.90,South,173,2.0,3.0,89,0.00,,,0.00,VWS V14.01,2013-02-23 04:14:00,
2013-02-22 23:15:00,32.6,29.7,29.90,South,173,2.0,3.0,89,0.00,,,0.00,VWS V14.01,2013-02-23 04:15:00,
2013-02-22 23:16:00,32.6,29.7,29.90,South,173,1.0,3.0,89,0.00,,,0.00,VWS V14.01,2013-02-23 04:16:00,
2013-02-22 23:17:00,32.6,29.7,29.90,South,173,2.0,3.0,89,0.00,,,0.00,VWS V14.01,2013-02-23 04:17:00,
2013-02-22 23:18:00,32.6,29.7,29.90,South,173,2.0,3.0,89,0.00,,,0.00,VWS V14.01,2013-02-23 04:18:00,
2013-02-22 23:19:00,32.6,29.7,29.90,South,173,2.0,3.0,89,0.00,,,0.00,VWS V14.01,2013-02-23 04:19:00,
2013-02-22 23:20:00,32.6,29.7,29.90,South,173,1.0,3.0,89,0.00,,,0.00,VWS V14.01,2013-02-23 04:20:00,
2013-02-22 23:21:00,32.6,29.7,29.90,South,173,0.0,3.0,89,0.00,,,0.00,VWS V14.01,2013-02-23 04:21:00,
2013-02-22 23:22:00,32.6,29.7,29.90,South,173,3.0,3.0,89,0.00,,,0.00,VWS V14.01,2013-02-23 04:22:00,
2013-02-22 23:23:00,32.6,29.7,29.90,South,173,1.0,3.0,89,0.00,,,0.00,VWS V14.01,2013-02-23 04:23:00,
2013-02-22 23:24:00,32.6,29.7,29.90,South,173,1.0,3.0,89,0.00,,,0.00,VWS V14.01,2013-02-23 04:24:00,
2013-02-22 23:25:00,32.6,29.7,29.90,South,173,3.0,3.0,89,0.00,,,0.00,VWS V14.01,2013-02-23 04:25:00,
2013-02-22 23:26:00,32.6,29.7,29.90,South,173,2.0,3.0,89,0.00,,,0.00,VWS V14.01,2013-02-23 04:26:00,
2013-02-22 23:27:00,32.6,29.7,29.90,South,173,1.0,3.0,89,0.00,,,0.00,VWS V14.01,2013-02-23 04:27:00,
2013-02-22 23:28:00,32.6,29.7,29.90,South,173,2.0,3.0,89,0.00,,,0.00,VWS V14.01,2013-02-23 04:28:00,
2013-02-22 23:29:00,32.6,29.7,29.90,South,173,2.0,3.0,89,0.00,,,0.00,VWS V14.01,2013-02-23 04:29:00,
2013-02-22 23:30:00,32.6,29.7,29.90,South,173,1.0,3.0,89,0.00,,,0.00,VWS V14.01,2013-02-23 04:30:00,
2013-02-22 23:31:00,32.6,29.7,29.90,South,173,0.0,2.0,89,0.00,,,0.00,VWS V14.01,2013-02-23 04:31:00,
2013-02-22 23:32:00,32.6,29.7,29.90,South,173,1.0,2.0,89,0.00,,,0.00,VWS V14.01,2013-02-23 04:32:00,
2013-02-22 23:33:00,32.6,29.7,29.90,South,173,2.0,3.0,89,0.00,,,0.00,VWS V14.01,2013-02-23 04:33:00,
2013-02-22 23:34:00,32.6,29.7,29.90,South,173,2.0,3.0,89,0.00,,,0.00,VWS V14.01,2013-02-23 04:34:00,
2013-02-22 23:35:00,32.6,29.7,29.90,South,173,1.0,3.0,89,0.00,,,0.00,VWS V14.01,2013-02-23 04:35:00,
2013-02-22 23:36:00,32.6,29.7,29.90,South,173,2.0,3.0,89,0.00,,,0.00,VWS V14.01,2013-02-23 04:36:00,
2013-02-22 23:37:00,32.6,29.7,29.90,South,173,2.0,3.0,89,0.00,,,0.00,VWS V14.01,2013-02-23 04:37:00,
2013-02-22 23:38:00,32.6,29.7,29.90,South,173,2.0,3.0,89,0.00,,,0.00,VWS V14.01,2013-02-23 04:38:00,
2013-02-22 23:39:00,32.6,29.7,29.89,South,173,2.0,3.0,89,0.00,,,0.00,VWS V14.01,2013-02-23 04:39:00,
2013-02-22 23:40:00,32.6,29.7,29.90,South,173,2.0,3.0,89,0.00,,,0.00,VWS V14.01,2013-02-23 04:40:00,
2013-02-22 23:41:00,32.6,29.7,29.90,South,173,2.0,3.0,89,0.00,,,0.00,VWS V14.01,2013-02-23 04:41:00,
2013-02-22 23:42:00,32.6,29.7,29.90,South,173,2.0,3.0,89,0.00,,,0.00,VWS V14.01,2013-02-23 04:42:00,
2013-02-22 23:43:00,32.6,29.7,29.90,South,173,1.0,3.0,89,0.00,,,0.00,VWS V14.01,2013-02-23 04:43:00,
2013-02-22 23:44:00,32.6,29.7,29.89,South,173,2.0,3.0,89,0.00,,,0.00,VWS V14.01,2013-02-23 04:44:00,
2013-02-22 23:45:00,32.6,29.7,29.90,South,173,2.0,3.0,89,0.00,,,0.00,VWS V14.01,2013-02-23 04:45:00,
2013-02-22 23:46:00,32.6,29.7,29.90,South,173,3.0,3.0,89,0.00,,,0.00,VWS V14.01,2013-02-23 04:46:00,
2013-02-22 23:47:00,32.6,29.7,29.90,South,174,2.0,4.0,89,0.00,,,0.00,VWS V14.01,2013-02-23 04:47:00,
2013-02-22 23:48:00,32.6,29.7,29.90,South,173,4.0,4.0,89,0.00,,,0.00,VWS V14.01,2013-02-23 04:48:00,
2013-02-22 23:49:00,32.6,29.7,29.90,South,175,1.0,5.0,89,0.00,,,0.00,VWS V14.01,2013-02-23 04:49:00,
2013-02-22 23:50:00,32.6,29.7,29.89,South,175,1.0,5.0,89,0.00,,,0.00,VWS V14.01,2013-02-23 04:50:00,
2013-02-22 23:51:00,32.6,29.7,29.89,South,175,1.0,5.0,89,0.00,,,0.00,VWS V14.01,2013-02-23 04:51:00,
2013-02-22 23:52:00,32.6,29.7,29.90,South,175,1.0,5.0,89,0.00,,,0.00,VWS V14.01,2013-02-23 04:52:00,
2013-02-22 23:53:00,32.6,29.7,29.90,South,175,1.0,5.0,89,0.00,,,0.00,VWS V14.01,2013-02-23 04:53:00,
2013-02-22 23:54:00,32.6,29.7,29.89,South,175,0.0,5.0,89,0.00,,,0.00,VWS V14.01,2013-02-23 04:54:00,
2013-02-22 23:55:00,32.6,29.7,29.89,South,175,2.0,5.0,89,0.00,,,0.00,VWS V14.01,2013-02-23 04:55:00,
2013-02-22 23:56:00,32.6,29.7,29.89,South,175,1.0,5.0,89,0.00,,,0.00,VWS V14.01,2013-02-23 04:56:00,
2013-02-22 23:57:00,32.6,29.7,29.89,South,175,2.0,5.0,89,0.00,,,0.00,VWS V14.01,2013-02-23 04:57:00,
2013-02-22 23:58:00,32.6,29.7,29.89,South,175,2.0,5.0,89,0.00,,,0.00,VWS V14.01,2013-02-23 04:58:00,
2013-02-22 23:59:00,32.6,29.7,29.89,South,175,2.0,5.0,89,0.00,,,0.00,VWS V14.01,2013-02-23 04:59:00,